<?xml version="1.0" encoding="UTF-8" standalone="no" ?>
<gpx xmlns="http://www.topografix.com/GPX/1/1" xmlns:xsi="http://www.w3.org/2001/XMLSchema-instance" xsi:schemaLocation="http://www.topografix.com/GPX/1/1 http://www.topografix.com/GPX/1/1/gpx.xsd" version="1.1" creator="VisuGPX - https://www.visugpx.com">
  <metadata>
    <name>Randonnée Sud de Laon</name>
    <desc><![CDATA[File with points/tracks from Locus Map/4.3.3]]></desc>
  </metadata>
  <trk>
    <name><![CDATA[2021-08-22 08:30:16]]></name>
    <extensions>
      <line xmlns="http://www.topografix.com/GPX/gpx_style/0/2">
        <color>0000FF</color>
        <opacity>0.59</opacity>
        <width>6.0</width>
      </line>
    </extensions>
    <trkseg>
      <trkpt lat="49.5287" lon="3.56888">
        <ele>74.72</ele>
        <time>2021-08-22T06:30:16.000Z</time>
      </trkpt>
      <trkpt lat="49.52874" lon="3.56887">
        <ele>72.77</ele>
        <time>2021-08-22T06:30:25.592Z</time>
      </trkpt>
      <trkpt lat="49.52883" lon="3.56881">
        <ele>72.76</ele>
        <time>2021-08-22T06:30:35.000Z</time>
      </trkpt>
      <trkpt lat="49.52884" lon="3.56881">
        <ele>66.09</ele>
        <time>2021-08-22T06:30:44.693Z</time>
      </trkpt>
      <trkpt lat="49.52879" lon="3.56885">
        <ele>66.12</ele>
        <time>2021-08-22T06:30:54.000Z</time>
      </trkpt>
      <trkpt lat="49.5288" lon="3.56882">
        <ele>66.08</ele>
        <time>2021-08-22T06:31:04.000Z</time>
      </trkpt>
      <trkpt lat="49.52878" lon="3.56887">
        <ele>66.23</ele>
        <time>2021-08-22T06:31:26.000Z</time>
      </trkpt>
      <trkpt lat="49.5288" lon="3.56889">
        <ele>66.1</ele>
        <time>2021-08-22T06:31:36.000Z</time>
      </trkpt>
      <trkpt lat="49.5288" lon="3.56887">
        <ele>66.11</ele>
        <time>2021-08-22T06:31:46.000Z</time>
      </trkpt>
      <trkpt lat="49.52883" lon="3.56889">
        <ele>66.11</ele>
        <time>2021-08-22T06:31:55.333Z</time>
      </trkpt>
      <trkpt lat="49.52885" lon="3.56886">
        <ele>66</ele>
        <time>2021-08-22T06:32:05.000Z</time>
      </trkpt>
      <trkpt lat="49.52886" lon="3.56884">
        <ele>66.09</ele>
        <time>2021-08-22T06:32:15.000Z</time>
      </trkpt>
      <trkpt lat="49.52887" lon="3.5688">
        <ele>66.11</ele>
        <time>2021-08-22T06:32:25.000Z</time>
      </trkpt>
      <trkpt lat="49.52888" lon="3.56879">
        <ele>66.18</ele>
        <time>2021-08-22T06:32:37.000Z</time>
      </trkpt>
      <trkpt lat="49.52888" lon="3.5688">
        <ele>66.19</ele>
        <time>2021-08-22T06:32:46.072Z</time>
      </trkpt>
      <trkpt lat="49.52888" lon="3.56881">
        <ele>66.2</ele>
        <time>2021-08-22T06:32:56.000Z</time>
      </trkpt>
      <trkpt lat="49.52888" lon="3.56882">
        <ele>66.21</ele>
        <time>2021-08-22T06:33:07.000Z</time>
      </trkpt>
      <trkpt lat="49.52884" lon="3.56892">
        <ele>66.26</ele>
        <time>2021-08-22T06:33:17.000Z</time>
      </trkpt>
      <trkpt lat="49.52882" lon="3.56895">
        <ele>65.5</ele>
        <time>2021-08-22T06:33:27.000Z</time>
      </trkpt>
      <trkpt lat="49.52875" lon="3.56896">
        <ele>65.68</ele>
        <time>2021-08-22T06:33:37.000Z</time>
      </trkpt>
      <trkpt lat="49.52875" lon="3.56898">
        <ele>65.62</ele>
        <time>2021-08-22T06:33:47.000Z</time>
      </trkpt>
      <trkpt lat="49.52874" lon="3.56899">
        <ele>65.62</ele>
        <time>2021-08-22T06:34:07.000Z</time>
      </trkpt>
      <trkpt lat="49.52878" lon="3.56906">
        <ele>66.07</ele>
        <time>2021-08-22T06:34:17.000Z</time>
      </trkpt>
      <trkpt lat="49.52879" lon="3.56904">
        <ele>66.03</ele>
        <time>2021-08-22T06:34:27.000Z</time>
      </trkpt>
      <trkpt lat="49.52876" lon="3.56899">
        <ele>65.94</ele>
        <time>2021-08-22T06:34:37.000Z</time>
      </trkpt>
      <trkpt lat="49.52872" lon="3.5689">
        <ele>65.88</ele>
        <time>2021-08-22T06:34:47.000Z</time>
      </trkpt>
      <trkpt lat="49.52876" lon="3.56886">
        <ele>66.11</ele>
        <time>2021-08-22T06:34:56.752Z</time>
      </trkpt>
      <trkpt lat="49.52882" lon="3.56879">
        <ele>66.07</ele>
        <time>2021-08-22T06:35:06.000Z</time>
      </trkpt>
      <trkpt lat="49.52877" lon="3.56878">
        <ele>65.87</ele>
        <time>2021-08-22T06:35:15.813Z</time>
      </trkpt>
      <trkpt lat="49.52873" lon="3.56889">
        <ele>65.97</ele>
        <time>2021-08-22T06:35:24.952Z</time>
      </trkpt>
      <trkpt lat="49.52871" lon="3.56889">
        <ele>65.97</ele>
        <time>2021-08-22T06:35:35.073Z</time>
      </trkpt>
      <trkpt lat="49.52868" lon="3.56891">
        <ele>65.97</ele>
        <time>2021-08-22T06:35:45.000Z</time>
      </trkpt>
      <trkpt lat="49.52868" lon="3.56893">
        <ele>87.51</ele>
        <time>2021-08-22T06:35:55.000Z</time>
      </trkpt>
      <trkpt lat="49.52867" lon="3.56891">
        <ele>88.82</ele>
        <time>2021-08-22T06:36:04.732Z</time>
      </trkpt>
      <trkpt lat="49.52868" lon="3.5689">
        <ele>88.52</ele>
        <time>2021-08-22T06:36:21.000Z</time>
      </trkpt>
      <trkpt lat="49.52869" lon="3.56891">
        <ele>65.55</ele>
        <time>2021-08-22T06:36:31.000Z</time>
      </trkpt>
      <trkpt lat="49.52869" lon="3.56893">
        <ele>65.22</ele>
        <time>2021-08-22T06:36:45.000Z</time>
      </trkpt>
      <trkpt lat="49.52867" lon="3.56886">
        <ele>65.09</ele>
        <time>2021-08-22T06:37:17.000Z</time>
      </trkpt>
      <trkpt lat="49.52866" lon="3.56876">
        <ele>65.18</ele>
        <time>2021-08-22T06:37:27.000Z</time>
      </trkpt>
      <trkpt lat="49.52874" lon="3.56879">
        <ele>91.63</ele>
        <time>2021-08-22T06:37:37.000Z</time>
      </trkpt>
      <trkpt lat="49.5288" lon="3.56876">
        <ele>90.15</ele>
        <time>2021-08-22T06:37:46.421Z</time>
      </trkpt>
      <trkpt lat="49.52882" lon="3.56873">
        <ele>90.82</ele>
        <time>2021-08-22T06:37:56.000Z</time>
      </trkpt>
      <trkpt lat="49.5288" lon="3.56868">
        <ele>90.38</ele>
        <time>2021-08-22T06:38:06.000Z</time>
      </trkpt>
      <trkpt lat="49.52874" lon="3.56862">
        <ele>88.35</ele>
        <time>2021-08-22T06:38:15.316Z</time>
      </trkpt>
      <trkpt lat="49.52864" lon="3.56856">
        <ele>87.93</ele>
        <time>2021-08-22T06:38:24.776Z</time>
      </trkpt>
      <trkpt lat="49.52856" lon="3.56851">
        <ele>88.09</ele>
        <time>2021-08-22T06:38:34.000Z</time>
      </trkpt>
      <trkpt lat="49.52847" lon="3.56849">
        <ele>83.91</ele>
        <time>2021-08-22T06:38:44.000Z</time>
      </trkpt>
      <trkpt lat="49.52835" lon="3.5684">
        <ele>83.34</ele>
        <time>2021-08-22T06:38:53.617Z</time>
      </trkpt>
      <trkpt lat="49.52827" lon="3.56837">
        <ele>83.33</ele>
        <time>2021-08-22T06:39:03.296Z</time>
      </trkpt>
      <trkpt lat="49.52814" lon="3.56832">
        <ele>81.96</ele>
        <time>2021-08-22T06:39:14.000Z</time>
      </trkpt>
      <trkpt lat="49.52811" lon="3.56816">
        <ele>81.22</ele>
        <time>2021-08-22T06:39:23.016Z</time>
      </trkpt>
      <trkpt lat="49.52812" lon="3.56799">
        <ele>66.08</ele>
        <time>2021-08-22T06:39:33.000Z</time>
      </trkpt>
      <trkpt lat="49.52816" lon="3.56783">
        <ele>65.92</ele>
        <time>2021-08-22T06:39:43.000Z</time>
      </trkpt>
      <trkpt lat="49.52822" lon="3.56769">
        <ele>65.89</ele>
        <time>2021-08-22T06:39:53.176Z</time>
      </trkpt>
      <trkpt lat="49.52828" lon="3.56753">
        <ele>65.99</ele>
        <time>2021-08-22T06:40:03.000Z</time>
      </trkpt>
      <trkpt lat="49.52831" lon="3.56736">
        <ele>65.79</ele>
        <time>2021-08-22T06:40:12.444Z</time>
      </trkpt>
      <trkpt lat="49.52829" lon="3.56722">
        <ele>65.45</ele>
        <time>2021-08-22T06:40:22.000Z</time>
      </trkpt>
      <trkpt lat="49.52834" lon="3.56705">
        <ele>65.44</ele>
        <time>2021-08-22T06:40:32.059Z</time>
      </trkpt>
      <trkpt lat="49.5284" lon="3.56689">
        <ele>65.37</ele>
        <time>2021-08-22T06:40:41.616Z</time>
      </trkpt>
      <trkpt lat="49.52842" lon="3.56671">
        <ele>65.3</ele>
        <time>2021-08-22T06:40:51.016Z</time>
      </trkpt>
      <trkpt lat="49.52842" lon="3.56652">
        <ele>65.41</ele>
        <time>2021-08-22T06:41:00.296Z</time>
      </trkpt>
      <trkpt lat="49.52846" lon="3.56635">
        <ele>65.39</ele>
        <time>2021-08-22T06:41:09.556Z</time>
      </trkpt>
      <trkpt lat="49.5285" lon="3.56616">
        <ele>65.42</ele>
        <time>2021-08-22T06:41:20.000Z</time>
      </trkpt>
      <trkpt lat="49.52852" lon="3.56599">
        <ele>65.26</ele>
        <time>2021-08-22T06:41:29.344Z</time>
      </trkpt>
      <trkpt lat="49.52854" lon="3.56584">
        <ele>65.34</ele>
        <time>2021-08-22T06:41:38.816Z</time>
      </trkpt>
      <trkpt lat="49.52856" lon="3.56569">
        <ele>65.95</ele>
        <time>2021-08-22T06:41:47.976Z</time>
      </trkpt>
      <trkpt lat="49.52854" lon="3.56553">
        <ele>66.48</ele>
        <time>2021-08-22T06:41:58.000Z</time>
      </trkpt>
      <trkpt lat="49.52853" lon="3.56538">
        <ele>66.87</ele>
        <time>2021-08-22T06:42:08.000Z</time>
      </trkpt>
      <trkpt lat="49.52857" lon="3.56527">
        <ele>67.04</ele>
        <time>2021-08-22T06:42:17.436Z</time>
      </trkpt>
      <trkpt lat="49.5286" lon="3.56513">
        <ele>67.08</ele>
        <time>2021-08-22T06:42:26.920Z</time>
      </trkpt>
      <trkpt lat="49.52852" lon="3.56498">
        <ele>67.1</ele>
        <time>2021-08-22T06:42:36.176Z</time>
      </trkpt>
      <trkpt lat="49.5285" lon="3.56479">
        <ele>67.12</ele>
        <time>2021-08-22T06:42:45.837Z</time>
      </trkpt>
      <trkpt lat="49.52849" lon="3.56463">
        <ele>67.19</ele>
        <time>2021-08-22T06:42:54.996Z</time>
      </trkpt>
      <trkpt lat="49.52849" lon="3.56445">
        <ele>67.13</ele>
        <time>2021-08-22T06:43:04.096Z</time>
      </trkpt>
      <trkpt lat="49.52847" lon="3.56428">
        <ele>67.64</ele>
        <time>2021-08-22T06:43:13.617Z</time>
      </trkpt>
      <trkpt lat="49.52847" lon="3.56405">
        <ele>69.47</ele>
        <time>2021-08-22T06:43:22.699Z</time>
      </trkpt>
      <trkpt lat="49.52849" lon="3.56386">
        <ele>70.09</ele>
        <time>2021-08-22T06:43:32.000Z</time>
      </trkpt>
      <trkpt lat="49.52856" lon="3.56376">
        <ele>70.19</ele>
        <time>2021-08-22T06:43:41.876Z</time>
      </trkpt>
      <trkpt lat="49.52867" lon="3.56371">
        <ele>70.16</ele>
        <time>2021-08-22T06:43:51.116Z</time>
      </trkpt>
      <trkpt lat="49.52878" lon="3.56366">
        <ele>70.18</ele>
        <time>2021-08-22T06:44:00.339Z</time>
      </trkpt>
      <trkpt lat="49.52891" lon="3.56363">
        <ele>69.82</ele>
        <time>2021-08-22T06:44:09.557Z</time>
      </trkpt>
      <trkpt lat="49.52903" lon="3.56364">
        <ele>70.16</ele>
        <time>2021-08-22T06:44:19.000Z</time>
      </trkpt>
      <trkpt lat="49.52902" lon="3.56363">
        <ele>70.43</ele>
        <time>2021-08-22T06:44:35.000Z</time>
      </trkpt>
      <trkpt lat="49.529" lon="3.56363">
        <ele>70.45</ele>
        <time>2021-08-22T06:44:45.000Z</time>
      </trkpt>
      <trkpt lat="49.52903" lon="3.56374">
        <ele>70.54</ele>
        <time>2021-08-22T06:44:55.000Z</time>
      </trkpt>
      <trkpt lat="49.52908" lon="3.5638">
        <ele>70.59</ele>
        <time>2021-08-22T06:45:04.596Z</time>
      </trkpt>
      <trkpt lat="49.52916" lon="3.56382">
        <ele>70.48</ele>
        <time>2021-08-22T06:45:14.000Z</time>
      </trkpt>
      <trkpt lat="49.5293" lon="3.56372">
        <ele>70.38</ele>
        <time>2021-08-22T06:45:23.298Z</time>
      </trkpt>
      <trkpt lat="49.52948" lon="3.56363">
        <ele>70.16</ele>
        <time>2021-08-22T06:45:33.000Z</time>
      </trkpt>
      <trkpt lat="49.52961" lon="3.56369">
        <ele>70.26</ele>
        <time>2021-08-22T06:45:43.000Z</time>
      </trkpt>
      <trkpt lat="49.52969" lon="3.56369">
        <ele>70.27</ele>
        <time>2021-08-22T06:45:53.000Z</time>
      </trkpt>
      <trkpt lat="49.52985" lon="3.56365">
        <ele>70.38</ele>
        <time>2021-08-22T06:46:03.000Z</time>
      </trkpt>
      <trkpt lat="49.52994" lon="3.56368">
        <ele>70.5</ele>
        <time>2021-08-22T06:46:13.000Z</time>
      </trkpt>
      <trkpt lat="49.5301" lon="3.56374">
        <ele>70.57</ele>
        <time>2021-08-22T06:46:23.000Z</time>
      </trkpt>
      <trkpt lat="49.53021" lon="3.56364">
        <ele>70.56</ele>
        <time>2021-08-22T06:46:33.000Z</time>
      </trkpt>
      <trkpt lat="49.53032" lon="3.56353">
        <ele>71.9</ele>
        <time>2021-08-22T06:46:43.000Z</time>
      </trkpt>
      <trkpt lat="49.53044" lon="3.56341">
        <ele>72.87</ele>
        <time>2021-08-22T06:46:53.000Z</time>
      </trkpt>
      <trkpt lat="49.53058" lon="3.56341">
        <ele>72.97</ele>
        <time>2021-08-22T06:47:03.000Z</time>
      </trkpt>
      <trkpt lat="49.53069" lon="3.5633">
        <ele>72.94</ele>
        <time>2021-08-22T06:47:13.000Z</time>
      </trkpt>
      <trkpt lat="49.53083" lon="3.56322">
        <ele>74.58</ele>
        <time>2021-08-22T06:47:23.000Z</time>
      </trkpt>
      <trkpt lat="49.53094" lon="3.56312">
        <ele>71.75</ele>
        <time>2021-08-22T06:47:33.000Z</time>
      </trkpt>
      <trkpt lat="49.53105" lon="3.563">
        <ele>73.34</ele>
        <time>2021-08-22T06:47:43.000Z</time>
      </trkpt>
      <trkpt lat="49.53118" lon="3.56295">
        <ele>73.01</ele>
        <time>2021-08-22T06:47:53.000Z</time>
      </trkpt>
      <trkpt lat="49.53123" lon="3.56286">
        <ele>75.03</ele>
        <time>2021-08-22T06:48:03.000Z</time>
      </trkpt>
      <trkpt lat="49.53118" lon="3.56279">
        <ele>77.12</ele>
        <time>2021-08-22T06:48:13.000Z</time>
      </trkpt>
      <trkpt lat="49.53113" lon="3.56261">
        <ele>75.69</ele>
        <time>2021-08-22T06:48:23.000Z</time>
      </trkpt>
      <trkpt lat="49.53112" lon="3.56254">
        <ele>76.18</ele>
        <time>2021-08-22T06:48:32.999Z</time>
      </trkpt>
      <trkpt lat="49.53113" lon="3.56255">
        <ele>75.81</ele>
        <time>2021-08-22T06:48:42.236Z</time>
      </trkpt>
      <trkpt lat="49.53113" lon="3.56242">
        <ele>76.3</ele>
        <time>2021-08-22T06:48:51.363Z</time>
      </trkpt>
      <trkpt lat="49.53102" lon="3.56231">
        <ele>77.04</ele>
        <time>2021-08-22T06:49:01.337Z</time>
      </trkpt>
      <trkpt lat="49.53101" lon="3.56213">
        <ele>77.24</ele>
        <time>2021-08-22T06:49:10.576Z</time>
      </trkpt>
      <trkpt lat="49.53102" lon="3.5619">
        <ele>75.21</ele>
        <time>2021-08-22T06:49:20.999Z</time>
      </trkpt>
      <trkpt lat="49.5311" lon="3.56167">
        <ele>77.18</ele>
        <time>2021-08-22T06:49:30.618Z</time>
      </trkpt>
      <trkpt lat="49.53121" lon="3.56152">
        <ele>75.57</ele>
        <time>2021-08-22T06:49:40.156Z</time>
      </trkpt>
      <trkpt lat="49.53132" lon="3.56142">
        <ele>77.98</ele>
        <time>2021-08-22T06:49:49.277Z</time>
      </trkpt>
      <trkpt lat="49.53142" lon="3.56135">
        <ele>76.73</ele>
        <time>2021-08-22T06:49:58.320Z</time>
      </trkpt>
      <trkpt lat="49.53156" lon="3.56133">
        <ele>75.68</ele>
        <time>2021-08-22T06:50:08.057Z</time>
      </trkpt>
      <trkpt lat="49.53172" lon="3.56126">
        <ele>77.96</ele>
        <time>2021-08-22T06:50:18.155Z</time>
      </trkpt>
      <trkpt lat="49.53186" lon="3.56118">
        <ele>74.73</ele>
        <time>2021-08-22T06:50:27.297Z</time>
      </trkpt>
      <trkpt lat="49.53196" lon="3.56116">
        <ele>76.86</ele>
        <time>2021-08-22T06:50:37.036Z</time>
      </trkpt>
      <trkpt lat="49.53207" lon="3.56108">
        <ele>76.6</ele>
        <time>2021-08-22T06:50:46.896Z</time>
      </trkpt>
      <trkpt lat="49.5322" lon="3.56102">
        <ele>77.45</ele>
        <time>2021-08-22T06:50:55.999Z</time>
      </trkpt>
      <trkpt lat="49.53234" lon="3.56093">
        <ele>74.9</ele>
        <time>2021-08-22T06:51:05.999Z</time>
      </trkpt>
      <trkpt lat="49.53248" lon="3.56083">
        <ele>74.45</ele>
        <time>2021-08-22T06:51:15.999Z</time>
      </trkpt>
      <trkpt lat="49.53266" lon="3.56078">
        <ele>75.34</ele>
        <time>2021-08-22T06:51:25.999Z</time>
      </trkpt>
      <trkpt lat="49.53282" lon="3.56075">
        <ele>72.41</ele>
        <time>2021-08-22T06:51:35.999Z</time>
      </trkpt>
      <trkpt lat="49.53298" lon="3.5608">
        <ele>76.4</ele>
        <time>2021-08-22T06:51:45.999Z</time>
      </trkpt>
      <trkpt lat="49.5331" lon="3.56086">
        <ele>76.21</ele>
        <time>2021-08-22T06:51:55.999Z</time>
      </trkpt>
      <trkpt lat="49.53321" lon="3.56094">
        <ele>72.44</ele>
        <time>2021-08-22T06:52:05.317Z</time>
      </trkpt>
      <trkpt lat="49.53331" lon="3.56099">
        <ele>72.6</ele>
        <time>2021-08-22T06:52:15.336Z</time>
      </trkpt>
      <trkpt lat="49.53336" lon="3.561">
        <ele>72.72</ele>
        <time>2021-08-22T06:52:24.999Z</time>
      </trkpt>
      <trkpt lat="49.53335" lon="3.561">
        <ele>72.82</ele>
        <time>2021-08-22T06:52:37.999Z</time>
      </trkpt>
      <trkpt lat="49.53336" lon="3.56099">
        <ele>73.05</ele>
        <time>2021-08-22T06:52:51.999Z</time>
      </trkpt>
      <trkpt lat="49.53338" lon="3.56101">
        <ele>73.43</ele>
        <time>2021-08-22T06:53:01.999Z</time>
      </trkpt>
      <trkpt lat="49.53339" lon="3.56103">
        <ele>72.71</ele>
        <time>2021-08-22T06:53:11.999Z</time>
      </trkpt>
      <trkpt lat="49.5334" lon="3.56104">
        <ele>72.7</ele>
        <time>2021-08-22T06:53:21.999Z</time>
      </trkpt>
      <trkpt lat="49.53342" lon="3.56104">
        <ele>72.73</ele>
        <time>2021-08-22T06:53:31.396Z</time>
      </trkpt>
      <trkpt lat="49.53349" lon="3.56101">
        <ele>73.03</ele>
        <time>2021-08-22T06:53:40.999Z</time>
      </trkpt>
      <trkpt lat="49.53366" lon="3.56111">
        <ele>73</ele>
        <time>2021-08-22T06:53:50.436Z</time>
      </trkpt>
      <trkpt lat="49.53385" lon="3.56119">
        <ele>72.69</ele>
        <time>2021-08-22T06:54:00.037Z</time>
      </trkpt>
      <trkpt lat="49.53394" lon="3.56118">
        <ele>72.8</ele>
        <time>2021-08-22T06:54:09.999Z</time>
      </trkpt>
      <trkpt lat="49.53407" lon="3.56121">
        <ele>72.84</ele>
        <time>2021-08-22T06:54:19.429Z</time>
      </trkpt>
      <trkpt lat="49.5342" lon="3.56122">
        <ele>72.7</ele>
        <time>2021-08-22T06:54:28.876Z</time>
      </trkpt>
      <trkpt lat="49.53433" lon="3.56125">
        <ele>72.62</ele>
        <time>2021-08-22T06:54:38.917Z</time>
      </trkpt>
      <trkpt lat="49.53444" lon="3.56125">
        <ele>72.75</ele>
        <time>2021-08-22T06:54:47.956Z</time>
      </trkpt>
      <trkpt lat="49.53459" lon="3.56129">
        <ele>72.78</ele>
        <time>2021-08-22T06:54:57.336Z</time>
      </trkpt>
      <trkpt lat="49.53472" lon="3.56132">
        <ele>72.88</ele>
        <time>2021-08-22T06:55:06.796Z</time>
      </trkpt>
      <trkpt lat="49.53484" lon="3.56132">
        <ele>73.06</ele>
        <time>2021-08-22T06:55:16.037Z</time>
      </trkpt>
      <trkpt lat="49.53496" lon="3.56133">
        <ele>73.03</ele>
        <time>2021-08-22T06:55:25.277Z</time>
      </trkpt>
      <trkpt lat="49.53504" lon="3.56123">
        <ele>72.96</ele>
        <time>2021-08-22T06:55:34.298Z</time>
      </trkpt>
      <trkpt lat="49.53507" lon="3.5611">
        <ele>73.02</ele>
        <time>2021-08-22T06:55:43.475Z</time>
      </trkpt>
      <trkpt lat="49.53514" lon="3.561">
        <ele>73.29</ele>
        <time>2021-08-22T06:55:53.401Z</time>
      </trkpt>
      <trkpt lat="49.53524" lon="3.56095">
        <ele>73.19</ele>
        <time>2021-08-22T06:56:03.256Z</time>
      </trkpt>
      <trkpt lat="49.53523" lon="3.56109">
        <ele>73.23</ele>
        <time>2021-08-22T06:56:12.532Z</time>
      </trkpt>
      <trkpt lat="49.53524" lon="3.56084">
        <ele>73.25</ele>
        <time>2021-08-22T06:56:21.596Z</time>
      </trkpt>
      <trkpt lat="49.53529" lon="3.5607">
        <ele>73.18</ele>
        <time>2021-08-22T06:56:31.999Z</time>
      </trkpt>
      <trkpt lat="49.53539" lon="3.5607">
        <ele>73.21</ele>
        <time>2021-08-22T06:56:41.099Z</time>
      </trkpt>
      <trkpt lat="49.53545" lon="3.56056">
        <ele>73.34</ele>
        <time>2021-08-22T06:56:50.837Z</time>
      </trkpt>
      <trkpt lat="49.53554" lon="3.56039">
        <ele>73.31</ele>
        <time>2021-08-22T06:56:59.879Z</time>
      </trkpt>
      <trkpt lat="49.53564" lon="3.56017">
        <ele>73.45</ele>
        <time>2021-08-22T06:57:08.917Z</time>
      </trkpt>
      <trkpt lat="49.5357" lon="3.56001">
        <ele>73.5</ele>
        <time>2021-08-22T06:57:18.196Z</time>
      </trkpt>
      <trkpt lat="49.53582" lon="3.55999">
        <ele>74.19</ele>
        <time>2021-08-22T06:57:27.877Z</time>
      </trkpt>
      <trkpt lat="49.53596" lon="3.55996">
        <ele>74.22</ele>
        <time>2021-08-22T06:57:37.157Z</time>
      </trkpt>
      <trkpt lat="49.53607" lon="3.55999">
        <ele>74.11</ele>
        <time>2021-08-22T06:57:46.370Z</time>
      </trkpt>
      <trkpt lat="49.53619" lon="3.56002">
        <ele>74.29</ele>
        <time>2021-08-22T06:57:55.736Z</time>
      </trkpt>
      <trkpt lat="49.5363" lon="3.55999">
        <ele>74.49</ele>
        <time>2021-08-22T06:58:05.002Z</time>
      </trkpt>
      <trkpt lat="49.53642" lon="3.55999">
        <ele>74.55</ele>
        <time>2021-08-22T06:58:14.059Z</time>
      </trkpt>
      <trkpt lat="49.53657" lon="3.55997">
        <ele>74.5</ele>
        <time>2021-08-22T06:58:23.999Z</time>
      </trkpt>
      <trkpt lat="49.53664" lon="3.56007">
        <ele>74.36</ele>
        <time>2021-08-22T06:58:33.417Z</time>
      </trkpt>
      <trkpt lat="49.53661" lon="3.56031">
        <ele>74.22</ele>
        <time>2021-08-22T06:58:42.579Z</time>
      </trkpt>
      <trkpt lat="49.53659" lon="3.56057">
        <ele>74.3</ele>
        <time>2021-08-22T06:58:52.297Z</time>
      </trkpt>
      <trkpt lat="49.53666" lon="3.56072">
        <ele>74.31</ele>
        <time>2021-08-22T06:59:02.076Z</time>
      </trkpt>
      <trkpt lat="49.53672" lon="3.56084">
        <ele>74.27</ele>
        <time>2021-08-22T06:59:11.999Z</time>
      </trkpt>
      <trkpt lat="49.53671" lon="3.56085">
        <ele>74.12</ele>
        <time>2021-08-22T06:59:21.999Z</time>
      </trkpt>
      <trkpt lat="49.5367" lon="3.56084">
        <ele>74.13</ele>
        <time>2021-08-22T06:59:31.999Z</time>
      </trkpt>
      <trkpt lat="49.5367" lon="3.56086">
        <ele>74.24</ele>
        <time>2021-08-22T06:59:47.999Z</time>
      </trkpt>
      <trkpt lat="49.5367" lon="3.56092">
        <ele>74.1</ele>
        <time>2021-08-22T06:59:57.999Z</time>
      </trkpt>
      <trkpt lat="49.53669" lon="3.5609">
        <ele>74.13</ele>
        <time>2021-08-22T07:00:07.396Z</time>
      </trkpt>
      <trkpt lat="49.53678" lon="3.56091">
        <ele>74.23</ele>
        <time>2021-08-22T07:00:16.999Z</time>
      </trkpt>
      <trkpt lat="49.53697" lon="3.56093">
        <ele>74.2</ele>
        <time>2021-08-22T07:00:26.037Z</time>
      </trkpt>
      <trkpt lat="49.53712" lon="3.56097">
        <ele>74.28</ele>
        <time>2021-08-22T07:00:35.096Z</time>
      </trkpt>
      <trkpt lat="49.53725" lon="3.56106">
        <ele>74.27</ele>
        <time>2021-08-22T07:00:45.097Z</time>
      </trkpt>
      <trkpt lat="49.53729" lon="3.56125">
        <ele>74.28</ele>
        <time>2021-08-22T07:00:54.999Z</time>
      </trkpt>
      <trkpt lat="49.53727" lon="3.5615">
        <ele>74.23</ele>
        <time>2021-08-22T07:01:04.876Z</time>
      </trkpt>
      <trkpt lat="49.53727" lon="3.56167">
        <ele>81.7</ele>
        <time>2021-08-22T07:01:14.999Z</time>
      </trkpt>
      <trkpt lat="49.53729" lon="3.56188">
        <ele>82.26</ele>
        <time>2021-08-22T07:01:24.099Z</time>
      </trkpt>
      <trkpt lat="49.53724" lon="3.56208">
        <ele>82.32</ele>
        <time>2021-08-22T07:01:33.999Z</time>
      </trkpt>
      <trkpt lat="49.53722" lon="3.56214">
        <ele>83.45</ele>
        <time>2021-08-22T07:01:43.999Z</time>
      </trkpt>
      <trkpt lat="49.53721" lon="3.56213">
        <ele>82.43</ele>
        <time>2021-08-22T07:01:53.999Z</time>
      </trkpt>
      <trkpt lat="49.53721" lon="3.5621">
        <ele>82.23</ele>
        <time>2021-08-22T07:02:03.999Z</time>
      </trkpt>
      <trkpt lat="49.5372" lon="3.56204">
        <ele>82.13</ele>
        <time>2021-08-22T07:02:13.999Z</time>
      </trkpt>
      <trkpt lat="49.53721" lon="3.56206">
        <ele>82.46</ele>
        <time>2021-08-22T07:02:23.999Z</time>
      </trkpt>
      <trkpt lat="49.53722" lon="3.56207">
        <ele>83.77</ele>
        <time>2021-08-22T07:02:37.999Z</time>
      </trkpt>
      <trkpt lat="49.53724" lon="3.56206">
        <ele>70.8</ele>
        <time>2021-08-22T07:02:47.999Z</time>
      </trkpt>
      <trkpt lat="49.53723" lon="3.56208">
        <ele>70.75</ele>
        <time>2021-08-22T07:03:04.999Z</time>
      </trkpt>
      <trkpt lat="49.5372" lon="3.5621">
        <ele>70.77</ele>
        <time>2021-08-22T07:03:14.999Z</time>
      </trkpt>
      <trkpt lat="49.53721" lon="3.56209">
        <ele>70.73</ele>
        <time>2021-08-22T07:03:25.999Z</time>
      </trkpt>
      <trkpt lat="49.5372" lon="3.56208">
        <ele>80.06</ele>
        <time>2021-08-22T07:03:42.139Z</time>
      </trkpt>
      <trkpt lat="49.5372" lon="3.56207">
        <ele>82.29</ele>
        <time>2021-08-22T07:03:51.999Z</time>
      </trkpt>
      <trkpt lat="49.53721" lon="3.56207">
        <ele>70.63</ele>
        <time>2021-08-22T07:04:01.999Z</time>
      </trkpt>
      <trkpt lat="49.5372" lon="3.56209">
        <ele>70.57</ele>
        <time>2021-08-22T07:04:11.999Z</time>
      </trkpt>
      <trkpt lat="49.53719" lon="3.5621">
        <ele>70.62</ele>
        <time>2021-08-22T07:04:21.999Z</time>
      </trkpt>
      <trkpt lat="49.53719" lon="3.56213">
        <ele>70.68</ele>
        <time>2021-08-22T07:04:46.999Z</time>
      </trkpt>
      <trkpt lat="49.53719" lon="3.56211">
        <ele>70.54</ele>
        <time>2021-08-22T07:05:05.999Z</time>
      </trkpt>
      <trkpt lat="49.5372" lon="3.5621">
        <ele>70.42</ele>
        <time>2021-08-22T07:06:08.999Z</time>
      </trkpt>
      <trkpt lat="49.53722" lon="3.56209">
        <ele>70.31</ele>
        <time>2021-08-22T07:06:18.999Z</time>
      </trkpt>
      <trkpt lat="49.53721" lon="3.56211">
        <ele>83.23</ele>
        <time>2021-08-22T07:08:19.999Z</time>
      </trkpt>
      <trkpt lat="49.53721" lon="3.56212">
        <ele>89.09</ele>
        <time>2021-08-22T07:09:11.999Z</time>
      </trkpt>
      <trkpt lat="49.53721" lon="3.56214">
        <ele>88.9</ele>
        <time>2021-08-22T07:09:51.999Z</time>
      </trkpt>
      <trkpt lat="49.53721" lon="3.56218">
        <ele>90.26</ele>
        <time>2021-08-22T07:10:01.999Z</time>
      </trkpt>
      <trkpt lat="49.5372" lon="3.56218">
        <ele>89.94</ele>
        <time>2021-08-22T07:10:14.999Z</time>
      </trkpt>
      <trkpt lat="49.53719" lon="3.56218">
        <ele>89.22</ele>
        <time>2021-08-22T07:10:40.999Z</time>
      </trkpt>
      <trkpt lat="49.53718" lon="3.56219">
        <ele>90.24</ele>
        <time>2021-08-22T07:10:50.999Z</time>
      </trkpt>
      <trkpt lat="49.53717" lon="3.56215">
        <ele>89.92</ele>
        <time>2021-08-22T07:11:00.999Z</time>
      </trkpt>
      <trkpt lat="49.53718" lon="3.56213">
        <ele>90.88</ele>
        <time>2021-08-22T07:11:10.999Z</time>
      </trkpt>
      <trkpt lat="49.53719" lon="3.5622">
        <ele>92.61</ele>
        <time>2021-08-22T07:11:20.999Z</time>
      </trkpt>
      <trkpt lat="49.5372" lon="3.56221">
        <ele>90.46</ele>
        <time>2021-08-22T07:11:30.999Z</time>
      </trkpt>
      <trkpt lat="49.53718" lon="3.56219">
        <ele>93.59</ele>
        <time>2021-08-22T07:11:40.999Z</time>
      </trkpt>
      <trkpt lat="49.53718" lon="3.56217">
        <ele>91.98</ele>
        <time>2021-08-22T07:11:54.999Z</time>
      </trkpt>
      <trkpt lat="49.53721" lon="3.56214">
        <ele>83.64</ele>
        <time>2021-08-22T07:14:25.999Z</time>
      </trkpt>
      <trkpt lat="49.53723" lon="3.56211">
        <ele>82.83</ele>
        <time>2021-08-22T07:14:35.999Z</time>
      </trkpt>
      <trkpt lat="49.53724" lon="3.56213">
        <ele>81.89</ele>
        <time>2021-08-22T07:14:53.999Z</time>
      </trkpt>
      <trkpt lat="49.53723" lon="3.56212">
        <ele>82.43</ele>
        <time>2021-08-22T07:15:10.778Z</time>
      </trkpt>
      <trkpt lat="49.53718" lon="3.56207">
        <ele>82.94</ele>
        <time>2021-08-22T07:15:19.999Z</time>
      </trkpt>
      <trkpt lat="49.53716" lon="3.56209">
        <ele>81.62</ele>
        <time>2021-08-22T07:15:29.999Z</time>
      </trkpt>
      <trkpt lat="49.53713" lon="3.56208">
        <ele>71.87</ele>
        <time>2021-08-22T07:15:39.999Z</time>
      </trkpt>
      <trkpt lat="49.53714" lon="3.56207">
        <ele>71.72</ele>
        <time>2021-08-22T07:15:49.999Z</time>
      </trkpt>
      <trkpt lat="49.53716" lon="3.56208">
        <ele>71.27</ele>
        <time>2021-08-22T07:16:23.999Z</time>
      </trkpt>
      <trkpt lat="49.5372" lon="3.56209">
        <ele>71.21</ele>
        <time>2021-08-22T07:16:33.999Z</time>
      </trkpt>
      <trkpt lat="49.53719" lon="3.56207">
        <ele>70.96</ele>
        <time>2021-08-22T07:16:52.999Z</time>
      </trkpt>
      <trkpt lat="49.53718" lon="3.56205">
        <ele>70.85</ele>
        <time>2021-08-22T07:17:02.999Z</time>
      </trkpt>
      <trkpt lat="49.53717" lon="3.56205">
        <ele>86.01</ele>
        <time>2021-08-22T07:18:29.999Z</time>
      </trkpt>
      <trkpt lat="49.53716" lon="3.56206">
        <ele>84.68</ele>
        <time>2021-08-22T07:18:39.999Z</time>
      </trkpt>
      <trkpt lat="49.53717" lon="3.56209">
        <ele>84.36</ele>
        <time>2021-08-22T07:18:49.999Z</time>
      </trkpt>
      <trkpt lat="49.53717" lon="3.56207">
        <ele>85.44</ele>
        <time>2021-08-22T07:19:00.277Z</time>
      </trkpt>
      <trkpt lat="49.53702" lon="3.56214">
        <ele>87.56</ele>
        <time>2021-08-22T07:19:09.999Z</time>
      </trkpt>
      <trkpt lat="49.53708" lon="3.56212">
        <ele>87.15</ele>
        <time>2021-08-22T07:19:19.400Z</time>
      </trkpt>
      <trkpt lat="49.53719" lon="3.56219">
        <ele>85.96</ele>
        <time>2021-08-22T07:19:28.999Z</time>
      </trkpt>
      <trkpt lat="49.5372" lon="3.56211">
        <ele>85.85</ele>
        <time>2021-08-22T07:19:38.999Z</time>
      </trkpt>
      <trkpt lat="49.53719" lon="3.5621">
        <ele>85.49</ele>
        <time>2021-08-22T07:19:48.999Z</time>
      </trkpt>
      <trkpt lat="49.53718" lon="3.56208">
        <ele>85.87</ele>
        <time>2021-08-22T07:20:15.999Z</time>
      </trkpt>
      <trkpt lat="49.53716" lon="3.56208">
        <ele>86.31</ele>
        <time>2021-08-22T07:20:25.999Z</time>
      </trkpt>
      <trkpt lat="49.53716" lon="3.56211">
        <ele>84.46</ele>
        <time>2021-08-22T07:20:35.999Z</time>
      </trkpt>
      <trkpt lat="49.53714" lon="3.56205">
        <ele>84.69</ele>
        <time>2021-08-22T07:20:45.317Z</time>
      </trkpt>
      <trkpt lat="49.53716" lon="3.56204">
        <ele>82.87</ele>
        <time>2021-08-22T07:20:54.999Z</time>
      </trkpt>
      <trkpt lat="49.53717" lon="3.56207">
        <ele>82.88</ele>
        <time>2021-08-22T07:21:04.999Z</time>
      </trkpt>
      <trkpt lat="49.53716" lon="3.56214">
        <ele>83.02</ele>
        <time>2021-08-22T07:21:15.999Z</time>
      </trkpt>
      <trkpt lat="49.53714" lon="3.56214">
        <ele>84.9</ele>
        <time>2021-08-22T07:21:25.999Z</time>
      </trkpt>
      <trkpt lat="49.53714" lon="3.56212">
        <ele>82.67</ele>
        <time>2021-08-22T07:21:42.999Z</time>
      </trkpt>
      <trkpt lat="49.53713" lon="3.56213">
        <ele>84.21</ele>
        <time>2021-08-22T07:21:56.977Z</time>
      </trkpt>
      <trkpt lat="49.5371" lon="3.5621">
        <ele>83.46</ele>
        <time>2021-08-22T07:22:05.999Z</time>
      </trkpt>
      <trkpt lat="49.53711" lon="3.56211">
        <ele>83.51</ele>
        <time>2021-08-22T07:22:21.999Z</time>
      </trkpt>
      <trkpt lat="49.53718" lon="3.56209">
        <ele>84.25</ele>
        <time>2021-08-22T07:22:31.999Z</time>
      </trkpt>
      <trkpt lat="49.53719" lon="3.56203">
        <ele>84.18</ele>
        <time>2021-08-22T07:22:41.339Z</time>
      </trkpt>
      <trkpt lat="49.5371" lon="3.56197">
        <ele>85.49</ele>
        <time>2021-08-22T07:22:51.298Z</time>
      </trkpt>
      <trkpt lat="49.53711" lon="3.56189">
        <ele>86.48</ele>
        <time>2021-08-22T07:23:00.999Z</time>
      </trkpt>
      <trkpt lat="49.53724" lon="3.5618">
        <ele>86.58</ele>
        <time>2021-08-22T07:23:10.999Z</time>
      </trkpt>
      <trkpt lat="49.53724" lon="3.5616">
        <ele>88.54</ele>
        <time>2021-08-22T07:23:20.999Z</time>
      </trkpt>
      <trkpt lat="49.53726" lon="3.56142">
        <ele>89.95</ele>
        <time>2021-08-22T07:23:30.137Z</time>
      </trkpt>
      <trkpt lat="49.53728" lon="3.56125">
        <ele>71.67</ele>
        <time>2021-08-22T07:23:39.999Z</time>
      </trkpt>
      <trkpt lat="49.53724" lon="3.56103">
        <ele>71.57</ele>
        <time>2021-08-22T07:23:49.364Z</time>
      </trkpt>
      <trkpt lat="49.53714" lon="3.56099">
        <ele>71.44</ele>
        <time>2021-08-22T07:23:59.217Z</time>
      </trkpt>
      <trkpt lat="49.53702" lon="3.56103">
        <ele>71.33</ele>
        <time>2021-08-22T07:24:08.999Z</time>
      </trkpt>
      <trkpt lat="49.53689" lon="3.56104">
        <ele>71.46</ele>
        <time>2021-08-22T07:24:18.999Z</time>
      </trkpt>
      <trkpt lat="49.53678" lon="3.56101">
        <ele>72.55</ele>
        <time>2021-08-22T07:24:28.157Z</time>
      </trkpt>
      <trkpt lat="49.53668" lon="3.56099">
        <ele>72.65</ele>
        <time>2021-08-22T07:24:37.999Z</time>
      </trkpt>
      <trkpt lat="49.53663" lon="3.56094">
        <ele>72.65</ele>
        <time>2021-08-22T07:24:47.758Z</time>
      </trkpt>
      <trkpt lat="49.53657" lon="3.56099">
        <ele>72.71</ele>
        <time>2021-08-22T07:24:57.140Z</time>
      </trkpt>
      <trkpt lat="49.53646" lon="3.561">
        <ele>72.71</ele>
        <time>2021-08-22T07:25:06.999Z</time>
      </trkpt>
      <trkpt lat="49.53645" lon="3.56107">
        <ele>73.84</ele>
        <time>2021-08-22T07:25:16.999Z</time>
      </trkpt>
      <trkpt lat="49.53646" lon="3.56109">
        <ele>73.91</ele>
        <time>2021-08-22T07:25:27.999Z</time>
      </trkpt>
      <trkpt lat="49.53646" lon="3.56105">
        <ele>73.94</ele>
        <time>2021-08-22T07:25:37.999Z</time>
      </trkpt>
      <trkpt lat="49.53646" lon="3.56103">
        <ele>74.16</ele>
        <time>2021-08-22T07:25:47.999Z</time>
      </trkpt>
      <trkpt lat="49.53645" lon="3.56103">
        <ele>74.18</ele>
        <time>2021-08-22T07:27:25.999Z</time>
      </trkpt>
      <trkpt lat="49.53643" lon="3.561">
        <ele>74.17</ele>
        <time>2021-08-22T07:27:35.999Z</time>
      </trkpt>
      <trkpt lat="49.53643" lon="3.56098">
        <ele>74.31</ele>
        <time>2021-08-22T07:27:46.999Z</time>
      </trkpt>
      <trkpt lat="49.53641" lon="3.56098">
        <ele>74.37</ele>
        <time>2021-08-22T07:27:56.999Z</time>
      </trkpt>
      <trkpt lat="49.53641" lon="3.56097">
        <ele>74.26</ele>
        <time>2021-08-22T07:28:11.999Z</time>
      </trkpt>
      <trkpt lat="49.5364" lon="3.56096">
        <ele>74.18</ele>
        <time>2021-08-22T07:28:22.999Z</time>
      </trkpt>
      <trkpt lat="49.53639" lon="3.56096">
        <ele>74.61</ele>
        <time>2021-08-22T07:28:41.999Z</time>
      </trkpt>
      <trkpt lat="49.53638" lon="3.56098">
        <ele>74.73</ele>
        <time>2021-08-22T07:28:51.999Z</time>
      </trkpt>
      <trkpt lat="49.53638" lon="3.56099">
        <ele>74.56</ele>
        <time>2021-08-22T07:29:01.999Z</time>
      </trkpt>
      <trkpt lat="49.53638" lon="3.56101">
        <ele>74.44</ele>
        <time>2021-08-22T07:29:11.999Z</time>
      </trkpt>
      <trkpt lat="49.5364" lon="3.56101">
        <ele>74.57</ele>
        <time>2021-08-22T07:29:47.999Z</time>
      </trkpt>
      <trkpt lat="49.5364" lon="3.561">
        <ele>74.51</ele>
        <time>2021-08-22T07:30:07.999Z</time>
      </trkpt>
      <trkpt lat="49.53642" lon="3.561">
        <ele>74.46</ele>
        <time>2021-08-22T07:30:17.999Z</time>
      </trkpt>
      <trkpt lat="49.53643" lon="3.561">
        <ele>74.43</ele>
        <time>2021-08-22T07:30:28.999Z</time>
      </trkpt>
      <trkpt lat="49.53643" lon="3.56099">
        <ele>73.96</ele>
        <time>2021-08-22T07:31:01.999Z</time>
      </trkpt>
      <trkpt lat="49.53644" lon="3.56099">
        <ele>74.25</ele>
        <time>2021-08-22T07:31:22.999Z</time>
      </trkpt>
      <trkpt lat="49.53642" lon="3.56097">
        <ele>74.26</ele>
        <time>2021-08-22T07:31:32.999Z</time>
      </trkpt>
      <trkpt lat="49.53641" lon="3.56098">
        <ele>74.23</ele>
        <time>2021-08-22T07:32:34.999Z</time>
      </trkpt>
      <trkpt lat="49.5364" lon="3.56098">
        <ele>74.27</ele>
        <time>2021-08-22T07:32:44.999Z</time>
      </trkpt>
      <trkpt lat="49.5364" lon="3.56099">
        <ele>74.34</ele>
        <time>2021-08-22T07:32:57.999Z</time>
      </trkpt>
      <trkpt lat="49.5364" lon="3.56101">
        <ele>74.5</ele>
        <time>2021-08-22T07:33:07.999Z</time>
      </trkpt>
      <trkpt lat="49.53641" lon="3.56103">
        <ele>74.55</ele>
        <time>2021-08-22T07:33:17.999Z</time>
      </trkpt>
      <trkpt lat="49.53641" lon="3.56101">
        <ele>74.46</ele>
        <time>2021-08-22T07:33:27.999Z</time>
      </trkpt>
      <trkpt lat="49.53642" lon="3.56103">
        <ele>89.11</ele>
        <time>2021-08-22T07:33:57.999Z</time>
      </trkpt>
      <trkpt lat="49.53643" lon="3.56101">
        <ele>87.7</ele>
        <time>2021-08-22T07:34:11.999Z</time>
      </trkpt>
      <trkpt lat="49.53651" lon="3.5609">
        <ele>73.89</ele>
        <time>2021-08-22T07:34:21.999Z</time>
      </trkpt>
      <trkpt lat="49.53672" lon="3.56088">
        <ele>74.01</ele>
        <time>2021-08-22T07:34:31.319Z</time>
      </trkpt>
      <trkpt lat="49.53688" lon="3.56091">
        <ele>74.03</ele>
        <time>2021-08-22T07:34:41.178Z</time>
      </trkpt>
      <trkpt lat="49.53704" lon="3.56095">
        <ele>73.9</ele>
        <time>2021-08-22T07:34:50.999Z</time>
      </trkpt>
      <trkpt lat="49.53722" lon="3.561">
        <ele>73.71</ele>
        <time>2021-08-22T07:35:01.056Z</time>
      </trkpt>
      <trkpt lat="49.53728" lon="3.56117">
        <ele>73.71</ele>
        <time>2021-08-22T07:35:10.999Z</time>
      </trkpt>
      <trkpt lat="49.53726" lon="3.5614">
        <ele>73.75</ele>
        <time>2021-08-22T07:35:20.462Z</time>
      </trkpt>
      <trkpt lat="49.53726" lon="3.56161">
        <ele>73.64</ele>
        <time>2021-08-22T07:35:29.756Z</time>
      </trkpt>
      <trkpt lat="49.53727" lon="3.56185">
        <ele>73.54</ele>
        <time>2021-08-22T07:35:39.096Z</time>
      </trkpt>
      <trkpt lat="49.53723" lon="3.56204">
        <ele>84.78</ele>
        <time>2021-08-22T07:35:48.999Z</time>
      </trkpt>
      <trkpt lat="49.53712" lon="3.56216">
        <ele>84.1</ele>
        <time>2021-08-22T07:35:58.999Z</time>
      </trkpt>
      <trkpt lat="49.53712" lon="3.56207">
        <ele>83.88</ele>
        <time>2021-08-22T07:36:08.999Z</time>
      </trkpt>
      <trkpt lat="49.53713" lon="3.56206">
        <ele>84.01</ele>
        <time>2021-08-22T07:36:18.999Z</time>
      </trkpt>
      <trkpt lat="49.5372" lon="3.56206">
        <ele>81.84</ele>
        <time>2021-08-22T07:36:28.136Z</time>
      </trkpt>
      <trkpt lat="49.53723" lon="3.56216">
        <ele>81.87</ele>
        <time>2021-08-22T07:36:37.436Z</time>
      </trkpt>
      <trkpt lat="49.53728" lon="3.56218">
        <ele>81.86</ele>
        <time>2021-08-22T07:36:47.316Z</time>
      </trkpt>
      <trkpt lat="49.53725" lon="3.56226">
        <ele>82.28</ele>
        <time>2021-08-22T07:36:56.999Z</time>
      </trkpt>
      <trkpt lat="49.53725" lon="3.56223">
        <ele>81.63</ele>
        <time>2021-08-22T07:37:06.999Z</time>
      </trkpt>
      <trkpt lat="49.53723" lon="3.56225">
        <ele>72.34</ele>
        <time>2021-08-22T07:37:16.999Z</time>
      </trkpt>
      <trkpt lat="49.53724" lon="3.56225">
        <ele>72.14</ele>
        <time>2021-08-22T07:37:26.179Z</time>
      </trkpt>
      <trkpt lat="49.53723" lon="3.56223">
        <ele>72.05</ele>
        <time>2021-08-22T07:37:35.999Z</time>
      </trkpt>
      <trkpt lat="49.53722" lon="3.56224">
        <ele>71.89</ele>
        <time>2021-08-22T07:37:59.999Z</time>
      </trkpt>
      <trkpt lat="49.53721" lon="3.56225">
        <ele>80.51</ele>
        <time>2021-08-22T07:38:10.999Z</time>
      </trkpt>
      <trkpt lat="49.53722" lon="3.56224">
        <ele>80.8</ele>
        <time>2021-08-22T07:38:20.999Z</time>
      </trkpt>
      <trkpt lat="49.53723" lon="3.56222">
        <ele>80.73</ele>
        <time>2021-08-22T07:38:30.999Z</time>
      </trkpt>
      <trkpt lat="49.53724" lon="3.56225">
        <ele>82.92</ele>
        <time>2021-08-22T07:38:40.999Z</time>
      </trkpt>
      <trkpt lat="49.53724" lon="3.56227">
        <ele>81.81</ele>
        <time>2021-08-22T07:38:50.999Z</time>
      </trkpt>
      <trkpt lat="49.53725" lon="3.56223">
        <ele>81.92</ele>
        <time>2021-08-22T07:39:00.999Z</time>
      </trkpt>
      <trkpt lat="49.53724" lon="3.56226">
        <ele>81.39</ele>
        <time>2021-08-22T07:39:10.999Z</time>
      </trkpt>
      <trkpt lat="49.53724" lon="3.56227">
        <ele>81.61</ele>
        <time>2021-08-22T07:39:28.999Z</time>
      </trkpt>
      <trkpt lat="49.53723" lon="3.56229">
        <ele>81.21</ele>
        <time>2021-08-22T07:39:42.999Z</time>
      </trkpt>
      <trkpt lat="49.53724" lon="3.56229">
        <ele>81.95</ele>
        <time>2021-08-22T07:39:55.999Z</time>
      </trkpt>
      <trkpt lat="49.53725" lon="3.56228">
        <ele>81.42</ele>
        <time>2021-08-22T07:40:06.999Z</time>
      </trkpt>
      <trkpt lat="49.53725" lon="3.56226">
        <ele>72.19</ele>
        <time>2021-08-22T07:40:23.999Z</time>
      </trkpt>
      <trkpt lat="49.53724" lon="3.56205">
        <ele>72.08</ele>
        <time>2021-08-22T07:40:33.999Z</time>
      </trkpt>
      <trkpt lat="49.53724" lon="3.56194">
        <ele>71.99</ele>
        <time>2021-08-22T07:40:43.999Z</time>
      </trkpt>
      <trkpt lat="49.53727" lon="3.56183">
        <ele>72.02</ele>
        <time>2021-08-22T07:40:53.999Z</time>
      </trkpt>
      <trkpt lat="49.53725" lon="3.56163">
        <ele>72.05</ele>
        <time>2021-08-22T07:41:03.999Z</time>
      </trkpt>
      <trkpt lat="49.53725" lon="3.56145">
        <ele>72.27</ele>
        <time>2021-08-22T07:41:13.999Z</time>
      </trkpt>
      <trkpt lat="49.53725" lon="3.56122">
        <ele>72.22</ele>
        <time>2021-08-22T07:41:23.197Z</time>
      </trkpt>
      <trkpt lat="49.53729" lon="3.5611">
        <ele>72.2</ele>
        <time>2021-08-22T07:41:32.999Z</time>
      </trkpt>
      <trkpt lat="49.5371" lon="3.56104">
        <ele>72.31</ele>
        <time>2021-08-22T07:41:42.096Z</time>
      </trkpt>
      <trkpt lat="49.53684" lon="3.56093">
        <ele>72.44</ele>
        <time>2021-08-22T07:41:51.417Z</time>
      </trkpt>
      <trkpt lat="49.53677" lon="3.56081">
        <ele>72.63</ele>
        <time>2021-08-22T07:42:01.999Z</time>
      </trkpt>
      <trkpt lat="49.53681" lon="3.56085">
        <ele>72.21</ele>
        <time>2021-08-22T07:42:12.999Z</time>
      </trkpt>
      <trkpt lat="49.5368" lon="3.56086">
        <ele>72</ele>
        <time>2021-08-22T07:42:23.999Z</time>
      </trkpt>
      <trkpt lat="49.53678" lon="3.56092">
        <ele>71.73</ele>
        <time>2021-08-22T07:42:33.999Z</time>
      </trkpt>
      <trkpt lat="49.53674" lon="3.56092">
        <ele>71.84</ele>
        <time>2021-08-22T07:42:43.999Z</time>
      </trkpt>
      <trkpt lat="49.53671" lon="3.5609">
        <ele>71.86</ele>
        <time>2021-08-22T07:42:53.881Z</time>
      </trkpt>
      <trkpt lat="49.53669" lon="3.56089">
        <ele>73.62</ele>
        <time>2021-08-22T07:43:03.237Z</time>
      </trkpt>
      <trkpt lat="49.53668" lon="3.56091">
        <ele>73.62</ele>
        <time>2021-08-22T07:43:12.999Z</time>
      </trkpt>
      <trkpt lat="49.53667" lon="3.5609">
        <ele>74.17</ele>
        <time>2021-08-22T07:43:39.999Z</time>
      </trkpt>
      <trkpt lat="49.53667" lon="3.56089">
        <ele>74.26</ele>
        <time>2021-08-22T07:43:49.999Z</time>
      </trkpt>
      <trkpt lat="49.53666" lon="3.56088">
        <ele>74.21</ele>
        <time>2021-08-22T07:44:10.999Z</time>
      </trkpt>
      <trkpt lat="49.53664" lon="3.56088">
        <ele>74.03</ele>
        <time>2021-08-22T07:44:21.999Z</time>
      </trkpt>
      <trkpt lat="49.53664" lon="3.56086">
        <ele>74.26</ele>
        <time>2021-08-22T07:44:32.999Z</time>
      </trkpt>
      <trkpt lat="49.53665" lon="3.56085">
        <ele>74.07</ele>
        <time>2021-08-22T07:44:42.999Z</time>
      </trkpt>
      <trkpt lat="49.53663" lon="3.56086">
        <ele>74.08</ele>
        <time>2021-08-22T07:44:52.999Z</time>
      </trkpt>
      <trkpt lat="49.53659" lon="3.56081">
        <ele>73.99</ele>
        <time>2021-08-22T07:45:02.176Z</time>
      </trkpt>
      <trkpt lat="49.53657" lon="3.5606">
        <ele>74.06</ele>
        <time>2021-08-22T07:45:11.999Z</time>
      </trkpt>
      <trkpt lat="49.53656" lon="3.56036">
        <ele>74.05</ele>
        <time>2021-08-22T07:45:21.359Z</time>
      </trkpt>
      <trkpt lat="49.53655" lon="3.56019">
        <ele>74.03</ele>
        <time>2021-08-22T07:45:30.591Z</time>
      </trkpt>
      <trkpt lat="49.53651" lon="3.56003">
        <ele>74.2</ele>
        <time>2021-08-22T07:45:39.916Z</time>
      </trkpt>
      <trkpt lat="49.53638" lon="3.56006">
        <ele>81.69</ele>
        <time>2021-08-22T07:45:49.999Z</time>
      </trkpt>
      <trkpt lat="49.53625" lon="3.56007">
        <ele>81.38</ele>
        <time>2021-08-22T07:46:00.196Z</time>
      </trkpt>
      <trkpt lat="49.53613" lon="3.5601">
        <ele>82.24</ele>
        <time>2021-08-22T07:46:09.999Z</time>
      </trkpt>
      <trkpt lat="49.53599" lon="3.5601">
        <ele>81.13</ele>
        <time>2021-08-22T07:46:19.796Z</time>
      </trkpt>
      <trkpt lat="49.53588" lon="3.56005">
        <ele>80.99</ele>
        <time>2021-08-22T07:46:28.999Z</time>
      </trkpt>
      <trkpt lat="49.53576" lon="3.55999">
        <ele>81.43</ele>
        <time>2021-08-22T07:46:38.017Z</time>
      </trkpt>
      <trkpt lat="49.53567" lon="3.55991">
        <ele>81.61</ele>
        <time>2021-08-22T07:46:47.428Z</time>
      </trkpt>
      <trkpt lat="49.53562" lon="3.56002">
        <ele>82.29</ele>
        <time>2021-08-22T07:46:56.713Z</time>
      </trkpt>
      <trkpt lat="49.53557" lon="3.56016">
        <ele>82.09</ele>
        <time>2021-08-22T07:47:05.818Z</time>
      </trkpt>
      <trkpt lat="49.5355" lon="3.56033">
        <ele>81.68</ele>
        <time>2021-08-22T07:47:14.999Z</time>
      </trkpt>
      <trkpt lat="49.53542" lon="3.56052">
        <ele>81.67</ele>
        <time>2021-08-22T07:47:25.197Z</time>
      </trkpt>
      <trkpt lat="49.53536" lon="3.56066">
        <ele>81.52</ele>
        <time>2021-08-22T07:47:35.358Z</time>
      </trkpt>
      <trkpt lat="49.53529" lon="3.56082">
        <ele>81.71</ele>
        <time>2021-08-22T07:47:44.976Z</time>
      </trkpt>
      <trkpt lat="49.53521" lon="3.56096">
        <ele>73.16</ele>
        <time>2021-08-22T07:47:54.376Z</time>
      </trkpt>
      <trkpt lat="49.53515" lon="3.56112">
        <ele>73.15</ele>
        <time>2021-08-22T07:48:03.400Z</time>
      </trkpt>
      <trkpt lat="49.53509" lon="3.56129">
        <ele>73.13</ele>
        <time>2021-08-22T07:48:12.424Z</time>
      </trkpt>
      <trkpt lat="49.53501" lon="3.56146">
        <ele>73.08</ele>
        <time>2021-08-22T07:48:22.999Z</time>
      </trkpt>
      <trkpt lat="49.53497" lon="3.56162">
        <ele>73.22</ele>
        <time>2021-08-22T07:48:33.198Z</time>
      </trkpt>
      <trkpt lat="49.53491" lon="3.56175">
        <ele>73.35</ele>
        <time>2021-08-22T07:48:43.156Z</time>
      </trkpt>
      <trkpt lat="49.53486" lon="3.56189">
        <ele>73.34</ele>
        <time>2021-08-22T07:48:52.376Z</time>
      </trkpt>
      <trkpt lat="49.53486" lon="3.56203">
        <ele>73.3</ele>
        <time>2021-08-22T07:49:02.076Z</time>
      </trkpt>
      <trkpt lat="49.53488" lon="3.56221">
        <ele>73.32</ele>
        <time>2021-08-22T07:49:11.999Z</time>
      </trkpt>
      <trkpt lat="49.53486" lon="3.56239">
        <ele>73.23</ele>
        <time>2021-08-22T07:49:21.256Z</time>
      </trkpt>
      <trkpt lat="49.53488" lon="3.56259">
        <ele>73.05</ele>
        <time>2021-08-22T07:49:30.976Z</time>
      </trkpt>
      <trkpt lat="49.5349" lon="3.56276">
        <ele>72.68</ele>
        <time>2021-08-22T07:49:40.437Z</time>
      </trkpt>
      <trkpt lat="49.53492" lon="3.56294">
        <ele>72.56</ele>
        <time>2021-08-22T07:49:50.177Z</time>
      </trkpt>
      <trkpt lat="49.53492" lon="3.56316">
        <ele>72.59</ele>
        <time>2021-08-22T07:49:59.999Z</time>
      </trkpt>
      <trkpt lat="49.53493" lon="3.56337">
        <ele>72.54</ele>
        <time>2021-08-22T07:50:09.056Z</time>
      </trkpt>
      <trkpt lat="49.53492" lon="3.56357">
        <ele>72.58</ele>
        <time>2021-08-22T07:50:18.937Z</time>
      </trkpt>
      <trkpt lat="49.53492" lon="3.56379">
        <ele>72.52</ele>
        <time>2021-08-22T07:50:28.317Z</time>
      </trkpt>
      <trkpt lat="49.53491" lon="3.564">
        <ele>80.2</ele>
        <time>2021-08-22T07:50:37.716Z</time>
      </trkpt>
      <trkpt lat="49.5349" lon="3.56423">
        <ele>80.31</ele>
        <time>2021-08-22T07:50:47.999Z</time>
      </trkpt>
      <trkpt lat="49.53488" lon="3.56446">
        <ele>80.69</ele>
        <time>2021-08-22T07:50:57.999Z</time>
      </trkpt>
      <trkpt lat="49.53488" lon="3.56468">
        <ele>81.81</ele>
        <time>2021-08-22T07:51:07.999Z</time>
      </trkpt>
      <trkpt lat="49.53482" lon="3.56489">
        <ele>82.48</ele>
        <time>2021-08-22T07:51:17.377Z</time>
      </trkpt>
      <trkpt lat="49.53477" lon="3.56511">
        <ele>80.64</ele>
        <time>2021-08-22T07:51:27.258Z</time>
      </trkpt>
      <trkpt lat="49.53473" lon="3.56533">
        <ele>80.96</ele>
        <time>2021-08-22T07:51:36.656Z</time>
      </trkpt>
      <trkpt lat="49.53468" lon="3.56552">
        <ele>81.62</ele>
        <time>2021-08-22T07:51:45.719Z</time>
      </trkpt>
      <trkpt lat="49.53463" lon="3.56571">
        <ele>81.87</ele>
        <time>2021-08-22T07:51:55.316Z</time>
      </trkpt>
      <trkpt lat="49.53458" lon="3.56593">
        <ele>83.19</ele>
        <time>2021-08-22T07:52:05.277Z</time>
      </trkpt>
      <trkpt lat="49.53454" lon="3.56615">
        <ele>83.35</ele>
        <time>2021-08-22T07:52:15.156Z</time>
      </trkpt>
      <trkpt lat="49.53451" lon="3.56636">
        <ele>83.84</ele>
        <time>2021-08-22T07:52:25.016Z</time>
      </trkpt>
      <trkpt lat="49.53447" lon="3.56655">
        <ele>84.77</ele>
        <time>2021-08-22T07:52:34.316Z</time>
      </trkpt>
      <trkpt lat="49.53443" lon="3.56674">
        <ele>84.61</ele>
        <time>2021-08-22T07:52:43.676Z</time>
      </trkpt>
      <trkpt lat="49.53436" lon="3.56693">
        <ele>84.58</ele>
        <time>2021-08-22T07:52:53.056Z</time>
      </trkpt>
      <trkpt lat="49.53432" lon="3.5672">
        <ele>85.56</ele>
        <time>2021-08-22T07:53:02.156Z</time>
      </trkpt>
      <trkpt lat="49.53427" lon="3.56745">
        <ele>84.77</ele>
        <time>2021-08-22T07:53:12.999Z</time>
      </trkpt>
      <trkpt lat="49.53422" lon="3.5675">
        <ele>85.45</ele>
        <time>2021-08-22T07:53:22.076Z</time>
      </trkpt>
      <trkpt lat="49.53421" lon="3.5677">
        <ele>86.59</ele>
        <time>2021-08-22T07:53:32.316Z</time>
      </trkpt>
      <trkpt lat="49.53419" lon="3.56795">
        <ele>86.89</ele>
        <time>2021-08-22T07:53:42.177Z</time>
      </trkpt>
      <trkpt lat="49.53412" lon="3.56812">
        <ele>85.84</ele>
        <time>2021-08-22T07:53:51.999Z</time>
      </trkpt>
      <trkpt lat="49.53406" lon="3.56825">
        <ele>86.55</ele>
        <time>2021-08-22T07:54:01.256Z</time>
      </trkpt>
      <trkpt lat="49.53397" lon="3.56843">
        <ele>85.37</ele>
        <time>2021-08-22T07:54:10.816Z</time>
      </trkpt>
      <trkpt lat="49.53392" lon="3.56859">
        <ele>85.34</ele>
        <time>2021-08-22T07:54:19.999Z</time>
      </trkpt>
      <trkpt lat="49.53387" lon="3.56881">
        <ele>85.2</ele>
        <time>2021-08-22T07:54:29.097Z</time>
      </trkpt>
      <trkpt lat="49.5338" lon="3.56899">
        <ele>85.74</ele>
        <time>2021-08-22T07:54:38.438Z</time>
      </trkpt>
      <trkpt lat="49.53374" lon="3.56918">
        <ele>86.55</ele>
        <time>2021-08-22T07:54:48.136Z</time>
      </trkpt>
      <trkpt lat="49.53366" lon="3.56939">
        <ele>85.18</ele>
        <time>2021-08-22T07:54:58.076Z</time>
      </trkpt>
      <trkpt lat="49.53357" lon="3.56968">
        <ele>84.21</ele>
        <time>2021-08-22T07:55:08.357Z</time>
      </trkpt>
      <trkpt lat="49.53351" lon="3.56984">
        <ele>84.27</ele>
        <time>2021-08-22T07:55:18.077Z</time>
      </trkpt>
      <trkpt lat="49.53345" lon="3.57">
        <ele>83.46</ele>
        <time>2021-08-22T07:55:28.036Z</time>
      </trkpt>
      <trkpt lat="49.53338" lon="3.57018">
        <ele>81.27</ele>
        <time>2021-08-22T07:55:37.936Z</time>
      </trkpt>
      <trkpt lat="49.53334" lon="3.57036">
        <ele>81.04</ele>
        <time>2021-08-22T07:55:47.441Z</time>
      </trkpt>
      <trkpt lat="49.53327" lon="3.57055">
        <ele>79.04</ele>
        <time>2021-08-22T07:55:56.999Z</time>
      </trkpt>
      <trkpt lat="49.5332" lon="3.57076">
        <ele>78.58</ele>
        <time>2021-08-22T07:56:06.759Z</time>
      </trkpt>
      <trkpt lat="49.53315" lon="3.57094">
        <ele>78.22</ele>
        <time>2021-08-22T07:56:15.999Z</time>
      </trkpt>
      <trkpt lat="49.53306" lon="3.57121">
        <ele>78.73</ele>
        <time>2021-08-22T07:56:26.116Z</time>
      </trkpt>
      <trkpt lat="49.53299" lon="3.5714">
        <ele>79.14</ele>
        <time>2021-08-22T07:56:35.257Z</time>
      </trkpt>
      <trkpt lat="49.53295" lon="3.57158">
        <ele>79.02</ele>
        <time>2021-08-22T07:56:44.359Z</time>
      </trkpt>
      <trkpt lat="49.53292" lon="3.57177">
        <ele>80.82</ele>
        <time>2021-08-22T07:56:53.999Z</time>
      </trkpt>
      <trkpt lat="49.53285" lon="3.57199">
        <ele>80.56</ele>
        <time>2021-08-22T07:57:03.683Z</time>
      </trkpt>
      <trkpt lat="49.53279" lon="3.57217">
        <ele>79.69</ele>
        <time>2021-08-22T07:57:13.999Z</time>
      </trkpt>
      <trkpt lat="49.53275" lon="3.57236">
        <ele>80.84</ele>
        <time>2021-08-22T07:57:23.058Z</time>
      </trkpt>
      <trkpt lat="49.53261" lon="3.57249">
        <ele>79.46</ele>
        <time>2021-08-22T07:57:33.999Z</time>
      </trkpt>
      <trkpt lat="49.53247" lon="3.57251">
        <ele>78.1</ele>
        <time>2021-08-22T07:57:43.999Z</time>
      </trkpt>
      <trkpt lat="49.53234" lon="3.57249">
        <ele>77.08</ele>
        <time>2021-08-22T07:57:53.197Z</time>
      </trkpt>
      <trkpt lat="49.53218" lon="3.57248">
        <ele>78.58</ele>
        <time>2021-08-22T07:58:02.358Z</time>
      </trkpt>
      <trkpt lat="49.53212" lon="3.57241">
        <ele>79.15</ele>
        <time>2021-08-22T07:58:11.999Z</time>
      </trkpt>
      <trkpt lat="49.53215" lon="3.5724">
        <ele>79.53</ele>
        <time>2021-08-22T07:58:21.999Z</time>
      </trkpt>
      <trkpt lat="49.53216" lon="3.57239">
        <ele>79.89</ele>
        <time>2021-08-22T07:58:31.999Z</time>
      </trkpt>
      <trkpt lat="49.53214" lon="3.57245">
        <ele>81.11</ele>
        <time>2021-08-22T07:58:41.999Z</time>
      </trkpt>
      <trkpt lat="49.53215" lon="3.57244">
        <ele>80.08</ele>
        <time>2021-08-22T07:58:51.999Z</time>
      </trkpt>
      <trkpt lat="49.53214" lon="3.57243">
        <ele>81.04</ele>
        <time>2021-08-22T07:59:05.238Z</time>
      </trkpt>
      <trkpt lat="49.53208" lon="3.57248">
        <ele>80.85</ele>
        <time>2021-08-22T07:59:14.999Z</time>
      </trkpt>
      <trkpt lat="49.53197" lon="3.57236">
        <ele>79.7</ele>
        <time>2021-08-22T07:59:24.237Z</time>
      </trkpt>
      <trkpt lat="49.53183" lon="3.57229">
        <ele>79.85</ele>
        <time>2021-08-22T07:59:33.559Z</time>
      </trkpt>
      <trkpt lat="49.53168" lon="3.57219">
        <ele>80.8</ele>
        <time>2021-08-22T07:59:43.078Z</time>
      </trkpt>
      <trkpt lat="49.53158" lon="3.57194">
        <ele>81.13</ele>
        <time>2021-08-22T07:59:52.999Z</time>
      </trkpt>
      <trkpt lat="49.53151" lon="3.57191">
        <ele>81.22</ele>
        <time>2021-08-22T08:00:02.776Z</time>
      </trkpt>
      <trkpt lat="49.53155" lon="3.57203">
        <ele>83.24</ele>
        <time>2021-08-22T08:00:11.999Z</time>
      </trkpt>
      <trkpt lat="49.53162" lon="3.57212">
        <ele>83.55</ele>
        <time>2021-08-22T08:00:21.196Z</time>
      </trkpt>
      <trkpt lat="49.53152" lon="3.57229">
        <ele>82.76</ele>
        <time>2021-08-22T08:00:30.840Z</time>
      </trkpt>
      <trkpt lat="49.5314" lon="3.57235">
        <ele>81.73</ele>
        <time>2021-08-22T08:00:40.059Z</time>
      </trkpt>
      <trkpt lat="49.53128" lon="3.57244">
        <ele>82.56</ele>
        <time>2021-08-22T08:00:50.397Z</time>
      </trkpt>
      <trkpt lat="49.53117" lon="3.57258">
        <ele>79.38</ele>
        <time>2021-08-22T08:01:00.999Z</time>
      </trkpt>
      <trkpt lat="49.53104" lon="3.57265">
        <ele>75.14</ele>
        <time>2021-08-22T08:01:10.777Z</time>
      </trkpt>
      <trkpt lat="49.53089" lon="3.57276">
        <ele>72.18</ele>
        <time>2021-08-22T08:01:20.999Z</time>
      </trkpt>
      <trkpt lat="49.53079" lon="3.57289">
        <ele>69.73</ele>
        <time>2021-08-22T08:01:30.999Z</time>
      </trkpt>
      <trkpt lat="49.5307" lon="3.57292">
        <ele>68.09</ele>
        <time>2021-08-22T08:01:40.036Z</time>
      </trkpt>
      <trkpt lat="49.5306" lon="3.57309">
        <ele>66.54</ele>
        <time>2021-08-22T08:01:49.356Z</time>
      </trkpt>
      <trkpt lat="49.53047" lon="3.57328">
        <ele>68.2</ele>
        <time>2021-08-22T08:01:59.116Z</time>
      </trkpt>
      <trkpt lat="49.53034" lon="3.57348">
        <ele>69.34</ele>
        <time>2021-08-22T08:02:08.136Z</time>
      </trkpt>
      <trkpt lat="49.5302" lon="3.57367">
        <ele>70.95</ele>
        <time>2021-08-22T08:02:18.256Z</time>
      </trkpt>
      <trkpt lat="49.53006" lon="3.57384">
        <ele>71.72</ele>
        <time>2021-08-22T08:02:27.636Z</time>
      </trkpt>
      <trkpt lat="49.52993" lon="3.57399">
        <ele>73.03</ele>
        <time>2021-08-22T08:02:36.956Z</time>
      </trkpt>
      <trkpt lat="49.52983" lon="3.5741">
        <ele>73.93</ele>
        <time>2021-08-22T08:02:46.276Z</time>
      </trkpt>
      <trkpt lat="49.52974" lon="3.57412">
        <ele>73.71</ele>
        <time>2021-08-22T08:02:56.076Z</time>
      </trkpt>
      <trkpt lat="49.52961" lon="3.57417">
        <ele>72.24</ele>
        <time>2021-08-22T08:03:06.316Z</time>
      </trkpt>
      <trkpt lat="49.52948" lon="3.57428">
        <ele>74.21</ele>
        <time>2021-08-22T08:03:15.376Z</time>
      </trkpt>
      <trkpt lat="49.52934" lon="3.57437">
        <ele>73.59</ele>
        <time>2021-08-22T08:03:25.056Z</time>
      </trkpt>
      <trkpt lat="49.52919" lon="3.57452">
        <ele>72.07</ele>
        <time>2021-08-22T08:03:34.596Z</time>
      </trkpt>
      <trkpt lat="49.52906" lon="3.57463">
        <ele>71.53</ele>
        <time>2021-08-22T08:03:44.017Z</time>
      </trkpt>
      <trkpt lat="49.52896" lon="3.57474">
        <ele>71.98</ele>
        <time>2021-08-22T08:03:54.156Z</time>
      </trkpt>
      <trkpt lat="49.52881" lon="3.57478">
        <ele>73.31</ele>
        <time>2021-08-22T08:04:03.417Z</time>
      </trkpt>
      <trkpt lat="49.52867" lon="3.57482">
        <ele>74.05</ele>
        <time>2021-08-22T08:04:12.999Z</time>
      </trkpt>
      <trkpt lat="49.52852" lon="3.57491">
        <ele>76.57</ele>
        <time>2021-08-22T08:04:23.382Z</time>
      </trkpt>
      <trkpt lat="49.52839" lon="3.57484">
        <ele>77.13</ele>
        <time>2021-08-22T08:04:32.877Z</time>
      </trkpt>
      <trkpt lat="49.52827" lon="3.5748">
        <ele>77.22</ele>
        <time>2021-08-22T08:04:41.999Z</time>
      </trkpt>
      <trkpt lat="49.52813" lon="3.57488">
        <ele>77.72</ele>
        <time>2021-08-22T08:04:51.896Z</time>
      </trkpt>
      <trkpt lat="49.52801" lon="3.575">
        <ele>78.45</ele>
        <time>2021-08-22T08:05:01.197Z</time>
      </trkpt>
      <trkpt lat="49.52787" lon="3.57509">
        <ele>77.87</ele>
        <time>2021-08-22T08:05:10.739Z</time>
      </trkpt>
      <trkpt lat="49.52778" lon="3.57516">
        <ele>76.68</ele>
        <time>2021-08-22T08:05:20.096Z</time>
      </trkpt>
      <trkpt lat="49.52767" lon="3.57518">
        <ele>74.69</ele>
        <time>2021-08-22T08:05:29.597Z</time>
      </trkpt>
      <trkpt lat="49.52754" lon="3.57527">
        <ele>73.49</ele>
        <time>2021-08-22T08:05:39.096Z</time>
      </trkpt>
      <trkpt lat="49.52741" lon="3.5754">
        <ele>71.56</ele>
        <time>2021-08-22T08:05:48.957Z</time>
      </trkpt>
      <trkpt lat="49.5273" lon="3.57552">
        <ele>69.14</ele>
        <time>2021-08-22T08:05:58.440Z</time>
      </trkpt>
      <trkpt lat="49.52721" lon="3.57567">
        <ele>67.67</ele>
        <time>2021-08-22T08:06:07.658Z</time>
      </trkpt>
      <trkpt lat="49.52712" lon="3.57581">
        <ele>67.61</ele>
        <time>2021-08-22T08:06:17.298Z</time>
      </trkpt>
      <trkpt lat="49.52705" lon="3.57598">
        <ele>67.64</ele>
        <time>2021-08-22T08:06:26.957Z</time>
      </trkpt>
      <trkpt lat="49.52697" lon="3.57614">
        <ele>67.68</ele>
        <time>2021-08-22T08:06:36.198Z</time>
      </trkpt>
      <trkpt lat="49.52688" lon="3.57629">
        <ele>67.64</ele>
        <time>2021-08-22T08:06:45.336Z</time>
      </trkpt>
      <trkpt lat="49.52675" lon="3.5765">
        <ele>67.53</ele>
        <time>2021-08-22T08:06:54.717Z</time>
      </trkpt>
      <trkpt lat="49.52664" lon="3.57667">
        <ele>67.47</ele>
        <time>2021-08-22T08:07:04.139Z</time>
      </trkpt>
      <trkpt lat="49.52649" lon="3.57669">
        <ele>70.56</ele>
        <time>2021-08-22T08:07:13.377Z</time>
      </trkpt>
      <trkpt lat="49.52636" lon="3.57679">
        <ele>70.92</ele>
        <time>2021-08-22T08:07:23.177Z</time>
      </trkpt>
      <trkpt lat="49.52621" lon="3.57681">
        <ele>72.65</ele>
        <time>2021-08-22T08:07:33.056Z</time>
      </trkpt>
      <trkpt lat="49.52608" lon="3.57682">
        <ele>73.2</ele>
        <time>2021-08-22T08:07:42.999Z</time>
      </trkpt>
      <trkpt lat="49.52595" lon="3.5768">
        <ele>72.81</ele>
        <time>2021-08-22T08:07:52.236Z</time>
      </trkpt>
      <trkpt lat="49.5258" lon="3.57672">
        <ele>71.27</ele>
        <time>2021-08-22T08:08:01.276Z</time>
      </trkpt>
      <trkpt lat="49.52567" lon="3.57666">
        <ele>70.48</ele>
        <time>2021-08-22T08:08:10.999Z</time>
      </trkpt>
      <trkpt lat="49.52553" lon="3.57656">
        <ele>70.53</ele>
        <time>2021-08-22T08:08:21.078Z</time>
      </trkpt>
      <trkpt lat="49.52539" lon="3.5765">
        <ele>68.88</ele>
        <time>2021-08-22T08:08:31.242Z</time>
      </trkpt>
      <trkpt lat="49.52526" lon="3.57645">
        <ele>67.87</ele>
        <time>2021-08-22T08:08:40.999Z</time>
      </trkpt>
      <trkpt lat="49.52511" lon="3.57641">
        <ele>67.68</ele>
        <time>2021-08-22T08:08:51.097Z</time>
      </trkpt>
      <trkpt lat="49.52497" lon="3.57638">
        <ele>66.92</ele>
        <time>2021-08-22T08:09:00.218Z</time>
      </trkpt>
      <trkpt lat="49.52482" lon="3.57635">
        <ele>65.6</ele>
        <time>2021-08-22T08:09:10.036Z</time>
      </trkpt>
      <trkpt lat="49.52468" lon="3.57636">
        <ele>64.99</ele>
        <time>2021-08-22T08:09:19.418Z</time>
      </trkpt>
      <trkpt lat="49.52457" lon="3.57633">
        <ele>65.87</ele>
        <time>2021-08-22T08:09:28.999Z</time>
      </trkpt>
      <trkpt lat="49.52447" lon="3.57619">
        <ele>65.2</ele>
        <time>2021-08-22T08:09:38.160Z</time>
      </trkpt>
      <trkpt lat="49.52437" lon="3.57607">
        <ele>67.48</ele>
        <time>2021-08-22T08:09:47.877Z</time>
      </trkpt>
      <trkpt lat="49.52427" lon="3.57603">
        <ele>67.92</ele>
        <time>2021-08-22T08:09:56.999Z</time>
      </trkpt>
      <trkpt lat="49.52415" lon="3.57594">
        <ele>69.66</ele>
        <time>2021-08-22T08:10:06.776Z</time>
      </trkpt>
      <trkpt lat="49.52405" lon="3.57582">
        <ele>67.91</ele>
        <time>2021-08-22T08:10:15.877Z</time>
      </trkpt>
      <trkpt lat="49.52394" lon="3.57572">
        <ele>70.31</ele>
        <time>2021-08-22T08:10:24.999Z</time>
      </trkpt>
      <trkpt lat="49.52382" lon="3.57554">
        <ele>72.32</ele>
        <time>2021-08-22T08:10:35.416Z</time>
      </trkpt>
      <trkpt lat="49.52377" lon="3.57535">
        <ele>73.06</ele>
        <time>2021-08-22T08:10:44.999Z</time>
      </trkpt>
      <trkpt lat="49.5237" lon="3.57518">
        <ele>74.41</ele>
        <time>2021-08-22T08:10:54.017Z</time>
      </trkpt>
      <trkpt lat="49.5236" lon="3.57505">
        <ele>74.05</ele>
        <time>2021-08-22T08:11:03.337Z</time>
      </trkpt>
      <trkpt lat="49.52352" lon="3.5749">
        <ele>77.04</ele>
        <time>2021-08-22T08:11:12.357Z</time>
      </trkpt>
      <trkpt lat="49.52341" lon="3.57473">
        <ele>74.98</ele>
        <time>2021-08-22T08:11:21.917Z</time>
      </trkpt>
      <trkpt lat="49.52335" lon="3.57455">
        <ele>76.37</ele>
        <time>2021-08-22T08:11:31.056Z</time>
      </trkpt>
      <trkpt lat="49.52328" lon="3.57453">
        <ele>77.72</ele>
        <time>2021-08-22T08:11:40.157Z</time>
      </trkpt>
      <trkpt lat="49.5232" lon="3.57464">
        <ele>76.37</ele>
        <time>2021-08-22T08:11:49.680Z</time>
      </trkpt>
      <trkpt lat="49.5231" lon="3.5748">
        <ele>76.69</ele>
        <time>2021-08-22T08:11:59.279Z</time>
      </trkpt>
      <trkpt lat="49.52303" lon="3.57497">
        <ele>76.36</ele>
        <time>2021-08-22T08:12:09.016Z</time>
      </trkpt>
      <trkpt lat="49.52292" lon="3.57516">
        <ele>77.18</ele>
        <time>2021-08-22T08:12:18.260Z</time>
      </trkpt>
      <trkpt lat="49.52281" lon="3.57532">
        <ele>77.47</ele>
        <time>2021-08-22T08:12:27.999Z</time>
      </trkpt>
      <trkpt lat="49.52271" lon="3.57549">
        <ele>76.51</ele>
        <time>2021-08-22T08:12:37.137Z</time>
      </trkpt>
      <trkpt lat="49.5226" lon="3.57564">
        <ele>77.48</ele>
        <time>2021-08-22T08:12:47.096Z</time>
      </trkpt>
      <trkpt lat="49.52251" lon="3.57578">
        <ele>63.16</ele>
        <time>2021-08-22T08:12:57.056Z</time>
      </trkpt>
      <trkpt lat="49.52241" lon="3.57593">
        <ele>62.18</ele>
        <time>2021-08-22T08:13:07.016Z</time>
      </trkpt>
      <trkpt lat="49.52231" lon="3.5761">
        <ele>62.08</ele>
        <time>2021-08-22T08:13:17.196Z</time>
      </trkpt>
      <trkpt lat="49.52221" lon="3.57626">
        <ele>62.23</ele>
        <time>2021-08-22T08:13:26.997Z</time>
      </trkpt>
      <trkpt lat="49.52213" lon="3.57642">
        <ele>62.26</ele>
        <time>2021-08-22T08:13:36.999Z</time>
      </trkpt>
      <trkpt lat="49.52202" lon="3.57659">
        <ele>62.33</ele>
        <time>2021-08-22T08:13:46.398Z</time>
      </trkpt>
      <trkpt lat="49.52192" lon="3.57675">
        <ele>62.32</ele>
        <time>2021-08-22T08:13:55.417Z</time>
      </trkpt>
      <trkpt lat="49.52182" lon="3.57693">
        <ele>77.47</ele>
        <time>2021-08-22T08:14:05.058Z</time>
      </trkpt>
      <trkpt lat="49.52174" lon="3.57706">
        <ele>78.96</ele>
        <time>2021-08-22T08:14:14.076Z</time>
      </trkpt>
      <trkpt lat="49.52165" lon="3.5772">
        <ele>62.74</ele>
        <time>2021-08-22T08:14:23.999Z</time>
      </trkpt>
      <trkpt lat="49.52155" lon="3.57736">
        <ele>62.8</ele>
        <time>2021-08-22T08:14:33.843Z</time>
      </trkpt>
      <trkpt lat="49.52144" lon="3.57751">
        <ele>62.77</ele>
        <time>2021-08-22T08:14:43.303Z</time>
      </trkpt>
      <trkpt lat="49.52134" lon="3.57764">
        <ele>62.67</ele>
        <time>2021-08-22T08:14:52.999Z</time>
      </trkpt>
      <trkpt lat="49.52125" lon="3.57781">
        <ele>62.6</ele>
        <time>2021-08-22T08:15:02.149Z</time>
      </trkpt>
      <trkpt lat="49.52111" lon="3.57787">
        <ele>62.66</ele>
        <time>2021-08-22T08:15:11.342Z</time>
      </trkpt>
      <trkpt lat="49.52095" lon="3.57778">
        <ele>76.59</ele>
        <time>2021-08-22T08:15:21.103Z</time>
      </trkpt>
      <trkpt lat="49.52086" lon="3.57787">
        <ele>77.93</ele>
        <time>2021-08-22T08:15:30.999Z</time>
      </trkpt>
      <trkpt lat="49.52079" lon="3.57801">
        <ele>63.3</ele>
        <time>2021-08-22T08:15:40.083Z</time>
      </trkpt>
      <trkpt lat="49.52071" lon="3.5781">
        <ele>63.31</ele>
        <time>2021-08-22T08:15:49.999Z</time>
      </trkpt>
      <trkpt lat="49.5207" lon="3.5781">
        <ele>63.26</ele>
        <time>2021-08-22T08:15:59.644Z</time>
      </trkpt>
      <trkpt lat="49.52066" lon="3.57809">
        <ele>63.9</ele>
        <time>2021-08-22T08:16:08.999Z</time>
      </trkpt>
      <trkpt lat="49.52067" lon="3.57808">
        <ele>64.1</ele>
        <time>2021-08-22T08:16:18.999Z</time>
      </trkpt>
      <trkpt lat="49.52068" lon="3.57808">
        <ele>63.98</ele>
        <time>2021-08-22T08:16:28.999Z</time>
      </trkpt>
      <trkpt lat="49.52066" lon="3.57805">
        <ele>64.25</ele>
        <time>2021-08-22T08:16:38.143Z</time>
      </trkpt>
      <trkpt lat="49.52061" lon="3.57824">
        <ele>64.11</ele>
        <time>2021-08-22T08:16:48.023Z</time>
      </trkpt>
      <trkpt lat="49.52052" lon="3.57841">
        <ele>64.24</ele>
        <time>2021-08-22T08:16:57.604Z</time>
      </trkpt>
      <trkpt lat="49.52046" lon="3.57855">
        <ele>64.33</ele>
        <time>2021-08-22T08:17:06.999Z</time>
      </trkpt>
      <trkpt lat="49.52041" lon="3.57869">
        <ele>64.18</ele>
        <time>2021-08-22T08:17:16.999Z</time>
      </trkpt>
      <trkpt lat="49.52031" lon="3.57887">
        <ele>64.19</ele>
        <time>2021-08-22T08:17:26.042Z</time>
      </trkpt>
      <trkpt lat="49.52023" lon="3.57906">
        <ele>64.1</ele>
        <time>2021-08-22T08:17:35.043Z</time>
      </trkpt>
      <trkpt lat="49.52022" lon="3.57925">
        <ele>64.05</ele>
        <time>2021-08-22T08:17:44.942Z</time>
      </trkpt>
      <trkpt lat="49.52031" lon="3.57939">
        <ele>64.42</ele>
        <time>2021-08-22T08:17:54.882Z</time>
      </trkpt>
      <trkpt lat="49.52035" lon="3.57953">
        <ele>64.51</ele>
        <time>2021-08-22T08:18:03.983Z</time>
      </trkpt>
      <trkpt lat="49.52031" lon="3.57978">
        <ele>64.5</ele>
        <time>2021-08-22T08:18:13.999Z</time>
      </trkpt>
      <trkpt lat="49.52026" lon="3.57995">
        <ele>64.49</ele>
        <time>2021-08-22T08:18:23.782Z</time>
      </trkpt>
      <trkpt lat="49.52028" lon="3.58013">
        <ele>66.39</ele>
        <time>2021-08-22T08:18:32.943Z</time>
      </trkpt>
      <trkpt lat="49.52031" lon="3.58034">
        <ele>66.49</ele>
        <time>2021-08-22T08:18:42.462Z</time>
      </trkpt>
      <trkpt lat="49.52032" lon="3.58056">
        <ele>66.41</ele>
        <time>2021-08-22T08:18:52.999Z</time>
      </trkpt>
      <trkpt lat="49.52029" lon="3.58073">
        <ele>66.31</ele>
        <time>2021-08-22T08:19:02.999Z</time>
      </trkpt>
      <trkpt lat="49.52026" lon="3.58079">
        <ele>66.9</ele>
        <time>2021-08-22T08:19:12.622Z</time>
      </trkpt>
      <trkpt lat="49.52015" lon="3.58091">
        <ele>67.16</ele>
        <time>2021-08-22T08:19:21.903Z</time>
      </trkpt>
      <trkpt lat="49.52001" lon="3.58109">
        <ele>67.15</ele>
        <time>2021-08-22T08:19:31.743Z</time>
      </trkpt>
      <trkpt lat="49.51991" lon="3.58125">
        <ele>66.93</ele>
        <time>2021-08-22T08:19:41.999Z</time>
      </trkpt>
      <trkpt lat="49.51981" lon="3.58141">
        <ele>66.48</ele>
        <time>2021-08-22T08:19:51.681Z</time>
      </trkpt>
      <trkpt lat="49.51972" lon="3.58153">
        <ele>66.44</ele>
        <time>2021-08-22T08:20:00.999Z</time>
      </trkpt>
      <trkpt lat="49.51962" lon="3.58166">
        <ele>66.48</ele>
        <time>2021-08-22T08:20:10.999Z</time>
      </trkpt>
      <trkpt lat="49.51964" lon="3.58183">
        <ele>66.47</ele>
        <time>2021-08-22T08:20:20.004Z</time>
      </trkpt>
      <trkpt lat="49.51977" lon="3.58195">
        <ele>66.37</ele>
        <time>2021-08-22T08:20:29.923Z</time>
      </trkpt>
      <trkpt lat="49.51992" lon="3.58205">
        <ele>66.47</ele>
        <time>2021-08-22T08:20:39.643Z</time>
      </trkpt>
      <trkpt lat="49.52004" lon="3.58213">
        <ele>66.36</ele>
        <time>2021-08-22T08:20:48.665Z</time>
      </trkpt>
      <trkpt lat="49.52015" lon="3.58223">
        <ele>66.37</ele>
        <time>2021-08-22T08:20:58.565Z</time>
      </trkpt>
      <trkpt lat="49.52024" lon="3.58233">
        <ele>66.43</ele>
        <time>2021-08-22T08:21:07.999Z</time>
      </trkpt>
      <trkpt lat="49.52036" lon="3.58244">
        <ele>78.76</ele>
        <time>2021-08-22T08:21:17.603Z</time>
      </trkpt>
      <trkpt lat="49.52043" lon="3.58262">
        <ele>77.81</ele>
        <time>2021-08-22T08:21:27.003Z</time>
      </trkpt>
      <trkpt lat="49.52047" lon="3.58287">
        <ele>66.31</ele>
        <time>2021-08-22T08:21:36.545Z</time>
      </trkpt>
      <trkpt lat="49.52056" lon="3.58316">
        <ele>66.26</ele>
        <time>2021-08-22T08:21:45.832Z</time>
      </trkpt>
      <trkpt lat="49.5206" lon="3.5833">
        <ele>66.23</ele>
        <time>2021-08-22T08:21:54.983Z</time>
      </trkpt>
      <trkpt lat="49.52065" lon="3.5835">
        <ele>66.18</ele>
        <time>2021-08-22T08:22:04.503Z</time>
      </trkpt>
      <trkpt lat="49.52067" lon="3.58367">
        <ele>66.19</ele>
        <time>2021-08-22T08:22:13.999Z</time>
      </trkpt>
      <trkpt lat="49.52066" lon="3.58366">
        <ele>66.18</ele>
        <time>2021-08-22T08:22:23.999Z</time>
      </trkpt>
      <trkpt lat="49.52065" lon="3.58366">
        <ele>65.29</ele>
        <time>2021-08-22T08:22:33.805Z</time>
      </trkpt>
      <trkpt lat="49.52058" lon="3.58378">
        <ele>64.99</ele>
        <time>2021-08-22T08:22:43.999Z</time>
      </trkpt>
      <trkpt lat="49.52056" lon="3.58397">
        <ele>64.89</ele>
        <time>2021-08-22T08:22:53.999Z</time>
      </trkpt>
      <trkpt lat="49.52052" lon="3.58416">
        <ele>64.98</ele>
        <time>2021-08-22T08:23:03.103Z</time>
      </trkpt>
      <trkpt lat="49.52049" lon="3.58436">
        <ele>64.99</ele>
        <time>2021-08-22T08:23:12.923Z</time>
      </trkpt>
      <trkpt lat="49.52046" lon="3.58456">
        <ele>64.92</ele>
        <time>2021-08-22T08:23:22.742Z</time>
      </trkpt>
      <trkpt lat="49.52048" lon="3.58472">
        <ele>64.83</ele>
        <time>2021-08-22T08:23:31.999Z</time>
      </trkpt>
      <trkpt lat="49.52054" lon="3.58492">
        <ele>64.97</ele>
        <time>2021-08-22T08:23:42.082Z</time>
      </trkpt>
      <trkpt lat="49.52063" lon="3.58508">
        <ele>65.02</ele>
        <time>2021-08-22T08:23:52.062Z</time>
      </trkpt>
      <trkpt lat="49.52072" lon="3.58519">
        <ele>64.88</ele>
        <time>2021-08-22T08:24:01.461Z</time>
      </trkpt>
      <trkpt lat="49.52079" lon="3.58533">
        <ele>65.01</ele>
        <time>2021-08-22T08:24:11.265Z</time>
      </trkpt>
      <trkpt lat="49.52086" lon="3.58548">
        <ele>73.9</ele>
        <time>2021-08-22T08:24:20.999Z</time>
      </trkpt>
      <trkpt lat="49.52089" lon="3.58571">
        <ele>77.05</ele>
        <time>2021-08-22T08:24:30.022Z</time>
      </trkpt>
      <trkpt lat="49.52088" lon="3.58595">
        <ele>77.66</ele>
        <time>2021-08-22T08:24:39.283Z</time>
      </trkpt>
      <trkpt lat="49.52081" lon="3.58614">
        <ele>77.17</ele>
        <time>2021-08-22T08:24:48.623Z</time>
      </trkpt>
      <trkpt lat="49.52073" lon="3.58631">
        <ele>78.76</ele>
        <time>2021-08-22T08:24:58.999Z</time>
      </trkpt>
      <trkpt lat="49.52064" lon="3.5865">
        <ele>78.45</ele>
        <time>2021-08-22T08:25:08.863Z</time>
      </trkpt>
      <trkpt lat="49.5206" lon="3.58666">
        <ele>77.6</ele>
        <time>2021-08-22T08:25:18.047Z</time>
      </trkpt>
      <trkpt lat="49.52054" lon="3.58686">
        <ele>78.95</ele>
        <time>2021-08-22T08:25:27.705Z</time>
      </trkpt>
      <trkpt lat="49.52047" lon="3.58705">
        <ele>78.69</ele>
        <time>2021-08-22T08:25:37.163Z</time>
      </trkpt>
      <trkpt lat="49.52044" lon="3.58723">
        <ele>79.08</ele>
        <time>2021-08-22T08:25:46.884Z</time>
      </trkpt>
      <trkpt lat="49.5204" lon="3.58744">
        <ele>79.61</ele>
        <time>2021-08-22T08:25:57.999Z</time>
      </trkpt>
      <trkpt lat="49.52038" lon="3.58765">
        <ele>81.04</ele>
        <time>2021-08-22T08:26:07.883Z</time>
      </trkpt>
      <trkpt lat="49.52038" lon="3.58782">
        <ele>80.89</ele>
        <time>2021-08-22T08:26:16.964Z</time>
      </trkpt>
      <trkpt lat="49.52035" lon="3.58803">
        <ele>80.99</ele>
        <time>2021-08-22T08:26:25.984Z</time>
      </trkpt>
      <trkpt lat="49.52032" lon="3.58826">
        <ele>79.87</ele>
        <time>2021-08-22T08:26:35.983Z</time>
      </trkpt>
      <trkpt lat="49.52028" lon="3.58845">
        <ele>79.93</ele>
        <time>2021-08-22T08:26:45.743Z</time>
      </trkpt>
      <trkpt lat="49.52026" lon="3.58864">
        <ele>80.62</ele>
        <time>2021-08-22T08:26:55.986Z</time>
      </trkpt>
      <trkpt lat="49.52024" lon="3.58882">
        <ele>82.16</ele>
        <time>2021-08-22T08:27:05.725Z</time>
      </trkpt>
      <trkpt lat="49.52016" lon="3.58891">
        <ele>82.87</ele>
        <time>2021-08-22T08:27:14.862Z</time>
      </trkpt>
      <trkpt lat="49.52007" lon="3.58903">
        <ele>82.79</ele>
        <time>2021-08-22T08:27:24.999Z</time>
      </trkpt>
      <trkpt lat="49.51998" lon="3.58914">
        <ele>84.05</ele>
        <time>2021-08-22T08:27:34.065Z</time>
      </trkpt>
      <trkpt lat="49.51987" lon="3.58926">
        <ele>82.46</ele>
        <time>2021-08-22T08:27:43.999Z</time>
      </trkpt>
      <trkpt lat="49.51973" lon="3.58936">
        <ele>82.23</ele>
        <time>2021-08-22T08:27:53.783Z</time>
      </trkpt>
      <trkpt lat="49.51959" lon="3.58941">
        <ele>80.72</ele>
        <time>2021-08-22T08:28:03.183Z</time>
      </trkpt>
      <trkpt lat="49.51947" lon="3.58942">
        <ele>81.45</ele>
        <time>2021-08-22T08:28:12.424Z</time>
      </trkpt>
      <trkpt lat="49.51934" lon="3.58942">
        <ele>80.48</ele>
        <time>2021-08-22T08:28:21.683Z</time>
      </trkpt>
      <trkpt lat="49.51921" lon="3.58944">
        <ele>79.75</ele>
        <time>2021-08-22T08:28:31.170Z</time>
      </trkpt>
      <trkpt lat="49.51908" lon="3.5895">
        <ele>79.31</ele>
        <time>2021-08-22T08:28:40.563Z</time>
      </trkpt>
      <trkpt lat="49.51894" lon="3.58957">
        <ele>77.19</ele>
        <time>2021-08-22T08:28:50.443Z</time>
      </trkpt>
      <trkpt lat="49.51883" lon="3.58962">
        <ele>78.98</ele>
        <time>2021-08-22T08:28:59.623Z</time>
      </trkpt>
      <trkpt lat="49.5187" lon="3.58969">
        <ele>78.61</ele>
        <time>2021-08-22T08:29:09.544Z</time>
      </trkpt>
      <trkpt lat="49.51861" lon="3.58973">
        <ele>78.57</ele>
        <time>2021-08-22T08:29:19.442Z</time>
      </trkpt>
      <trkpt lat="49.5185" lon="3.58977">
        <ele>79.94</ele>
        <time>2021-08-22T08:29:28.603Z</time>
      </trkpt>
      <trkpt lat="49.51838" lon="3.58982">
        <ele>79.57</ele>
        <time>2021-08-22T08:29:37.623Z</time>
      </trkpt>
      <trkpt lat="49.51826" lon="3.58988">
        <ele>78.42</ele>
        <time>2021-08-22T08:29:46.743Z</time>
      </trkpt>
      <trkpt lat="49.51814" lon="3.5899">
        <ele>78.63</ele>
        <time>2021-08-22T08:29:56.083Z</time>
      </trkpt>
      <trkpt lat="49.518" lon="3.58997">
        <ele>79.75</ele>
        <time>2021-08-22T08:30:05.682Z</time>
      </trkpt>
      <trkpt lat="49.51788" lon="3.59004">
        <ele>78.3</ele>
        <time>2021-08-22T08:30:15.865Z</time>
      </trkpt>
      <trkpt lat="49.51776" lon="3.5901">
        <ele>78.95</ele>
        <time>2021-08-22T08:30:24.944Z</time>
      </trkpt>
      <trkpt lat="49.51763" lon="3.59022">
        <ele>78.47</ele>
        <time>2021-08-22T08:30:34.823Z</time>
      </trkpt>
      <trkpt lat="49.51753" lon="3.59032">
        <ele>79.24</ele>
        <time>2021-08-22T08:30:43.999Z</time>
      </trkpt>
      <trkpt lat="49.51743" lon="3.59042">
        <ele>79.48</ele>
        <time>2021-08-22T08:30:53.485Z</time>
      </trkpt>
      <trkpt lat="49.51733" lon="3.5905">
        <ele>79.17</ele>
        <time>2021-08-22T08:31:02.563Z</time>
      </trkpt>
      <trkpt lat="49.51722" lon="3.59063">
        <ele>79.47</ele>
        <time>2021-08-22T08:31:12.044Z</time>
      </trkpt>
      <trkpt lat="49.51711" lon="3.59074">
        <ele>79.75</ele>
        <time>2021-08-22T08:31:21.343Z</time>
      </trkpt>
      <trkpt lat="49.51701" lon="3.59083">
        <ele>79.66</ele>
        <time>2021-08-22T08:31:30.363Z</time>
      </trkpt>
      <trkpt lat="49.51689" lon="3.59092">
        <ele>80.02</ele>
        <time>2021-08-22T08:31:39.842Z</time>
      </trkpt>
      <trkpt lat="49.51678" lon="3.59097">
        <ele>79.46</ele>
        <time>2021-08-22T08:31:49.263Z</time>
      </trkpt>
      <trkpt lat="49.51668" lon="3.59107">
        <ele>78.44</ele>
        <time>2021-08-22T08:31:58.999Z</time>
      </trkpt>
      <trkpt lat="49.51653" lon="3.59114">
        <ele>79.28</ele>
        <time>2021-08-22T08:32:08.863Z</time>
      </trkpt>
      <trkpt lat="49.51638" lon="3.59122">
        <ele>79.8</ele>
        <time>2021-08-22T08:32:18.783Z</time>
      </trkpt>
      <trkpt lat="49.51627" lon="3.59125">
        <ele>79.25</ele>
        <time>2021-08-22T08:32:27.823Z</time>
      </trkpt>
      <trkpt lat="49.51614" lon="3.59124">
        <ele>77.98</ele>
        <time>2021-08-22T08:32:37.063Z</time>
      </trkpt>
      <trkpt lat="49.516" lon="3.59125">
        <ele>75.51</ele>
        <time>2021-08-22T08:32:46.875Z</time>
      </trkpt>
      <trkpt lat="49.51586" lon="3.59118">
        <ele>76.8</ele>
        <time>2021-08-22T08:32:55.999Z</time>
      </trkpt>
      <trkpt lat="49.51573" lon="3.59122">
        <ele>74.82</ele>
        <time>2021-08-22T08:33:05.999Z</time>
      </trkpt>
      <trkpt lat="49.5156" lon="3.5912">
        <ele>75.79</ele>
        <time>2021-08-22T08:33:15.435Z</time>
      </trkpt>
      <trkpt lat="49.51551" lon="3.59127">
        <ele>74.27</ele>
        <time>2021-08-22T08:33:24.999Z</time>
      </trkpt>
      <trkpt lat="49.51546" lon="3.59129">
        <ele>75.4</ele>
        <time>2021-08-22T08:33:34.999Z</time>
      </trkpt>
      <trkpt lat="49.51545" lon="3.59128">
        <ele>75.41</ele>
        <time>2021-08-22T08:33:44.784Z</time>
      </trkpt>
      <trkpt lat="49.51529" lon="3.59138">
        <ele>76.16</ele>
        <time>2021-08-22T08:33:54.545Z</time>
      </trkpt>
      <trkpt lat="49.51517" lon="3.59141">
        <ele>77.12</ele>
        <time>2021-08-22T08:34:04.526Z</time>
      </trkpt>
      <trkpt lat="49.51505" lon="3.59143">
        <ele>78.52</ele>
        <time>2021-08-22T08:34:13.825Z</time>
      </trkpt>
      <trkpt lat="49.51494" lon="3.59144">
        <ele>78.19</ele>
        <time>2021-08-22T08:34:22.999Z</time>
      </trkpt>
      <trkpt lat="49.51482" lon="3.59147">
        <ele>79.3</ele>
        <time>2021-08-22T08:34:32.606Z</time>
      </trkpt>
      <trkpt lat="49.51474" lon="3.59157">
        <ele>81.04</ele>
        <time>2021-08-22T08:34:41.999Z</time>
      </trkpt>
      <trkpt lat="49.51467" lon="3.5917">
        <ele>83.47</ele>
        <time>2021-08-22T08:34:51.947Z</time>
      </trkpt>
      <trkpt lat="49.51456" lon="3.59185">
        <ele>85.66</ele>
        <time>2021-08-22T08:35:01.228Z</time>
      </trkpt>
      <trkpt lat="49.5144" lon="3.59211">
        <ele>82.69</ele>
        <time>2021-08-22T08:35:10.865Z</time>
      </trkpt>
      <trkpt lat="49.51429" lon="3.59228">
        <ele>83.39</ele>
        <time>2021-08-22T08:35:20.926Z</time>
      </trkpt>
      <trkpt lat="49.51421" lon="3.59227">
        <ele>85.8</ele>
        <time>2021-08-22T08:35:30.605Z</time>
      </trkpt>
      <trkpt lat="49.51413" lon="3.59225">
        <ele>83.77</ele>
        <time>2021-08-22T08:35:39.887Z</time>
      </trkpt>
      <trkpt lat="49.51397" lon="3.59231">
        <ele>84.3</ele>
        <time>2021-08-22T08:35:49.765Z</time>
      </trkpt>
      <trkpt lat="49.51382" lon="3.59236">
        <ele>86.06</ele>
        <time>2021-08-22T08:35:58.766Z</time>
      </trkpt>
      <trkpt lat="49.51369" lon="3.59237">
        <ele>84.54</ele>
        <time>2021-08-22T08:36:07.866Z</time>
      </trkpt>
      <trkpt lat="49.51355" lon="3.59238">
        <ele>84.14</ele>
        <time>2021-08-22T08:36:17.606Z</time>
      </trkpt>
      <trkpt lat="49.51344" lon="3.5924">
        <ele>83.59</ele>
        <time>2021-08-22T08:36:26.965Z</time>
      </trkpt>
      <trkpt lat="49.51331" lon="3.59259">
        <ele>83.93</ele>
        <time>2021-08-22T08:36:36.485Z</time>
      </trkpt>
      <trkpt lat="49.51322" lon="3.59274">
        <ele>86.11</ele>
        <time>2021-08-22T08:36:45.567Z</time>
      </trkpt>
      <trkpt lat="49.51312" lon="3.5929">
        <ele>86.22</ele>
        <time>2021-08-22T08:36:54.945Z</time>
      </trkpt>
      <trkpt lat="49.513" lon="3.59308">
        <ele>84.68</ele>
        <time>2021-08-22T08:37:04.005Z</time>
      </trkpt>
      <trkpt lat="49.5129" lon="3.59327">
        <ele>83.69</ele>
        <time>2021-08-22T08:37:13.645Z</time>
      </trkpt>
      <trkpt lat="49.51281" lon="3.59344">
        <ele>82.2</ele>
        <time>2021-08-22T08:37:22.805Z</time>
      </trkpt>
      <trkpt lat="49.51273" lon="3.59356">
        <ele>81.2</ele>
        <time>2021-08-22T08:37:31.825Z</time>
      </trkpt>
      <trkpt lat="49.51266" lon="3.59367">
        <ele>83.99</ele>
        <time>2021-08-22T08:37:40.885Z</time>
      </trkpt>
      <trkpt lat="49.51257" lon="3.59376">
        <ele>83.66</ele>
        <time>2021-08-22T08:37:50.786Z</time>
      </trkpt>
      <trkpt lat="49.51247" lon="3.59386">
        <ele>83.35</ele>
        <time>2021-08-22T08:38:00.586Z</time>
      </trkpt>
      <trkpt lat="49.51242" lon="3.59398">
        <ele>84.63</ele>
        <time>2021-08-22T08:38:09.999Z</time>
      </trkpt>
      <trkpt lat="49.51229" lon="3.59408">
        <ele>85.47</ele>
        <time>2021-08-22T08:38:19.999Z</time>
      </trkpt>
      <trkpt lat="49.5122" lon="3.59426">
        <ele>86.59</ele>
        <time>2021-08-22T08:38:29.027Z</time>
      </trkpt>
      <trkpt lat="49.5121" lon="3.59438">
        <ele>85.98</ele>
        <time>2021-08-22T08:38:38.666Z</time>
      </trkpt>
      <trkpt lat="49.51201" lon="3.59446">
        <ele>86.76</ele>
        <time>2021-08-22T08:38:47.965Z</time>
      </trkpt>
      <trkpt lat="49.51191" lon="3.59456">
        <ele>86.96</ele>
        <time>2021-08-22T08:38:57.306Z</time>
      </trkpt>
      <trkpt lat="49.51182" lon="3.59469">
        <ele>84.72</ele>
        <time>2021-08-22T08:39:06.567Z</time>
      </trkpt>
      <trkpt lat="49.51174" lon="3.5948">
        <ele>85.87</ele>
        <time>2021-08-22T08:39:15.806Z</time>
      </trkpt>
      <trkpt lat="49.51166" lon="3.59495">
        <ele>83.56</ele>
        <time>2021-08-22T08:39:25.999Z</time>
      </trkpt>
      <trkpt lat="49.51158" lon="3.59506">
        <ele>85.62</ele>
        <time>2021-08-22T08:39:35.999Z</time>
      </trkpt>
      <trkpt lat="49.51149" lon="3.59521">
        <ele>82.58</ele>
        <time>2021-08-22T08:39:45.999Z</time>
      </trkpt>
      <trkpt lat="49.51138" lon="3.59537">
        <ele>82.12</ele>
        <time>2021-08-22T08:39:55.999Z</time>
      </trkpt>
      <trkpt lat="49.51131" lon="3.59551">
        <ele>81.21</ele>
        <time>2021-08-22T08:40:05.999Z</time>
      </trkpt>
      <trkpt lat="49.51124" lon="3.59567">
        <ele>83.31</ele>
        <time>2021-08-22T08:40:15.999Z</time>
      </trkpt>
      <trkpt lat="49.51117" lon="3.5959">
        <ele>82.32</ele>
        <time>2021-08-22T08:40:25.999Z</time>
      </trkpt>
      <trkpt lat="49.5111" lon="3.59608">
        <ele>81.69</ele>
        <time>2021-08-22T08:40:35.999Z</time>
      </trkpt>
      <trkpt lat="49.51108" lon="3.59626">
        <ele>82.57</ele>
        <time>2021-08-22T08:40:45.999Z</time>
      </trkpt>
      <trkpt lat="49.5111" lon="3.59648">
        <ele>83.61</ele>
        <time>2021-08-22T08:40:55.999Z</time>
      </trkpt>
      <trkpt lat="49.51113" lon="3.59673">
        <ele>84.17</ele>
        <time>2021-08-22T08:41:05.999Z</time>
      </trkpt>
      <trkpt lat="49.51119" lon="3.59687">
        <ele>86.39</ele>
        <time>2021-08-22T08:41:15.999Z</time>
      </trkpt>
      <trkpt lat="49.51119" lon="3.59704">
        <ele>85.32</ele>
        <time>2021-08-22T08:41:25.999Z</time>
      </trkpt>
      <trkpt lat="49.51109" lon="3.5972">
        <ele>87.35</ele>
        <time>2021-08-22T08:41:35.999Z</time>
      </trkpt>
      <trkpt lat="49.51101" lon="3.59731">
        <ele>86.82</ele>
        <time>2021-08-22T08:41:45.999Z</time>
      </trkpt>
      <trkpt lat="49.51091" lon="3.59743">
        <ele>87.4</ele>
        <time>2021-08-22T08:41:55.999Z</time>
      </trkpt>
      <trkpt lat="49.51084" lon="3.59757">
        <ele>89.38</ele>
        <time>2021-08-22T08:42:05.245Z</time>
      </trkpt>
      <trkpt lat="49.51073" lon="3.59772">
        <ele>89.71</ele>
        <time>2021-08-22T08:42:14.999Z</time>
      </trkpt>
      <trkpt lat="49.51063" lon="3.59779">
        <ele>88.39</ele>
        <time>2021-08-22T08:42:24.171Z</time>
      </trkpt>
      <trkpt lat="49.51051" lon="3.59778">
        <ele>89.96</ele>
        <time>2021-08-22T08:42:33.266Z</time>
      </trkpt>
      <trkpt lat="49.5104" lon="3.59781">
        <ele>88.71</ele>
        <time>2021-08-22T08:42:42.866Z</time>
      </trkpt>
      <trkpt lat="49.51023" lon="3.59802">
        <ele>88.22</ele>
        <time>2021-08-22T08:42:52.825Z</time>
      </trkpt>
      <trkpt lat="49.51013" lon="3.59815">
        <ele>87.35</ele>
        <time>2021-08-22T08:43:02.845Z</time>
      </trkpt>
      <trkpt lat="49.51007" lon="3.59827">
        <ele>89.16</ele>
        <time>2021-08-22T08:43:12.126Z</time>
      </trkpt>
      <trkpt lat="49.51003" lon="3.59845">
        <ele>90.87</ele>
        <time>2021-08-22T08:43:21.566Z</time>
      </trkpt>
      <trkpt lat="49.50998" lon="3.59865">
        <ele>93.61</ele>
        <time>2021-08-22T08:43:30.965Z</time>
      </trkpt>
      <trkpt lat="49.50991" lon="3.59884">
        <ele>93.9</ele>
        <time>2021-08-22T08:43:40.665Z</time>
      </trkpt>
      <trkpt lat="49.50989" lon="3.59901">
        <ele>94.47</ele>
        <time>2021-08-22T08:43:49.785Z</time>
      </trkpt>
      <trkpt lat="49.50982" lon="3.59923">
        <ele>97.12</ele>
        <time>2021-08-22T08:43:59.925Z</time>
      </trkpt>
      <trkpt lat="49.50974" lon="3.59939">
        <ele>97.26</ele>
        <time>2021-08-22T08:44:09.886Z</time>
      </trkpt>
      <trkpt lat="49.50966" lon="3.59959">
        <ele>99.66</ele>
        <time>2021-08-22T08:44:19.726Z</time>
      </trkpt>
      <trkpt lat="49.50959" lon="3.59982">
        <ele>98.88</ele>
        <time>2021-08-22T08:44:29.465Z</time>
      </trkpt>
      <trkpt lat="49.50948" lon="3.59999">
        <ele>98.95</ele>
        <time>2021-08-22T08:44:38.501Z</time>
      </trkpt>
      <trkpt lat="49.50929" lon="3.60016">
        <ele>96.68</ele>
        <time>2021-08-22T08:44:47.920Z</time>
      </trkpt>
      <trkpt lat="49.50919" lon="3.60023">
        <ele>98</ele>
        <time>2021-08-22T08:44:57.020Z</time>
      </trkpt>
      <trkpt lat="49.50909" lon="3.60039">
        <ele>94.77</ele>
        <time>2021-08-22T08:45:06.241Z</time>
      </trkpt>
      <trkpt lat="49.50892" lon="3.60069">
        <ele>91.21</ele>
        <time>2021-08-22T08:45:15.460Z</time>
      </trkpt>
      <trkpt lat="49.50885" lon="3.60089">
        <ele>89.47</ele>
        <time>2021-08-22T08:45:24.880Z</time>
      </trkpt>
      <trkpt lat="49.50878" lon="3.60103">
        <ele>88.28</ele>
        <time>2021-08-22T08:45:33.999Z</time>
      </trkpt>
      <trkpt lat="49.50866" lon="3.60123">
        <ele>87.12</ele>
        <time>2021-08-22T08:45:43.761Z</time>
      </trkpt>
      <trkpt lat="49.50857" lon="3.60133">
        <ele>86.88</ele>
        <time>2021-08-22T08:45:52.860Z</time>
      </trkpt>
      <trkpt lat="49.50847" lon="3.60155">
        <ele>87.09</ele>
        <time>2021-08-22T08:46:02.580Z</time>
      </trkpt>
      <trkpt lat="49.50836" lon="3.60178">
        <ele>84.92</ele>
        <time>2021-08-22T08:46:12.620Z</time>
      </trkpt>
      <trkpt lat="49.50825" lon="3.60193">
        <ele>84.94</ele>
        <time>2021-08-22T08:46:22.061Z</time>
      </trkpt>
      <trkpt lat="49.50813" lon="3.6021">
        <ele>85.37</ele>
        <time>2021-08-22T08:46:32.999Z</time>
      </trkpt>
      <trkpt lat="49.50806" lon="3.6023">
        <ele>83.49</ele>
        <time>2021-08-22T08:46:42.999Z</time>
      </trkpt>
      <trkpt lat="49.50801" lon="3.60241">
        <ele>83.96</ele>
        <time>2021-08-22T08:46:52.400Z</time>
      </trkpt>
      <trkpt lat="49.50795" lon="3.60256">
        <ele>85.44</ele>
        <time>2021-08-22T08:47:01.620Z</time>
      </trkpt>
      <trkpt lat="49.50781" lon="3.60275">
        <ele>83.88</ele>
        <time>2021-08-22T08:47:10.999Z</time>
      </trkpt>
      <trkpt lat="49.50771" lon="3.60299">
        <ele>84.42</ele>
        <time>2021-08-22T08:47:20.640Z</time>
      </trkpt>
      <trkpt lat="49.50763" lon="3.60318">
        <ele>83.19</ele>
        <time>2021-08-22T08:47:30.001Z</time>
      </trkpt>
      <trkpt lat="49.50752" lon="3.60332">
        <ele>83.62</ele>
        <time>2021-08-22T08:47:39.521Z</time>
      </trkpt>
      <trkpt lat="49.50743" lon="3.6034">
        <ele>81.11</ele>
        <time>2021-08-22T08:47:49.999Z</time>
      </trkpt>
      <trkpt lat="49.50734" lon="3.60352">
        <ele>81.64</ele>
        <time>2021-08-22T08:47:59.482Z</time>
      </trkpt>
      <trkpt lat="49.50726" lon="3.60371">
        <ele>81.85</ele>
        <time>2021-08-22T08:48:08.724Z</time>
      </trkpt>
      <trkpt lat="49.50712" lon="3.60392">
        <ele>80.61</ele>
        <time>2021-08-22T08:48:18.701Z</time>
      </trkpt>
      <trkpt lat="49.50697" lon="3.60413">
        <ele>83.87</ele>
        <time>2021-08-22T08:48:28.001Z</time>
      </trkpt>
      <trkpt lat="49.5069" lon="3.60428">
        <ele>83.33</ele>
        <time>2021-08-22T08:48:37.741Z</time>
      </trkpt>
      <trkpt lat="49.50678" lon="3.60439">
        <ele>84.52</ele>
        <time>2021-08-22T08:48:47.879Z</time>
      </trkpt>
      <trkpt lat="49.50673" lon="3.60455">
        <ele>83.76</ele>
        <time>2021-08-22T08:48:56.999Z</time>
      </trkpt>
      <trkpt lat="49.50662" lon="3.60474">
        <ele>84.72</ele>
        <time>2021-08-22T08:49:06.961Z</time>
      </trkpt>
      <trkpt lat="49.50656" lon="3.60483">
        <ele>86.64</ele>
        <time>2021-08-22T08:49:16.321Z</time>
      </trkpt>
      <trkpt lat="49.50645" lon="3.60487">
        <ele>87.31</ele>
        <time>2021-08-22T08:49:25.999Z</time>
      </trkpt>
      <trkpt lat="49.50634" lon="3.60501">
        <ele>86.95</ele>
        <time>2021-08-22T08:49:35.067Z</time>
      </trkpt>
      <trkpt lat="49.50624" lon="3.60514">
        <ele>85.9</ele>
        <time>2021-08-22T08:49:44.999Z</time>
      </trkpt>
      <trkpt lat="49.50618" lon="3.60532">
        <ele>86.55</ele>
        <time>2021-08-22T08:49:54.064Z</time>
      </trkpt>
      <trkpt lat="49.50615" lon="3.6055">
        <ele>87.11</ele>
        <time>2021-08-22T08:50:03.641Z</time>
      </trkpt>
      <trkpt lat="49.50608" lon="3.60567">
        <ele>86.88</ele>
        <time>2021-08-22T08:50:12.781Z</time>
      </trkpt>
      <trkpt lat="49.50598" lon="3.60597">
        <ele>86.63</ele>
        <time>2021-08-22T08:50:22.901Z</time>
      </trkpt>
      <trkpt lat="49.50582" lon="3.60622">
        <ele>88.36</ele>
        <time>2021-08-22T08:50:32.820Z</time>
      </trkpt>
      <trkpt lat="49.50576" lon="3.60639">
        <ele>88.62</ele>
        <time>2021-08-22T08:50:42.721Z</time>
      </trkpt>
      <trkpt lat="49.50571" lon="3.60654">
        <ele>88.15</ele>
        <time>2021-08-22T08:50:51.941Z</time>
      </trkpt>
      <trkpt lat="49.50565" lon="3.60672">
        <ele>87.7</ele>
        <time>2021-08-22T08:51:01.320Z</time>
      </trkpt>
      <trkpt lat="49.5056" lon="3.60689">
        <ele>89.61</ele>
        <time>2021-08-22T08:51:10.360Z</time>
      </trkpt>
      <trkpt lat="49.50557" lon="3.60706">
        <ele>89.87</ele>
        <time>2021-08-22T08:51:19.999Z</time>
      </trkpt>
      <trkpt lat="49.5055" lon="3.60726">
        <ele>90.26</ele>
        <time>2021-08-22T08:51:29.821Z</time>
      </trkpt>
      <trkpt lat="49.50539" lon="3.60745">
        <ele>91.38</ele>
        <time>2021-08-22T08:51:39.741Z</time>
      </trkpt>
      <trkpt lat="49.50534" lon="3.60763">
        <ele>92.47</ele>
        <time>2021-08-22T08:51:48.900Z</time>
      </trkpt>
      <trkpt lat="49.50529" lon="3.60786">
        <ele>93.25</ele>
        <time>2021-08-22T08:51:57.999Z</time>
      </trkpt>
      <trkpt lat="49.50513" lon="3.60809">
        <ele>89.94</ele>
        <time>2021-08-22T08:52:07.260Z</time>
      </trkpt>
      <trkpt lat="49.50501" lon="3.60819">
        <ele>89.75</ele>
        <time>2021-08-22T08:52:16.999Z</time>
      </trkpt>
      <trkpt lat="49.50493" lon="3.60832">
        <ele>88.3</ele>
        <time>2021-08-22T08:52:27.999Z</time>
      </trkpt>
      <trkpt lat="49.50476" lon="3.60849">
        <ele>88.16</ele>
        <time>2021-08-22T08:52:37.320Z</time>
      </trkpt>
      <trkpt lat="49.50464" lon="3.6086">
        <ele>87.55</ele>
        <time>2021-08-22T08:52:46.702Z</time>
      </trkpt>
      <trkpt lat="49.5045" lon="3.60869">
        <ele>74.75</ele>
        <time>2021-08-22T08:52:56.096Z</time>
      </trkpt>
      <trkpt lat="49.50436" lon="3.60877">
        <ele>75.05</ele>
        <time>2021-08-22T08:53:05.921Z</time>
      </trkpt>
      <trkpt lat="49.50425" lon="3.60879">
        <ele>75.08</ele>
        <time>2021-08-22T08:53:14.999Z</time>
      </trkpt>
      <trkpt lat="49.50412" lon="3.60886">
        <ele>76.36</ele>
        <time>2021-08-22T08:53:24.241Z</time>
      </trkpt>
      <trkpt lat="49.50402" lon="3.60888">
        <ele>76.68</ele>
        <time>2021-08-22T08:53:33.999Z</time>
      </trkpt>
      <trkpt lat="49.50388" lon="3.60894">
        <ele>76.82</ele>
        <time>2021-08-22T08:53:43.380Z</time>
      </trkpt>
      <trkpt lat="49.50374" lon="3.60901">
        <ele>76.89</ele>
        <time>2021-08-22T08:53:52.680Z</time>
      </trkpt>
      <trkpt lat="49.50363" lon="3.60913">
        <ele>76.84</ele>
        <time>2021-08-22T08:54:02.205Z</time>
      </trkpt>
      <trkpt lat="49.50345" lon="3.60944">
        <ele>77</ele>
        <time>2021-08-22T08:54:11.660Z</time>
      </trkpt>
      <trkpt lat="49.50336" lon="3.60954">
        <ele>76.99</ele>
        <time>2021-08-22T08:54:21.999Z</time>
      </trkpt>
      <trkpt lat="49.50326" lon="3.60968">
        <ele>77.98</ele>
        <time>2021-08-22T08:54:31.622Z</time>
      </trkpt>
      <trkpt lat="49.50317" lon="3.60972">
        <ele>80.08</ele>
        <time>2021-08-22T08:54:40.999Z</time>
      </trkpt>
      <trkpt lat="49.5031" lon="3.60991">
        <ele>80.19</ele>
        <time>2021-08-22T08:54:50.999Z</time>
      </trkpt>
      <trkpt lat="49.50303" lon="3.61011">
        <ele>80.3</ele>
        <time>2021-08-22T08:55:00.224Z</time>
      </trkpt>
      <trkpt lat="49.50299" lon="3.61031">
        <ele>80.3</ele>
        <time>2021-08-22T08:55:09.342Z</time>
      </trkpt>
      <trkpt lat="49.50296" lon="3.61049">
        <ele>80.27</ele>
        <time>2021-08-22T08:55:18.440Z</time>
      </trkpt>
      <trkpt lat="49.50293" lon="3.6107">
        <ele>80.96</ele>
        <time>2021-08-22T08:55:27.700Z</time>
      </trkpt>
      <trkpt lat="49.5029" lon="3.6109">
        <ele>80.9</ele>
        <time>2021-08-22T08:55:36.881Z</time>
      </trkpt>
      <trkpt lat="49.50287" lon="3.61107">
        <ele>80.88</ele>
        <time>2021-08-22T08:55:45.999Z</time>
      </trkpt>
      <trkpt lat="49.50283" lon="3.61138">
        <ele>81.04</ele>
        <time>2021-08-22T08:55:55.699Z</time>
      </trkpt>
      <trkpt lat="49.5028" lon="3.61153">
        <ele>81.16</ele>
        <time>2021-08-22T08:56:04.999Z</time>
      </trkpt>
      <trkpt lat="49.50281" lon="3.61174">
        <ele>81.04</ele>
        <time>2021-08-22T08:56:14.860Z</time>
      </trkpt>
      <trkpt lat="49.50279" lon="3.61194">
        <ele>82.33</ele>
        <time>2021-08-22T08:56:24.999Z</time>
      </trkpt>
      <trkpt lat="49.50282" lon="3.61198">
        <ele>82.6</ele>
        <time>2021-08-22T08:56:34.000Z</time>
      </trkpt>
      <trkpt lat="49.50278" lon="3.6118">
        <ele>82.9</ele>
        <time>2021-08-22T08:56:43.838Z</time>
      </trkpt>
      <trkpt lat="49.50273" lon="3.61173">
        <ele>83.1</ele>
        <time>2021-08-22T08:56:53.999Z</time>
      </trkpt>
      <trkpt lat="49.50272" lon="3.61175">
        <ele>83.02</ele>
        <time>2021-08-22T08:57:03.999Z</time>
      </trkpt>
      <trkpt lat="49.50272" lon="3.61177">
        <ele>83.01</ele>
        <time>2021-08-22T08:57:13.999Z</time>
      </trkpt>
      <trkpt lat="49.50273" lon="3.61179">
        <ele>82.87</ele>
        <time>2021-08-22T08:57:23.999Z</time>
      </trkpt>
      <trkpt lat="49.50266" lon="3.61187">
        <ele>82.99</ele>
        <time>2021-08-22T08:57:33.861Z</time>
      </trkpt>
      <trkpt lat="49.50264" lon="3.61182">
        <ele>83.06</ele>
        <time>2021-08-22T08:57:42.999Z</time>
      </trkpt>
      <trkpt lat="49.50267" lon="3.61179">
        <ele>83.09</ele>
        <time>2021-08-22T08:57:52.999Z</time>
      </trkpt>
      <trkpt lat="49.50268" lon="3.61179">
        <ele>83.27</ele>
        <time>2021-08-22T08:58:02.999Z</time>
      </trkpt>
      <trkpt lat="49.50268" lon="3.61177">
        <ele>83.15</ele>
        <time>2021-08-22T08:58:12.999Z</time>
      </trkpt>
      <trkpt lat="49.5027" lon="3.6118">
        <ele>83.31</ele>
        <time>2021-08-22T08:58:22.999Z</time>
      </trkpt>
      <trkpt lat="49.50271" lon="3.61184">
        <ele>83.36</ele>
        <time>2021-08-22T08:58:32.999Z</time>
      </trkpt>
      <trkpt lat="49.5027" lon="3.61186">
        <ele>83.42</ele>
        <time>2021-08-22T08:58:43.999Z</time>
      </trkpt>
      <trkpt lat="49.50269" lon="3.61189">
        <ele>83.52</ele>
        <time>2021-08-22T08:58:53.999Z</time>
      </trkpt>
      <trkpt lat="49.50268" lon="3.6119">
        <ele>83.5</ele>
        <time>2021-08-22T08:59:03.999Z</time>
      </trkpt>
      <trkpt lat="49.50267" lon="3.6119">
        <ele>83.25</ele>
        <time>2021-08-22T08:59:17.999Z</time>
      </trkpt>
      <trkpt lat="49.50266" lon="3.61192">
        <ele>83.22</ele>
        <time>2021-08-22T08:59:27.999Z</time>
      </trkpt>
      <trkpt lat="49.50263" lon="3.61178">
        <ele>82.86</ele>
        <time>2021-08-22T08:59:38.999Z</time>
      </trkpt>
      <trkpt lat="49.50252" lon="3.61133">
        <ele>82.77</ele>
        <time>2021-08-22T08:59:48.999Z</time>
      </trkpt>
      <trkpt lat="49.50251" lon="3.61108">
        <ele>82.8</ele>
        <time>2021-08-22T08:59:58.999Z</time>
      </trkpt>
      <trkpt lat="49.50251" lon="3.61088">
        <ele>82.86</ele>
        <time>2021-08-22T09:00:08.999Z</time>
      </trkpt>
      <trkpt lat="49.50252" lon="3.61054">
        <ele>82.83</ele>
        <time>2021-08-22T09:00:18.999Z</time>
      </trkpt>
      <trkpt lat="49.50254" lon="3.61026">
        <ele>82.66</ele>
        <time>2021-08-22T09:00:28.999Z</time>
      </trkpt>
      <trkpt lat="49.50241" lon="3.61019">
        <ele>95.32</ele>
        <time>2021-08-22T09:00:38.999Z</time>
      </trkpt>
      <trkpt lat="49.50233" lon="3.61021">
        <ele>96.35</ele>
        <time>2021-08-22T09:00:48.999Z</time>
      </trkpt>
      <trkpt lat="49.50228" lon="3.60998">
        <ele>96.98</ele>
        <time>2021-08-22T09:00:58.000Z</time>
      </trkpt>
      <trkpt lat="49.50222" lon="3.60968">
        <ele>99.39</ele>
        <time>2021-08-22T09:01:08.000Z</time>
      </trkpt>
      <trkpt lat="49.50219" lon="3.60946">
        <ele>100.9</ele>
        <time>2021-08-22T09:01:18.000Z</time>
      </trkpt>
      <trkpt lat="49.50218" lon="3.60926">
        <ele>100.34</ele>
        <time>2021-08-22T09:01:28.000Z</time>
      </trkpt>
      <trkpt lat="49.50219" lon="3.60903">
        <ele>102.07</ele>
        <time>2021-08-22T09:01:38.000Z</time>
      </trkpt>
      <trkpt lat="49.50215" lon="3.6089">
        <ele>103.39</ele>
        <time>2021-08-22T09:01:48.000Z</time>
      </trkpt>
      <trkpt lat="49.50201" lon="3.60879">
        <ele>102.57</ele>
        <time>2021-08-22T09:01:58.000Z</time>
      </trkpt>
      <trkpt lat="49.50191" lon="3.60876">
        <ele>106.78</ele>
        <time>2021-08-22T09:02:08.000Z</time>
      </trkpt>
      <trkpt lat="49.50195" lon="3.60863">
        <ele>106.11</ele>
        <time>2021-08-22T09:02:18.000Z</time>
      </trkpt>
      <trkpt lat="49.502" lon="3.60868">
        <ele>106.06</ele>
        <time>2021-08-22T09:02:28.000Z</time>
      </trkpt>
      <trkpt lat="49.50204" lon="3.60876">
        <ele>106.09</ele>
        <time>2021-08-22T09:02:39.000Z</time>
      </trkpt>
      <trkpt lat="49.50206" lon="3.60874">
        <ele>106.16</ele>
        <time>2021-08-22T09:03:05.000Z</time>
      </trkpt>
      <trkpt lat="49.50212" lon="3.6086">
        <ele>104.78</ele>
        <time>2021-08-22T09:03:15.000Z</time>
      </trkpt>
      <trkpt lat="49.50211" lon="3.60863">
        <ele>104.76</ele>
        <time>2021-08-22T09:03:25.000Z</time>
      </trkpt>
      <trkpt lat="49.50211" lon="3.60857">
        <ele>83.63</ele>
        <time>2021-08-22T09:03:35.000Z</time>
      </trkpt>
      <trkpt lat="49.50214" lon="3.6086">
        <ele>80.04</ele>
        <time>2021-08-22T09:03:45.000Z</time>
      </trkpt>
      <trkpt lat="49.50214" lon="3.60862">
        <ele>77.26</ele>
        <time>2021-08-22T09:04:22.000Z</time>
      </trkpt>
      <trkpt lat="49.50213" lon="3.60864">
        <ele>77.23</ele>
        <time>2021-08-22T09:04:32.000Z</time>
      </trkpt>
      <trkpt lat="49.50207" lon="3.60864">
        <ele>77.17</ele>
        <time>2021-08-22T09:04:42.000Z</time>
      </trkpt>
      <trkpt lat="49.50206" lon="3.60866">
        <ele>77.15</ele>
        <time>2021-08-22T09:05:00.000Z</time>
      </trkpt>
      <trkpt lat="49.50208" lon="3.60868">
        <ele>77.12</ele>
        <time>2021-08-22T09:05:10.000Z</time>
      </trkpt>
      <trkpt lat="49.50209" lon="3.6087">
        <ele>77.07</ele>
        <time>2021-08-22T09:05:20.000Z</time>
      </trkpt>
      <trkpt lat="49.50209" lon="3.6087">
        <ele>77.08</ele>
        <time>2021-08-22T09:05:30.000Z</time>
      </trkpt>
      <trkpt lat="49.50207" lon="3.60872">
        <ele>77.16</ele>
        <time>2021-08-22T09:05:40.000Z</time>
      </trkpt>
      <trkpt lat="49.50207" lon="3.60873">
        <ele>77.13</ele>
        <time>2021-08-22T09:05:51.000Z</time>
      </trkpt>
      <trkpt lat="49.50204" lon="3.60877">
        <ele>77.04</ele>
        <time>2021-08-22T09:06:01.000Z</time>
      </trkpt>
      <trkpt lat="49.502" lon="3.60874">
        <ele>77.23</ele>
        <time>2021-08-22T09:06:11.000Z</time>
      </trkpt>
      <trkpt lat="49.50191" lon="3.60874">
        <ele>77.27</ele>
        <time>2021-08-22T09:06:21.000Z</time>
      </trkpt>
      <trkpt lat="49.50188" lon="3.60875">
        <ele>77.38</ele>
        <time>2021-08-22T09:06:36.000Z</time>
      </trkpt>
      <trkpt lat="49.50186" lon="3.60876">
        <ele>77.33</ele>
        <time>2021-08-22T09:06:46.000Z</time>
      </trkpt>
      <trkpt lat="49.50185" lon="3.60877">
        <ele>77.24</ele>
        <time>2021-08-22T09:07:01.000Z</time>
      </trkpt>
      <trkpt lat="49.50184" lon="3.60877">
        <ele>77.08</ele>
        <time>2021-08-22T09:07:11.000Z</time>
      </trkpt>
      <trkpt lat="49.50183" lon="3.60876">
        <ele>83.27</ele>
        <time>2021-08-22T09:07:21.000Z</time>
      </trkpt>
      <trkpt lat="49.50182" lon="3.60874">
        <ele>81.85</ele>
        <time>2021-08-22T09:07:31.000Z</time>
      </trkpt>
      <trkpt lat="49.50182" lon="3.60872">
        <ele>81.77</ele>
        <time>2021-08-22T09:07:41.000Z</time>
      </trkpt>
      <trkpt lat="49.5018" lon="3.60873">
        <ele>81.76</ele>
        <time>2021-08-22T09:07:52.000Z</time>
      </trkpt>
      <trkpt lat="49.50164" lon="3.60874">
        <ele>81.91</ele>
        <time>2021-08-22T09:08:02.000Z</time>
      </trkpt>
      <trkpt lat="49.50151" lon="3.60866">
        <ele>81.81</ele>
        <time>2021-08-22T09:08:12.000Z</time>
      </trkpt>
      <trkpt lat="49.50139" lon="3.60861">
        <ele>81.66</ele>
        <time>2021-08-22T09:08:22.000Z</time>
      </trkpt>
      <trkpt lat="49.50129" lon="3.60856">
        <ele>81.78</ele>
        <time>2021-08-22T09:08:32.000Z</time>
      </trkpt>
      <trkpt lat="49.50119" lon="3.60849">
        <ele>81.82</ele>
        <time>2021-08-22T09:08:42.000Z</time>
      </trkpt>
      <trkpt lat="49.50109" lon="3.60843">
        <ele>81.83</ele>
        <time>2021-08-22T09:08:52.000Z</time>
      </trkpt>
      <trkpt lat="49.50093" lon="3.60837">
        <ele>113.27</ele>
        <time>2021-08-22T09:09:02.000Z</time>
      </trkpt>
      <trkpt lat="49.50082" lon="3.60829">
        <ele>117.57</ele>
        <time>2021-08-22T09:09:12.000Z</time>
      </trkpt>
      <trkpt lat="49.50068" lon="3.60819">
        <ele>118.1</ele>
        <time>2021-08-22T09:09:22.000Z</time>
      </trkpt>
      <trkpt lat="49.50057" lon="3.60811">
        <ele>120.25</ele>
        <time>2021-08-22T09:09:32.000Z</time>
      </trkpt>
      <trkpt lat="49.50042" lon="3.60809">
        <ele>122.17</ele>
        <time>2021-08-22T09:09:42.000Z</time>
      </trkpt>
      <trkpt lat="49.50027" lon="3.60811">
        <ele>123.7</ele>
        <time>2021-08-22T09:09:52.000Z</time>
      </trkpt>
      <trkpt lat="49.50023" lon="3.60834">
        <ele>126.72</ele>
        <time>2021-08-22T09:10:01.600Z</time>
      </trkpt>
      <trkpt lat="49.50009" lon="3.60832">
        <ele>128.97</ele>
        <time>2021-08-22T09:10:11.061Z</time>
      </trkpt>
      <trkpt lat="49.50008" lon="3.60852">
        <ele>132.48</ele>
        <time>2021-08-22T09:10:22.000Z</time>
      </trkpt>
      <trkpt lat="49.50006" lon="3.60882">
        <ele>133.8</ele>
        <time>2021-08-22T09:10:31.560Z</time>
      </trkpt>
      <trkpt lat="49.50002" lon="3.60899">
        <ele>135.63</ele>
        <time>2021-08-22T09:10:41.000Z</time>
      </trkpt>
      <trkpt lat="49.49995" lon="3.60922">
        <ele>136.51</ele>
        <time>2021-08-22T09:10:50.640Z</time>
      </trkpt>
      <trkpt lat="49.49991" lon="3.6094">
        <ele>138.04</ele>
        <time>2021-08-22T09:10:59.700Z</time>
      </trkpt>
      <trkpt lat="49.49981" lon="3.60965">
        <ele>138.12</ele>
        <time>2021-08-22T09:11:08.842Z</time>
      </trkpt>
      <trkpt lat="49.49972" lon="3.60977">
        <ele>139.35</ele>
        <time>2021-08-22T09:11:18.401Z</time>
      </trkpt>
      <trkpt lat="49.49965" lon="3.60988">
        <ele>138.75</ele>
        <time>2021-08-22T09:11:27.420Z</time>
      </trkpt>
      <trkpt lat="49.49953" lon="3.60998">
        <ele>140.1</ele>
        <time>2021-08-22T09:11:36.881Z</time>
      </trkpt>
      <trkpt lat="49.49938" lon="3.61004">
        <ele>141.73</ele>
        <time>2021-08-22T09:11:46.000Z</time>
      </trkpt>
      <trkpt lat="49.49923" lon="3.6101">
        <ele>142.85</ele>
        <time>2021-08-22T09:11:55.720Z</time>
      </trkpt>
      <trkpt lat="49.49909" lon="3.6101">
        <ele>143.94</ele>
        <time>2021-08-22T09:12:05.067Z</time>
      </trkpt>
      <trkpt lat="49.49896" lon="3.61011">
        <ele>146.6</ele>
        <time>2021-08-22T09:12:14.760Z</time>
      </trkpt>
      <trkpt lat="49.49886" lon="3.6101">
        <ele>148.47</ele>
        <time>2021-08-22T09:12:24.261Z</time>
      </trkpt>
      <trkpt lat="49.49874" lon="3.61014">
        <ele>151.26</ele>
        <time>2021-08-22T09:12:34.000Z</time>
      </trkpt>
      <trkpt lat="49.49856" lon="3.61014">
        <ele>153.46</ele>
        <time>2021-08-22T09:12:43.960Z</time>
      </trkpt>
      <trkpt lat="49.49839" lon="3.61007">
        <ele>156.39</ele>
        <time>2021-08-22T09:12:53.560Z</time>
      </trkpt>
      <trkpt lat="49.49825" lon="3.61001">
        <ele>155.44</ele>
        <time>2021-08-22T09:13:04.000Z</time>
      </trkpt>
      <trkpt lat="49.49806" lon="3.60992">
        <ele>157.66</ele>
        <time>2021-08-22T09:13:13.641Z</time>
      </trkpt>
      <trkpt lat="49.49791" lon="3.60991">
        <ele>160.71</ele>
        <time>2021-08-22T09:13:23.001Z</time>
      </trkpt>
      <trkpt lat="49.49779" lon="3.60985">
        <ele>161.22</ele>
        <time>2021-08-22T09:13:32.481Z</time>
      </trkpt>
      <trkpt lat="49.49768" lon="3.60979">
        <ele>161.93</ele>
        <time>2021-08-22T09:13:42.000Z</time>
      </trkpt>
      <trkpt lat="49.49754" lon="3.60976">
        <ele>162.35</ele>
        <time>2021-08-22T09:13:51.780Z</time>
      </trkpt>
      <trkpt lat="49.4974" lon="3.6098">
        <ele>163.85</ele>
        <time>2021-08-22T09:14:02.020Z</time>
      </trkpt>
      <trkpt lat="49.49737" lon="3.60979">
        <ele>165.99</ele>
        <time>2021-08-22T09:14:11.461Z</time>
      </trkpt>
      <trkpt lat="49.49737" lon="3.6101">
        <ele>165.77</ele>
        <time>2021-08-22T09:14:20.660Z</time>
      </trkpt>
      <trkpt lat="49.49729" lon="3.61029">
        <ele>166</ele>
        <time>2021-08-22T09:14:29.781Z</time>
      </trkpt>
      <trkpt lat="49.49724" lon="3.61053">
        <ele>165.45</ele>
        <time>2021-08-22T09:14:39.655Z</time>
      </trkpt>
      <trkpt lat="49.49718" lon="3.61065">
        <ele>165.94</ele>
        <time>2021-08-22T09:14:48.915Z</time>
      </trkpt>
      <trkpt lat="49.49704" lon="3.61071">
        <ele>166.58</ele>
        <time>2021-08-22T09:14:58.555Z</time>
      </trkpt>
      <trkpt lat="49.49692" lon="3.61081">
        <ele>167.24</ele>
        <time>2021-08-22T09:15:07.675Z</time>
      </trkpt>
      <trkpt lat="49.49684" lon="3.61092">
        <ele>167.7</ele>
        <time>2021-08-22T09:15:16.736Z</time>
      </trkpt>
      <trkpt lat="49.49682" lon="3.61107">
        <ele>168.98</ele>
        <time>2021-08-22T09:15:26.315Z</time>
      </trkpt>
      <trkpt lat="49.49684" lon="3.61119">
        <ele>169.41</ele>
        <time>2021-08-22T09:15:36.000Z</time>
      </trkpt>
      <trkpt lat="49.49684" lon="3.61132">
        <ele>169.35</ele>
        <time>2021-08-22T09:15:45.336Z</time>
      </trkpt>
      <trkpt lat="49.4969" lon="3.6115">
        <ele>170.71</ele>
        <time>2021-08-22T09:15:54.715Z</time>
      </trkpt>
      <trkpt lat="49.49693" lon="3.61171">
        <ele>171</ele>
        <time>2021-08-22T09:16:04.376Z</time>
      </trkpt>
      <trkpt lat="49.49697" lon="3.6119">
        <ele>171.41</ele>
        <time>2021-08-22T09:16:14.000Z</time>
      </trkpt>
      <trkpt lat="49.49703" lon="3.61213">
        <ele>171.33</ele>
        <time>2021-08-22T09:16:23.655Z</time>
      </trkpt>
      <trkpt lat="49.49706" lon="3.61232">
        <ele>171.98</ele>
        <time>2021-08-22T09:16:34.000Z</time>
      </trkpt>
      <trkpt lat="49.49711" lon="3.61248">
        <ele>172.26</ele>
        <time>2021-08-22T09:16:43.635Z</time>
      </trkpt>
      <trkpt lat="49.49717" lon="3.61266">
        <ele>173.57</ele>
        <time>2021-08-22T09:16:53.000Z</time>
      </trkpt>
      <trkpt lat="49.49724" lon="3.61288">
        <ele>172.15</ele>
        <time>2021-08-22T09:17:02.637Z</time>
      </trkpt>
      <trkpt lat="49.49726" lon="3.61309">
        <ele>171.21</ele>
        <time>2021-08-22T09:17:12.000Z</time>
      </trkpt>
      <trkpt lat="49.49731" lon="3.61332">
        <ele>170.54</ele>
        <time>2021-08-22T09:17:21.027Z</time>
      </trkpt>
      <trkpt lat="49.49732" lon="3.61348">
        <ele>171.35</ele>
        <time>2021-08-22T09:17:30.835Z</time>
      </trkpt>
      <trkpt lat="49.49738" lon="3.61369">
        <ele>172.25</ele>
        <time>2021-08-22T09:17:41.000Z</time>
      </trkpt>
      <trkpt lat="49.49744" lon="3.61394">
        <ele>172.63</ele>
        <time>2021-08-22T09:17:51.000Z</time>
      </trkpt>
      <trkpt lat="49.49748" lon="3.61421">
        <ele>172.26</ele>
        <time>2021-08-22T09:18:00.675Z</time>
      </trkpt>
      <trkpt lat="49.49751" lon="3.61445">
        <ele>172.24</ele>
        <time>2021-08-22T09:18:11.000Z</time>
      </trkpt>
      <trkpt lat="49.49759" lon="3.61461">
        <ele>172.35</ele>
        <time>2021-08-22T09:18:20.315Z</time>
      </trkpt>
      <trkpt lat="49.49768" lon="3.61488">
        <ele>172.13</ele>
        <time>2021-08-22T09:18:30.035Z</time>
      </trkpt>
      <trkpt lat="49.49773" lon="3.6151">
        <ele>172.74</ele>
        <time>2021-08-22T09:18:39.455Z</time>
      </trkpt>
      <trkpt lat="49.4978" lon="3.61531">
        <ele>172.24</ele>
        <time>2021-08-22T09:18:48.575Z</time>
      </trkpt>
      <trkpt lat="49.49791" lon="3.61549">
        <ele>172.99</ele>
        <time>2021-08-22T09:18:58.736Z</time>
      </trkpt>
      <trkpt lat="49.49799" lon="3.61565">
        <ele>173.96</ele>
        <time>2021-08-22T09:19:08.000Z</time>
      </trkpt>
      <trkpt lat="49.49806" lon="3.61589">
        <ele>173.67</ele>
        <time>2021-08-22T09:19:17.336Z</time>
      </trkpt>
      <trkpt lat="49.49812" lon="3.61611">
        <ele>173.98</ele>
        <time>2021-08-22T09:19:28.000Z</time>
      </trkpt>
      <trkpt lat="49.49818" lon="3.61635">
        <ele>173.83</ele>
        <time>2021-08-22T09:19:37.755Z</time>
      </trkpt>
      <trkpt lat="49.49825" lon="3.61656">
        <ele>173.37</ele>
        <time>2021-08-22T09:19:47.215Z</time>
      </trkpt>
      <trkpt lat="49.49833" lon="3.61675">
        <ele>172.61</ele>
        <time>2021-08-22T09:19:56.316Z</time>
      </trkpt>
      <trkpt lat="49.49841" lon="3.61691">
        <ele>174.13</ele>
        <time>2021-08-22T09:20:05.696Z</time>
      </trkpt>
      <trkpt lat="49.49851" lon="3.61709">
        <ele>171.62</ele>
        <time>2021-08-22T09:20:15.196Z</time>
      </trkpt>
      <trkpt lat="49.49859" lon="3.61727">
        <ele>171.3</ele>
        <time>2021-08-22T09:20:24.756Z</time>
      </trkpt>
      <trkpt lat="49.49866" lon="3.61745">
        <ele>172.19</ele>
        <time>2021-08-22T09:20:34.000Z</time>
      </trkpt>
      <trkpt lat="49.49874" lon="3.61767">
        <ele>171.17</ele>
        <time>2021-08-22T09:20:44.000Z</time>
      </trkpt>
      <trkpt lat="49.49881" lon="3.61786">
        <ele>170.67</ele>
        <time>2021-08-22T09:20:54.000Z</time>
      </trkpt>
      <trkpt lat="49.49888" lon="3.61809">
        <ele>172.31</ele>
        <time>2021-08-22T09:21:03.055Z</time>
      </trkpt>
      <trkpt lat="49.4989" lon="3.6184">
        <ele>170.17</ele>
        <time>2021-08-22T09:21:13.000Z</time>
      </trkpt>
      <trkpt lat="49.4989" lon="3.61872">
        <ele>170.34</ele>
        <time>2021-08-22T09:21:22.716Z</time>
      </trkpt>
      <trkpt lat="49.49895" lon="3.61905">
        <ele>169.89</ele>
        <time>2021-08-22T09:21:32.656Z</time>
      </trkpt>
      <trkpt lat="49.49906" lon="3.61915">
        <ele>170.95</ele>
        <time>2021-08-22T09:21:41.836Z</time>
      </trkpt>
      <trkpt lat="49.49918" lon="3.61939">
        <ele>170.92</ele>
        <time>2021-08-22T09:21:51.415Z</time>
      </trkpt>
      <trkpt lat="49.49925" lon="3.61957">
        <ele>170.57</ele>
        <time>2021-08-22T09:22:00.715Z</time>
      </trkpt>
      <trkpt lat="49.49938" lon="3.61972">
        <ele>169.89</ele>
        <time>2021-08-22T09:22:10.315Z</time>
      </trkpt>
      <trkpt lat="49.49947" lon="3.6199">
        <ele>170.93</ele>
        <time>2021-08-22T09:22:19.695Z</time>
      </trkpt>
      <trkpt lat="49.49955" lon="3.6201">
        <ele>170.45</ele>
        <time>2021-08-22T09:22:29.042Z</time>
      </trkpt>
      <trkpt lat="49.49964" lon="3.62028">
        <ele>170.81</ele>
        <time>2021-08-22T09:22:39.000Z</time>
      </trkpt>
      <trkpt lat="49.49973" lon="3.62058">
        <ele>171.01</ele>
        <time>2021-08-22T09:22:50.000Z</time>
      </trkpt>
      <trkpt lat="49.49975" lon="3.62079">
        <ele>170.84</ele>
        <time>2021-08-22T09:22:59.435Z</time>
      </trkpt>
      <trkpt lat="49.49986" lon="3.62105">
        <ele>170.78</ele>
        <time>2021-08-22T09:23:08.556Z</time>
      </trkpt>
      <trkpt lat="49.49991" lon="3.62127">
        <ele>170.49</ele>
        <time>2021-08-22T09:23:18.000Z</time>
      </trkpt>
      <trkpt lat="49.49993" lon="3.62151">
        <ele>171.88</ele>
        <time>2021-08-22T09:23:27.715Z</time>
      </trkpt>
      <trkpt lat="49.49995" lon="3.62173">
        <ele>171.31</ele>
        <time>2021-08-22T09:23:37.256Z</time>
      </trkpt>
      <trkpt lat="49.49999" lon="3.62192">
        <ele>168.92</ele>
        <time>2021-08-22T09:23:47.000Z</time>
      </trkpt>
      <trkpt lat="49.50005" lon="3.62222">
        <ele>171.69</ele>
        <time>2021-08-22T09:23:56.317Z</time>
      </trkpt>
      <trkpt lat="49.50007" lon="3.62249">
        <ele>169.98</ele>
        <time>2021-08-22T09:24:06.615Z</time>
      </trkpt>
      <trkpt lat="49.50009" lon="3.62265">
        <ele>169.95</ele>
        <time>2021-08-22T09:24:16.534Z</time>
      </trkpt>
      <trkpt lat="49.50013" lon="3.62284">
        <ele>169.89</ele>
        <time>2021-08-22T09:24:25.935Z</time>
      </trkpt>
      <trkpt lat="49.50019" lon="3.62309">
        <ele>170.3</ele>
        <time>2021-08-22T09:24:36.000Z</time>
      </trkpt>
      <trkpt lat="49.50021" lon="3.62332">
        <ele>171.15</ele>
        <time>2021-08-22T09:24:47.000Z</time>
      </trkpt>
      <trkpt lat="49.50027" lon="3.62351">
        <ele>171.8</ele>
        <time>2021-08-22T09:24:56.697Z</time>
      </trkpt>
      <trkpt lat="49.50031" lon="3.62372">
        <ele>170.43</ele>
        <time>2021-08-22T09:25:06.436Z</time>
      </trkpt>
      <trkpt lat="49.50035" lon="3.62392">
        <ele>170.87</ele>
        <time>2021-08-22T09:25:15.475Z</time>
      </trkpt>
      <trkpt lat="49.50044" lon="3.62411">
        <ele>172.44</ele>
        <time>2021-08-22T09:25:25.416Z</time>
      </trkpt>
      <trkpt lat="49.50051" lon="3.62428">
        <ele>172.32</ele>
        <time>2021-08-22T09:25:34.896Z</time>
      </trkpt>
      <trkpt lat="49.50053" lon="3.62446">
        <ele>172.41</ele>
        <time>2021-08-22T09:25:44.000Z</time>
      </trkpt>
      <trkpt lat="49.50053" lon="3.62472">
        <ele>172.18</ele>
        <time>2021-08-22T09:25:53.676Z</time>
      </trkpt>
      <trkpt lat="49.50054" lon="3.62491">
        <ele>172.49</ele>
        <time>2021-08-22T09:26:02.735Z</time>
      </trkpt>
      <trkpt lat="49.50055" lon="3.62509">
        <ele>173.13</ele>
        <time>2021-08-22T09:26:13.000Z</time>
      </trkpt>
      <trkpt lat="49.50055" lon="3.62532">
        <ele>172.1</ele>
        <time>2021-08-22T09:26:22.455Z</time>
      </trkpt>
      <trkpt lat="49.50055" lon="3.62557">
        <ele>171.62</ele>
        <time>2021-08-22T09:26:31.575Z</time>
      </trkpt>
      <trkpt lat="49.50058" lon="3.62577">
        <ele>172.48</ele>
        <time>2021-08-22T09:26:40.755Z</time>
      </trkpt>
      <trkpt lat="49.50064" lon="3.62595">
        <ele>171.22</ele>
        <time>2021-08-22T09:26:50.676Z</time>
      </trkpt>
      <trkpt lat="49.50069" lon="3.62614">
        <ele>171.73</ele>
        <time>2021-08-22T09:27:00.476Z</time>
      </trkpt>
      <trkpt lat="49.50075" lon="3.62634">
        <ele>172.63</ele>
        <time>2021-08-22T09:27:09.734Z</time>
      </trkpt>
      <trkpt lat="49.50082" lon="3.62655">
        <ele>172.7</ele>
        <time>2021-08-22T09:27:19.535Z</time>
      </trkpt>
      <trkpt lat="49.50086" lon="3.62679">
        <ele>174.91</ele>
        <time>2021-08-22T09:27:28.755Z</time>
      </trkpt>
      <trkpt lat="49.50087" lon="3.627">
        <ele>173</ele>
        <time>2021-08-22T09:27:38.515Z</time>
      </trkpt>
      <trkpt lat="49.50086" lon="3.62713">
        <ele>174.66</ele>
        <time>2021-08-22T09:27:48.000Z</time>
      </trkpt>
      <trkpt lat="49.50082" lon="3.62714">
        <ele>174.9</ele>
        <time>2021-08-22T09:27:58.000Z</time>
      </trkpt>
      <trkpt lat="49.5008" lon="3.62711">
        <ele>174.6</ele>
        <time>2021-08-22T09:28:08.000Z</time>
      </trkpt>
      <trkpt lat="49.50082" lon="3.62711">
        <ele>175.65</ele>
        <time>2021-08-22T09:28:37.255Z</time>
      </trkpt>
      <trkpt lat="49.50092" lon="3.627">
        <ele>174.6</ele>
        <time>2021-08-22T09:28:47.000Z</time>
      </trkpt>
      <trkpt lat="49.50098" lon="3.62696">
        <ele>174.06</ele>
        <time>2021-08-22T09:28:58.000Z</time>
      </trkpt>
      <trkpt lat="49.50109" lon="3.62706">
        <ele>174.9</ele>
        <time>2021-08-22T09:29:07.316Z</time>
      </trkpt>
      <trkpt lat="49.50124" lon="3.62713">
        <ele>175.18</ele>
        <time>2021-08-22T09:29:16.736Z</time>
      </trkpt>
      <trkpt lat="49.50137" lon="3.6272">
        <ele>166.64</ele>
        <time>2021-08-22T09:29:26.256Z</time>
      </trkpt>
      <trkpt lat="49.50149" lon="3.62729">
        <ele>166.54</ele>
        <time>2021-08-22T09:29:35.615Z</time>
      </trkpt>
      <trkpt lat="49.50162" lon="3.62732">
        <ele>166.56</ele>
        <time>2021-08-22T09:29:45.035Z</time>
      </trkpt>
      <trkpt lat="49.50175" lon="3.62727">
        <ele>166.53</ele>
        <time>2021-08-22T09:29:54.696Z</time>
      </trkpt>
      <trkpt lat="49.50188" lon="3.62734">
        <ele>166.59</ele>
        <time>2021-08-22T09:30:04.355Z</time>
      </trkpt>
      <trkpt lat="49.50194" lon="3.62745">
        <ele>166.53</ele>
        <time>2021-08-22T09:30:14.000Z</time>
      </trkpt>
      <trkpt lat="49.50211" lon="3.62756">
        <ele>166.52</ele>
        <time>2021-08-22T09:30:23.636Z</time>
      </trkpt>
      <trkpt lat="49.50228" lon="3.62757">
        <ele>169.6</ele>
        <time>2021-08-22T09:30:32.676Z</time>
      </trkpt>
      <trkpt lat="49.50245" lon="3.62763">
        <ele>168.71</ele>
        <time>2021-08-22T09:30:42.394Z</time>
      </trkpt>
      <trkpt lat="49.50259" lon="3.62775">
        <ele>167.22</ele>
        <time>2021-08-22T09:30:52.496Z</time>
      </trkpt>
      <trkpt lat="49.50279" lon="3.62785">
        <ele>165.39</ele>
        <time>2021-08-22T09:31:02.375Z</time>
      </trkpt>
      <trkpt lat="49.50289" lon="3.62805">
        <ele>163.42</ele>
        <time>2021-08-22T09:31:11.576Z</time>
      </trkpt>
      <trkpt lat="49.503" lon="3.62824">
        <ele>163.03</ele>
        <time>2021-08-22T09:31:20.695Z</time>
      </trkpt>
      <trkpt lat="49.5031" lon="3.62854">
        <ele>162.16</ele>
        <time>2021-08-22T09:31:30.555Z</time>
      </trkpt>
      <trkpt lat="49.50317" lon="3.6288">
        <ele>159.82</ele>
        <time>2021-08-22T09:31:39.716Z</time>
      </trkpt>
      <trkpt lat="49.50324" lon="3.62906">
        <ele>160.74</ele>
        <time>2021-08-22T09:31:50.000Z</time>
      </trkpt>
      <trkpt lat="49.50321" lon="3.62934">
        <ele>161.17</ele>
        <time>2021-08-22T09:32:00.000Z</time>
      </trkpt>
      <trkpt lat="49.5033" lon="3.62957">
        <ele>161.41</ele>
        <time>2021-08-22T09:32:09.736Z</time>
      </trkpt>
      <trkpt lat="49.5034" lon="3.62983">
        <ele>161.62</ele>
        <time>2021-08-22T09:32:19.516Z</time>
      </trkpt>
      <trkpt lat="49.50343" lon="3.63012">
        <ele>164.23</ele>
        <time>2021-08-22T09:32:29.416Z</time>
      </trkpt>
      <trkpt lat="49.50345" lon="3.63032">
        <ele>162.19</ele>
        <time>2021-08-22T09:32:38.616Z</time>
      </trkpt>
      <trkpt lat="49.50346" lon="3.63053">
        <ele>163.8</ele>
        <time>2021-08-22T09:32:48.000Z</time>
      </trkpt>
      <trkpt lat="49.50354" lon="3.63075">
        <ele>163.85</ele>
        <time>2021-08-22T09:32:57.820Z</time>
      </trkpt>
      <trkpt lat="49.50356" lon="3.6309">
        <ele>164.34</ele>
        <time>2021-08-22T09:33:07.295Z</time>
      </trkpt>
      <trkpt lat="49.50359" lon="3.63106">
        <ele>166.2</ele>
        <time>2021-08-22T09:33:16.435Z</time>
      </trkpt>
      <trkpt lat="49.50368" lon="3.63137">
        <ele>169.49</ele>
        <time>2021-08-22T09:33:26.375Z</time>
      </trkpt>
      <trkpt lat="49.50366" lon="3.6317">
        <ele>169.92</ele>
        <time>2021-08-22T09:33:36.136Z</time>
      </trkpt>
      <trkpt lat="49.50369" lon="3.63193">
        <ele>171.68</ele>
        <time>2021-08-22T09:33:45.335Z</time>
      </trkpt>
      <trkpt lat="49.50373" lon="3.63218">
        <ele>173.82</ele>
        <time>2021-08-22T09:33:56.000Z</time>
      </trkpt>
      <trkpt lat="49.50376" lon="3.6325">
        <ele>175.92</ele>
        <time>2021-08-22T09:34:07.000Z</time>
      </trkpt>
      <trkpt lat="49.50378" lon="3.63277">
        <ele>177.61</ele>
        <time>2021-08-22T09:34:16.516Z</time>
      </trkpt>
      <trkpt lat="49.50382" lon="3.633">
        <ele>179.35</ele>
        <time>2021-08-22T09:34:26.000Z</time>
      </trkpt>
      <trkpt lat="49.50383" lon="3.63329">
        <ele>180.61</ele>
        <time>2021-08-22T09:34:36.000Z</time>
      </trkpt>
      <trkpt lat="49.50376" lon="3.63363">
        <ele>178.5</ele>
        <time>2021-08-22T09:34:45.700Z</time>
      </trkpt>
      <trkpt lat="49.50372" lon="3.63394">
        <ele>178.34</ele>
        <time>2021-08-22T09:34:55.755Z</time>
      </trkpt>
      <trkpt lat="49.50374" lon="3.63416">
        <ele>176.41</ele>
        <time>2021-08-22T09:35:05.000Z</time>
      </trkpt>
      <trkpt lat="49.50382" lon="3.63439">
        <ele>176.37</ele>
        <time>2021-08-22T09:35:14.395Z</time>
      </trkpt>
      <trkpt lat="49.5039" lon="3.63466">
        <ele>175.27</ele>
        <time>2021-08-22T09:35:23.756Z</time>
      </trkpt>
      <trkpt lat="49.50391" lon="3.63486">
        <ele>172.78</ele>
        <time>2021-08-22T09:35:34.000Z</time>
      </trkpt>
      <trkpt lat="49.50392" lon="3.63508">
        <ele>172.64</ele>
        <time>2021-08-22T09:35:44.000Z</time>
      </trkpt>
      <trkpt lat="49.50395" lon="3.63529">
        <ele>170.47</ele>
        <time>2021-08-22T09:35:53.495Z</time>
      </trkpt>
      <trkpt lat="49.504" lon="3.6355">
        <ele>171.17</ele>
        <time>2021-08-22T09:36:04.000Z</time>
      </trkpt>
      <trkpt lat="49.50401" lon="3.63573">
        <ele>170.21</ele>
        <time>2021-08-22T09:36:13.756Z</time>
      </trkpt>
      <trkpt lat="49.50404" lon="3.63594">
        <ele>170.84</ele>
        <time>2021-08-22T09:36:22.855Z</time>
      </trkpt>
      <trkpt lat="49.50409" lon="3.63616">
        <ele>171.87</ele>
        <time>2021-08-22T09:36:32.196Z</time>
      </trkpt>
      <trkpt lat="49.50413" lon="3.63631">
        <ele>172.9</ele>
        <time>2021-08-22T09:36:42.000Z</time>
      </trkpt>
      <trkpt lat="49.50418" lon="3.63648">
        <ele>172.29</ele>
        <time>2021-08-22T09:36:51.615Z</time>
      </trkpt>
      <trkpt lat="49.50425" lon="3.6367">
        <ele>172.47</ele>
        <time>2021-08-22T09:37:00.715Z</time>
      </trkpt>
      <trkpt lat="49.50427" lon="3.63698">
        <ele>173.58</ele>
        <time>2021-08-22T09:37:10.496Z</time>
      </trkpt>
      <trkpt lat="49.50432" lon="3.63717">
        <ele>176.56</ele>
        <time>2021-08-22T09:37:19.756Z</time>
      </trkpt>
      <trkpt lat="49.50438" lon="3.63738">
        <ele>176.82</ele>
        <time>2021-08-22T09:37:28.855Z</time>
      </trkpt>
      <trkpt lat="49.50439" lon="3.63764">
        <ele>177.15</ele>
        <time>2021-08-22T09:37:37.916Z</time>
      </trkpt>
      <trkpt lat="49.50435" lon="3.63789">
        <ele>179.24</ele>
        <time>2021-08-22T09:37:47.878Z</time>
      </trkpt>
      <trkpt lat="49.50434" lon="3.63817">
        <ele>180.15</ele>
        <time>2021-08-22T09:37:57.336Z</time>
      </trkpt>
      <trkpt lat="49.50437" lon="3.63838">
        <ele>181.07</ele>
        <time>2021-08-22T09:38:07.000Z</time>
      </trkpt>
      <trkpt lat="49.50443" lon="3.63864">
        <ele>182.25</ele>
        <time>2021-08-22T09:38:16.316Z</time>
      </trkpt>
      <trkpt lat="49.50444" lon="3.63886">
        <ele>184.56</ele>
        <time>2021-08-22T09:38:26.000Z</time>
      </trkpt>
      <trkpt lat="49.50449" lon="3.63907">
        <ele>183.95</ele>
        <time>2021-08-22T09:38:36.000Z</time>
      </trkpt>
      <trkpt lat="49.50459" lon="3.63927">
        <ele>183.18</ele>
        <time>2021-08-22T09:38:47.000Z</time>
      </trkpt>
      <trkpt lat="49.50474" lon="3.63945">
        <ele>182.96</ele>
        <time>2021-08-22T09:38:56.697Z</time>
      </trkpt>
      <trkpt lat="49.50485" lon="3.63959">
        <ele>184.62</ele>
        <time>2021-08-22T09:39:05.817Z</time>
      </trkpt>
      <trkpt lat="49.50497" lon="3.63975">
        <ele>186.66</ele>
        <time>2021-08-22T09:39:15.395Z</time>
      </trkpt>
      <trkpt lat="49.50511" lon="3.63989">
        <ele>185.59</ele>
        <time>2021-08-22T09:39:26.000Z</time>
      </trkpt>
      <trkpt lat="49.50523" lon="3.63998">
        <ele>184.36</ele>
        <time>2021-08-22T09:39:35.476Z</time>
      </trkpt>
      <trkpt lat="49.50533" lon="3.64011">
        <ele>180.82</ele>
        <time>2021-08-22T09:39:44.961Z</time>
      </trkpt>
      <trkpt lat="49.50547" lon="3.64016">
        <ele>180.96</ele>
        <time>2021-08-22T09:39:54.576Z</time>
      </trkpt>
      <trkpt lat="49.50558" lon="3.64026">
        <ele>182.93</ele>
        <time>2021-08-22T09:40:03.635Z</time>
      </trkpt>
      <trkpt lat="49.5057" lon="3.64046">
        <ele>184.37</ele>
        <time>2021-08-22T09:40:13.576Z</time>
      </trkpt>
      <trkpt lat="49.50581" lon="3.64063">
        <ele>185.85</ele>
        <time>2021-08-22T09:40:22.795Z</time>
      </trkpt>
      <trkpt lat="49.50591" lon="3.64079">
        <ele>187.76</ele>
        <time>2021-08-22T09:40:32.000Z</time>
      </trkpt>
      <trkpt lat="49.50602" lon="3.64097">
        <ele>189.79</ele>
        <time>2021-08-22T09:40:41.875Z</time>
      </trkpt>
      <trkpt lat="49.50613" lon="3.64106">
        <ele>190.02</ele>
        <time>2021-08-22T09:40:51.415Z</time>
      </trkpt>
      <trkpt lat="49.50622" lon="3.64121">
        <ele>193.07</ele>
        <time>2021-08-22T09:41:00.495Z</time>
      </trkpt>
      <trkpt lat="49.50632" lon="3.64129">
        <ele>192.56</ele>
        <time>2021-08-22T09:41:10.335Z</time>
      </trkpt>
      <trkpt lat="49.50645" lon="3.64137">
        <ele>191.15</ele>
        <time>2021-08-22T09:41:19.715Z</time>
      </trkpt>
      <trkpt lat="49.50658" lon="3.64159">
        <ele>188</ele>
        <time>2021-08-22T09:41:28.875Z</time>
      </trkpt>
      <trkpt lat="49.50665" lon="3.64181">
        <ele>184.69</ele>
        <time>2021-08-22T09:41:37.895Z</time>
      </trkpt>
      <trkpt lat="49.5067" lon="3.64207">
        <ele>183.19</ele>
        <time>2021-08-22T09:41:47.374Z</time>
      </trkpt>
      <trkpt lat="49.50678" lon="3.64227">
        <ele>182.1</ele>
        <time>2021-08-22T09:41:57.000Z</time>
      </trkpt>
      <trkpt lat="49.50692" lon="3.64244">
        <ele>181.44</ele>
        <time>2021-08-22T09:42:06.676Z</time>
      </trkpt>
      <trkpt lat="49.50706" lon="3.64255">
        <ele>182</ele>
        <time>2021-08-22T09:42:16.296Z</time>
      </trkpt>
      <trkpt lat="49.50717" lon="3.64264">
        <ele>181.25</ele>
        <time>2021-08-22T09:42:25.696Z</time>
      </trkpt>
      <trkpt lat="49.50725" lon="3.64257">
        <ele>179.79</ele>
        <time>2021-08-22T09:42:35.000Z</time>
      </trkpt>
      <trkpt lat="49.50715" lon="3.64251">
        <ele>179.14</ele>
        <time>2021-08-22T09:42:45.000Z</time>
      </trkpt>
      <trkpt lat="49.50702" lon="3.64238">
        <ele>178.41</ele>
        <time>2021-08-22T09:42:55.000Z</time>
      </trkpt>
      <trkpt lat="49.50693" lon="3.64217">
        <ele>177.57</ele>
        <time>2021-08-22T09:43:04.676Z</time>
      </trkpt>
      <trkpt lat="49.50687" lon="3.64202">
        <ele>175.85</ele>
        <time>2021-08-22T09:43:14.000Z</time>
      </trkpt>
      <trkpt lat="49.50684" lon="3.64183">
        <ele>175.11</ele>
        <time>2021-08-22T09:43:24.000Z</time>
      </trkpt>
      <trkpt lat="49.50688" lon="3.64159">
        <ele>176.05</ele>
        <time>2021-08-22T09:43:33.255Z</time>
      </trkpt>
      <trkpt lat="49.50692" lon="3.64141">
        <ele>174.12</ele>
        <time>2021-08-22T09:43:42.536Z</time>
      </trkpt>
      <trkpt lat="49.50696" lon="3.64123">
        <ele>174.99</ele>
        <time>2021-08-22T09:43:51.915Z</time>
      </trkpt>
      <trkpt lat="49.50704" lon="3.64111">
        <ele>173.42</ele>
        <time>2021-08-22T09:44:01.675Z</time>
      </trkpt>
      <trkpt lat="49.50718" lon="3.64126">
        <ele>170.4</ele>
        <time>2021-08-22T09:44:11.575Z</time>
      </trkpt>
      <trkpt lat="49.50727" lon="3.64144">
        <ele>166.46</ele>
        <time>2021-08-22T09:44:23.000Z</time>
      </trkpt>
      <trkpt lat="49.50744" lon="3.64142">
        <ele>165.2</ele>
        <time>2021-08-22T09:44:34.000Z</time>
      </trkpt>
      <trkpt lat="49.50757" lon="3.64134">
        <ele>163.65</ele>
        <time>2021-08-22T09:44:45.000Z</time>
      </trkpt>
      <trkpt lat="49.50772" lon="3.64128">
        <ele>164.35</ele>
        <time>2021-08-22T09:44:54.877Z</time>
      </trkpt>
      <trkpt lat="49.50775" lon="3.64119">
        <ele>162.54</ele>
        <time>2021-08-22T09:45:04.556Z</time>
      </trkpt>
      <trkpt lat="49.50773" lon="3.64104">
        <ele>163.8</ele>
        <time>2021-08-22T09:45:15.000Z</time>
      </trkpt>
      <trkpt lat="49.50776" lon="3.64085">
        <ele>165.45</ele>
        <time>2021-08-22T09:45:24.615Z</time>
      </trkpt>
      <trkpt lat="49.50775" lon="3.64064">
        <ele>165.13</ele>
        <time>2021-08-22T09:45:35.000Z</time>
      </trkpt>
      <trkpt lat="49.50773" lon="3.64042">
        <ele>165.92</ele>
        <time>2021-08-22T09:45:44.316Z</time>
      </trkpt>
      <trkpt lat="49.50771" lon="3.64026">
        <ele>165.63</ele>
        <time>2021-08-22T09:45:53.656Z</time>
      </trkpt>
      <trkpt lat="49.50773" lon="3.64015">
        <ele>159.91</ele>
        <time>2021-08-22T09:46:03.096Z</time>
      </trkpt>
      <trkpt lat="49.50797" lon="3.64008">
        <ele>156.85</ele>
        <time>2021-08-22T09:46:12.656Z</time>
      </trkpt>
      <trkpt lat="49.50799" lon="3.63984">
        <ele>153.23</ele>
        <time>2021-08-22T09:46:23.000Z</time>
      </trkpt>
      <trkpt lat="49.50793" lon="3.6395">
        <ele>147.29</ele>
        <time>2021-08-22T09:46:32.636Z</time>
      </trkpt>
      <trkpt lat="49.50786" lon="3.63936">
        <ele>144.87</ele>
        <time>2021-08-22T09:46:42.000Z</time>
      </trkpt>
      <trkpt lat="49.50776" lon="3.63919">
        <ele>140.84</ele>
        <time>2021-08-22T09:46:52.000Z</time>
      </trkpt>
      <trkpt lat="49.50766" lon="3.63899">
        <ele>139.21</ele>
        <time>2021-08-22T09:47:02.000Z</time>
      </trkpt>
      <trkpt lat="49.50756" lon="3.63877">
        <ele>136.08</ele>
        <time>2021-08-22T09:47:12.000Z</time>
      </trkpt>
      <trkpt lat="49.50751" lon="3.63853">
        <ele>135.46</ele>
        <time>2021-08-22T09:47:22.000Z</time>
      </trkpt>
      <trkpt lat="49.50746" lon="3.63833">
        <ele>133.58</ele>
        <time>2021-08-22T09:47:31.575Z</time>
      </trkpt>
      <trkpt lat="49.50742" lon="3.63812">
        <ele>133.55</ele>
        <time>2021-08-22T09:47:41.000Z</time>
      </trkpt>
      <trkpt lat="49.50739" lon="3.63778">
        <ele>132.27</ele>
        <time>2021-08-22T09:47:50.837Z</time>
      </trkpt>
      <trkpt lat="49.50734" lon="3.63746">
        <ele>131.83</ele>
        <time>2021-08-22T09:48:00.336Z</time>
      </trkpt>
      <trkpt lat="49.50731" lon="3.6372">
        <ele>131.48</ele>
        <time>2021-08-22T09:48:09.555Z</time>
      </trkpt>
      <trkpt lat="49.50732" lon="3.63701">
        <ele>130.56</ele>
        <time>2021-08-22T09:48:19.000Z</time>
      </trkpt>
      <trkpt lat="49.5073" lon="3.63672">
        <ele>130.44</ele>
        <time>2021-08-22T09:48:28.437Z</time>
      </trkpt>
      <trkpt lat="49.5073" lon="3.63649">
        <ele>132.53</ele>
        <time>2021-08-22T09:48:37.515Z</time>
      </trkpt>
      <trkpt lat="49.50732" lon="3.63624">
        <ele>133.28</ele>
        <time>2021-08-22T09:48:46.676Z</time>
      </trkpt>
      <trkpt lat="49.50738" lon="3.63601">
        <ele>133.44</ele>
        <time>2021-08-22T09:48:56.000Z</time>
      </trkpt>
      <trkpt lat="49.50745" lon="3.63568">
        <ele>132.24</ele>
        <time>2021-08-22T09:49:05.535Z</time>
      </trkpt>
      <trkpt lat="49.50752" lon="3.63545">
        <ele>131.36</ele>
        <time>2021-08-22T09:49:15.295Z</time>
      </trkpt>
      <trkpt lat="49.50756" lon="3.63521">
        <ele>131.18</ele>
        <time>2021-08-22T09:49:24.435Z</time>
      </trkpt>
      <trkpt lat="49.50765" lon="3.63496">
        <ele>130.99</ele>
        <time>2021-08-22T09:49:33.936Z</time>
      </trkpt>
      <trkpt lat="49.50772" lon="3.63479">
        <ele>131.23</ele>
        <time>2021-08-22T09:49:43.000Z</time>
      </trkpt>
      <trkpt lat="49.50778" lon="3.63453">
        <ele>132.48</ele>
        <time>2021-08-22T09:49:53.000Z</time>
      </trkpt>
      <trkpt lat="49.50781" lon="3.63434">
        <ele>129.86</ele>
        <time>2021-08-22T09:50:03.000Z</time>
      </trkpt>
      <trkpt lat="49.50786" lon="3.63411">
        <ele>127.84</ele>
        <time>2021-08-22T09:50:14.000Z</time>
      </trkpt>
      <trkpt lat="49.50785" lon="3.63393">
        <ele>126.53</ele>
        <time>2021-08-22T09:50:23.736Z</time>
      </trkpt>
      <trkpt lat="49.50783" lon="3.63378">
        <ele>126.67</ele>
        <time>2021-08-22T09:50:33.416Z</time>
      </trkpt>
      <trkpt lat="49.50779" lon="3.6336">
        <ele>125.92</ele>
        <time>2021-08-22T09:50:43.145Z</time>
      </trkpt>
      <trkpt lat="49.50782" lon="3.63333">
        <ele>122.79</ele>
        <time>2021-08-22T09:50:52.926Z</time>
      </trkpt>
      <trkpt lat="49.50783" lon="3.63307">
        <ele>120.32</ele>
        <time>2021-08-22T09:51:02.346Z</time>
      </trkpt>
      <trkpt lat="49.50779" lon="3.63287">
        <ele>120.46</ele>
        <time>2021-08-22T09:51:12.000Z</time>
      </trkpt>
      <trkpt lat="49.50771" lon="3.63272">
        <ele>117.41</ele>
        <time>2021-08-22T09:51:22.000Z</time>
      </trkpt>
      <trkpt lat="49.50768" lon="3.63256">
        <ele>116.2</ele>
        <time>2021-08-22T09:51:31.006Z</time>
      </trkpt>
      <trkpt lat="49.50766" lon="3.63236">
        <ele>112.98</ele>
        <time>2021-08-22T09:51:41.127Z</time>
      </trkpt>
      <trkpt lat="49.5076" lon="3.63225">
        <ele>110.56</ele>
        <time>2021-08-22T09:51:50.966Z</time>
      </trkpt>
      <trkpt lat="49.50751" lon="3.63216">
        <ele>108.7</ele>
        <time>2021-08-22T09:52:01.000Z</time>
      </trkpt>
      <trkpt lat="49.50747" lon="3.63199">
        <ele>106.96</ele>
        <time>2021-08-22T09:52:10.027Z</time>
      </trkpt>
      <trkpt lat="49.50745" lon="3.63183">
        <ele>107.52</ele>
        <time>2021-08-22T09:52:20.000Z</time>
      </trkpt>
      <trkpt lat="49.50742" lon="3.63161">
        <ele>107.33</ele>
        <time>2021-08-22T09:52:30.126Z</time>
      </trkpt>
      <trkpt lat="49.50735" lon="3.63134">
        <ele>106.74</ele>
        <time>2021-08-22T09:52:39.348Z</time>
      </trkpt>
      <trkpt lat="49.50725" lon="3.63111">
        <ele>104.71</ele>
        <time>2021-08-22T09:52:48.986Z</time>
      </trkpt>
      <trkpt lat="49.50718" lon="3.63088">
        <ele>103.51</ele>
        <time>2021-08-22T09:52:59.000Z</time>
      </trkpt>
      <trkpt lat="49.50714" lon="3.63075">
        <ele>101.05</ele>
        <time>2021-08-22T09:53:09.000Z</time>
      </trkpt>
      <trkpt lat="49.50714" lon="3.63073">
        <ele>99.48</ele>
        <time>2021-08-22T09:53:18.305Z</time>
      </trkpt>
      <trkpt lat="49.50714" lon="3.63065">
        <ele>100.67</ele>
        <time>2021-08-22T09:53:29.000Z</time>
      </trkpt>
      <trkpt lat="49.50709" lon="3.63055">
        <ele>99.12</ele>
        <time>2021-08-22T09:53:38.406Z</time>
      </trkpt>
      <trkpt lat="49.50706" lon="3.63042">
        <ele>99.2</ele>
        <time>2021-08-22T09:53:48.000Z</time>
      </trkpt>
      <trkpt lat="49.50705" lon="3.6302">
        <ele>97.81</ele>
        <time>2021-08-22T09:53:58.000Z</time>
      </trkpt>
      <trkpt lat="49.50702" lon="3.63001">
        <ele>98.65</ele>
        <time>2021-08-22T09:54:07.766Z</time>
      </trkpt>
      <trkpt lat="49.507" lon="3.62982">
        <ele>97.82</ele>
        <time>2021-08-22T09:54:17.326Z</time>
      </trkpt>
      <trkpt lat="49.50698" lon="3.62958">
        <ele>96.19</ele>
        <time>2021-08-22T09:54:27.306Z</time>
      </trkpt>
      <trkpt lat="49.50691" lon="3.62942">
        <ele>96.67</ele>
        <time>2021-08-22T09:54:37.000Z</time>
      </trkpt>
      <trkpt lat="49.50684" lon="3.62925">
        <ele>93.88</ele>
        <time>2021-08-22T09:54:46.246Z</time>
      </trkpt>
      <trkpt lat="49.50677" lon="3.62909">
        <ele>95.87</ele>
        <time>2021-08-22T09:54:56.000Z</time>
      </trkpt>
      <trkpt lat="49.5067" lon="3.62879">
        <ele>95.25</ele>
        <time>2021-08-22T09:55:05.207Z</time>
      </trkpt>
      <trkpt lat="49.5067" lon="3.62843">
        <ele>94.15</ele>
        <time>2021-08-22T09:55:15.366Z</time>
      </trkpt>
      <trkpt lat="49.50672" lon="3.6282">
        <ele>94.67</ele>
        <time>2021-08-22T09:55:25.185Z</time>
      </trkpt>
      <trkpt lat="49.50675" lon="3.62792">
        <ele>97.48</ele>
        <time>2021-08-22T09:55:34.966Z</time>
      </trkpt>
      <trkpt lat="49.5068" lon="3.62765">
        <ele>97.69</ele>
        <time>2021-08-22T09:55:45.000Z</time>
      </trkpt>
      <trkpt lat="49.50686" lon="3.62739">
        <ele>96.15</ele>
        <time>2021-08-22T09:55:54.846Z</time>
      </trkpt>
      <trkpt lat="49.50687" lon="3.62721">
        <ele>94.12</ele>
        <time>2021-08-22T09:56:03.986Z</time>
      </trkpt>
      <trkpt lat="49.50693" lon="3.62704">
        <ele>92.65</ele>
        <time>2021-08-22T09:56:14.000Z</time>
      </trkpt>
      <trkpt lat="49.50706" lon="3.6269">
        <ele>91.48</ele>
        <time>2021-08-22T09:56:23.066Z</time>
      </trkpt>
      <trkpt lat="49.50724" lon="3.62682">
        <ele>89.45</ele>
        <time>2021-08-22T09:56:32.846Z</time>
      </trkpt>
      <trkpt lat="49.50742" lon="3.62669">
        <ele>89.44</ele>
        <time>2021-08-22T09:56:42.445Z</time>
      </trkpt>
      <trkpt lat="49.50759" lon="3.6266">
        <ele>88.81</ele>
        <time>2021-08-22T09:56:52.326Z</time>
      </trkpt>
      <trkpt lat="49.50776" lon="3.62656">
        <ele>86.45</ele>
        <time>2021-08-22T09:57:01.850Z</time>
      </trkpt>
      <trkpt lat="49.50781" lon="3.62636">
        <ele>86.74</ele>
        <time>2021-08-22T09:57:10.925Z</time>
      </trkpt>
      <trkpt lat="49.5079" lon="3.62616">
        <ele>88.13</ele>
        <time>2021-08-22T09:57:20.067Z</time>
      </trkpt>
      <trkpt lat="49.50791" lon="3.62596">
        <ele>88.21</ele>
        <time>2021-08-22T09:57:30.288Z</time>
      </trkpt>
      <trkpt lat="49.5078" lon="3.62579">
        <ele>87.63</ele>
        <time>2021-08-22T09:57:40.306Z</time>
      </trkpt>
      <trkpt lat="49.50773" lon="3.62555">
        <ele>87.39</ele>
        <time>2021-08-22T09:57:50.186Z</time>
      </trkpt>
      <trkpt lat="49.5077" lon="3.62535">
        <ele>87.19</ele>
        <time>2021-08-22T09:58:00.046Z</time>
      </trkpt>
      <trkpt lat="49.50769" lon="3.62513">
        <ele>85.7</ele>
        <time>2021-08-22T09:58:09.966Z</time>
      </trkpt>
      <trkpt lat="49.50768" lon="3.62492">
        <ele>86.79</ele>
        <time>2021-08-22T09:58:19.086Z</time>
      </trkpt>
      <trkpt lat="49.50765" lon="3.62462">
        <ele>86.41</ele>
        <time>2021-08-22T09:58:28.087Z</time>
      </trkpt>
      <trkpt lat="49.50771" lon="3.62444">
        <ele>87.59</ele>
        <time>2021-08-22T09:58:37.388Z</time>
      </trkpt>
      <trkpt lat="49.50784" lon="3.6243">
        <ele>84.29</ele>
        <time>2021-08-22T09:58:47.006Z</time>
      </trkpt>
      <trkpt lat="49.50797" lon="3.62415">
        <ele>84.28</ele>
        <time>2021-08-22T09:58:56.086Z</time>
      </trkpt>
      <trkpt lat="49.50811" lon="3.62395">
        <ele>84.26</ele>
        <time>2021-08-22T09:59:06.000Z</time>
      </trkpt>
      <trkpt lat="49.50819" lon="3.62374">
        <ele>84.18</ele>
        <time>2021-08-22T09:59:16.000Z</time>
      </trkpt>
      <trkpt lat="49.50827" lon="3.62352">
        <ele>84.22</ele>
        <time>2021-08-22T09:59:25.346Z</time>
      </trkpt>
      <trkpt lat="49.50833" lon="3.62339">
        <ele>84.14</ele>
        <time>2021-08-22T09:59:34.406Z</time>
      </trkpt>
      <trkpt lat="49.50842" lon="3.62325">
        <ele>84.18</ele>
        <time>2021-08-22T09:59:44.127Z</time>
      </trkpt>
      <trkpt lat="49.50852" lon="3.62309">
        <ele>85.72</ele>
        <time>2021-08-22T09:59:53.966Z</time>
      </trkpt>
      <trkpt lat="49.50858" lon="3.6229">
        <ele>87.34</ele>
        <time>2021-08-22T10:00:03.000Z</time>
      </trkpt>
      <trkpt lat="49.50867" lon="3.62268">
        <ele>85.74</ele>
        <time>2021-08-22T10:00:13.268Z</time>
      </trkpt>
      <trkpt lat="49.50881" lon="3.62244">
        <ele>84.27</ele>
        <time>2021-08-22T10:00:23.367Z</time>
      </trkpt>
      <trkpt lat="49.50892" lon="3.62223">
        <ele>85.34</ele>
        <time>2021-08-22T10:00:33.225Z</time>
      </trkpt>
      <trkpt lat="49.50899" lon="3.622">
        <ele>85.39</ele>
        <time>2021-08-22T10:00:43.000Z</time>
      </trkpt>
      <trkpt lat="49.50905" lon="3.62185">
        <ele>83.81</ele>
        <time>2021-08-22T10:00:52.145Z</time>
      </trkpt>
      <trkpt lat="49.50914" lon="3.62166">
        <ele>84.67</ele>
        <time>2021-08-22T10:01:02.166Z</time>
      </trkpt>
      <trkpt lat="49.50924" lon="3.62144">
        <ele>86.29</ele>
        <time>2021-08-22T10:01:12.000Z</time>
      </trkpt>
      <trkpt lat="49.50933" lon="3.6212">
        <ele>84.59</ele>
        <time>2021-08-22T10:01:21.386Z</time>
      </trkpt>
      <trkpt lat="49.50937" lon="3.621">
        <ele>85.73</ele>
        <time>2021-08-22T10:01:30.966Z</time>
      </trkpt>
      <trkpt lat="49.50943" lon="3.62075">
        <ele>84.59</ele>
        <time>2021-08-22T10:01:41.026Z</time>
      </trkpt>
      <trkpt lat="49.50952" lon="3.62056">
        <ele>83.04</ele>
        <time>2021-08-22T10:01:50.427Z</time>
      </trkpt>
      <trkpt lat="49.50965" lon="3.62038">
        <ele>82.88</ele>
        <time>2021-08-22T10:02:00.246Z</time>
      </trkpt>
      <trkpt lat="49.50975" lon="3.62017">
        <ele>82.76</ele>
        <time>2021-08-22T10:02:09.886Z</time>
      </trkpt>
      <trkpt lat="49.50986" lon="3.62004">
        <ele>83.11</ele>
        <time>2021-08-22T10:02:19.246Z</time>
      </trkpt>
      <trkpt lat="49.51" lon="3.61981">
        <ele>84.11</ele>
        <time>2021-08-22T10:02:30.000Z</time>
      </trkpt>
      <trkpt lat="49.51011" lon="3.61969">
        <ele>84.22</ele>
        <time>2021-08-22T10:02:39.166Z</time>
      </trkpt>
      <trkpt lat="49.51021" lon="3.61956">
        <ele>84.05</ele>
        <time>2021-08-22T10:02:48.306Z</time>
      </trkpt>
      <trkpt lat="49.51029" lon="3.6194">
        <ele>82.38</ele>
        <time>2021-08-22T10:02:58.000Z</time>
      </trkpt>
      <trkpt lat="49.51042" lon="3.61921">
        <ele>81.46</ele>
        <time>2021-08-22T10:03:07.765Z</time>
      </trkpt>
      <trkpt lat="49.51051" lon="3.61903">
        <ele>81.42</ele>
        <time>2021-08-22T10:03:17.066Z</time>
      </trkpt>
      <trkpt lat="49.51062" lon="3.61881">
        <ele>80.16</ele>
        <time>2021-08-22T10:03:26.417Z</time>
      </trkpt>
      <trkpt lat="49.51074" lon="3.61862">
        <ele>81.27</ele>
        <time>2021-08-22T10:03:36.000Z</time>
      </trkpt>
      <trkpt lat="49.51085" lon="3.61851">
        <ele>80.8</ele>
        <time>2021-08-22T10:03:45.348Z</time>
      </trkpt>
      <trkpt lat="49.51098" lon="3.61833">
        <ele>79.54</ele>
        <time>2021-08-22T10:03:55.347Z</time>
      </trkpt>
      <trkpt lat="49.5111" lon="3.61816">
        <ele>81.16</ele>
        <time>2021-08-22T10:04:04.448Z</time>
      </trkpt>
      <trkpt lat="49.5112" lon="3.618">
        <ele>79.89</ele>
        <time>2021-08-22T10:04:14.447Z</time>
      </trkpt>
      <trkpt lat="49.51131" lon="3.6178">
        <ele>78.47</ele>
        <time>2021-08-22T10:04:24.187Z</time>
      </trkpt>
      <trkpt lat="49.51143" lon="3.61768">
        <ele>80.18</ele>
        <time>2021-08-22T10:04:33.308Z</time>
      </trkpt>
      <trkpt lat="49.51156" lon="3.61756">
        <ele>79.2</ele>
        <time>2021-08-22T10:04:43.328Z</time>
      </trkpt>
      <trkpt lat="49.51174" lon="3.61737">
        <ele>78.55</ele>
        <time>2021-08-22T10:04:53.588Z</time>
      </trkpt>
      <trkpt lat="49.51187" lon="3.61728">
        <ele>79</ele>
        <time>2021-08-22T10:05:03.567Z</time>
      </trkpt>
      <trkpt lat="49.51198" lon="3.61717">
        <ele>77.31</ele>
        <time>2021-08-22T10:05:13.028Z</time>
      </trkpt>
      <trkpt lat="49.51211" lon="3.61703">
        <ele>78.93</ele>
        <time>2021-08-22T10:05:22.528Z</time>
      </trkpt>
      <trkpt lat="49.51225" lon="3.61689">
        <ele>79.55</ele>
        <time>2021-08-22T10:05:32.128Z</time>
      </trkpt>
      <trkpt lat="49.51243" lon="3.61673">
        <ele>79.24</ele>
        <time>2021-08-22T10:05:41.487Z</time>
      </trkpt>
      <trkpt lat="49.51257" lon="3.61661">
        <ele>81.2</ele>
        <time>2021-08-22T10:05:50.647Z</time>
      </trkpt>
      <trkpt lat="49.51271" lon="3.61655">
        <ele>81.58</ele>
        <time>2021-08-22T10:06:01.000Z</time>
      </trkpt>
      <trkpt lat="49.51284" lon="3.61643">
        <ele>81.85</ele>
        <time>2021-08-22T10:06:10.107Z</time>
      </trkpt>
      <trkpt lat="49.513" lon="3.61637">
        <ele>83.54</ele>
        <time>2021-08-22T10:06:19.448Z</time>
      </trkpt>
      <trkpt lat="49.51315" lon="3.61621">
        <ele>83.28</ele>
        <time>2021-08-22T10:06:29.000Z</time>
      </trkpt>
      <trkpt lat="49.51335" lon="3.6162">
        <ele>83.69</ele>
        <time>2021-08-22T10:06:38.588Z</time>
      </trkpt>
      <trkpt lat="49.51348" lon="3.61617">
        <ele>83.59</ele>
        <time>2021-08-22T10:06:48.609Z</time>
      </trkpt>
      <trkpt lat="49.51363" lon="3.61605">
        <ele>82.86</ele>
        <time>2021-08-22T10:06:58.568Z</time>
      </trkpt>
      <trkpt lat="49.51386" lon="3.61587">
        <ele>83.9</ele>
        <time>2021-08-22T10:07:07.607Z</time>
      </trkpt>
      <trkpt lat="49.51399" lon="3.61577">
        <ele>83.95</ele>
        <time>2021-08-22T10:07:17.548Z</time>
      </trkpt>
      <trkpt lat="49.5141" lon="3.61569">
        <ele>83.38</ele>
        <time>2021-08-22T10:07:26.867Z</time>
      </trkpt>
      <trkpt lat="49.51425" lon="3.61554">
        <ele>83.33</ele>
        <time>2021-08-22T10:07:36.227Z</time>
      </trkpt>
      <trkpt lat="49.51441" lon="3.61545">
        <ele>83.07</ele>
        <time>2021-08-22T10:07:46.000Z</time>
      </trkpt>
      <trkpt lat="49.51457" lon="3.61545">
        <ele>82.29</ele>
        <time>2021-08-22T10:07:55.248Z</time>
      </trkpt>
      <trkpt lat="49.51469" lon="3.61546">
        <ele>83.37</ele>
        <time>2021-08-22T10:08:04.328Z</time>
      </trkpt>
      <trkpt lat="49.51482" lon="3.61543">
        <ele>81.96</ele>
        <time>2021-08-22T10:08:14.000Z</time>
      </trkpt>
      <trkpt lat="49.51499" lon="3.61545">
        <ele>81.53</ele>
        <time>2021-08-22T10:08:23.388Z</time>
      </trkpt>
      <trkpt lat="49.51516" lon="3.61548">
        <ele>81.72</ele>
        <time>2021-08-22T10:08:33.088Z</time>
      </trkpt>
      <trkpt lat="49.51534" lon="3.61543">
        <ele>79.92</ele>
        <time>2021-08-22T10:08:42.648Z</time>
      </trkpt>
      <trkpt lat="49.51555" lon="3.61546">
        <ele>79.87</ele>
        <time>2021-08-22T10:08:52.488Z</time>
      </trkpt>
      <trkpt lat="49.51575" lon="3.61548">
        <ele>79.55</ele>
        <time>2021-08-22T10:09:01.528Z</time>
      </trkpt>
      <trkpt lat="49.51587" lon="3.61549">
        <ele>79.15</ele>
        <time>2021-08-22T10:09:11.000Z</time>
      </trkpt>
      <trkpt lat="49.51598" lon="3.61552">
        <ele>78.36</ele>
        <time>2021-08-22T10:09:20.348Z</time>
      </trkpt>
      <trkpt lat="49.51609" lon="3.6155">
        <ele>77.81</ele>
        <time>2021-08-22T10:09:29.408Z</time>
      </trkpt>
      <trkpt lat="49.51624" lon="3.61553">
        <ele>75.66</ele>
        <time>2021-08-22T10:09:38.528Z</time>
      </trkpt>
      <trkpt lat="49.5164" lon="3.61556">
        <ele>73.51</ele>
        <time>2021-08-22T10:09:48.087Z</time>
      </trkpt>
      <trkpt lat="49.51653" lon="3.61562">
        <ele>71.83</ele>
        <time>2021-08-22T10:09:57.290Z</time>
      </trkpt>
      <trkpt lat="49.51669" lon="3.61569">
        <ele>71.63</ele>
        <time>2021-08-22T10:10:07.000Z</time>
      </trkpt>
      <trkpt lat="49.51686" lon="3.61571">
        <ele>71.1</ele>
        <time>2021-08-22T10:10:16.730Z</time>
      </trkpt>
      <trkpt lat="49.51703" lon="3.61581">
        <ele>71.1</ele>
        <time>2021-08-22T10:10:26.067Z</time>
      </trkpt>
      <trkpt lat="49.51723" lon="3.61593">
        <ele>70.73</ele>
        <time>2021-08-22T10:10:35.347Z</time>
      </trkpt>
      <trkpt lat="49.51743" lon="3.61602">
        <ele>70.71</ele>
        <time>2021-08-22T10:10:45.248Z</time>
      </trkpt>
      <trkpt lat="49.51754" lon="3.61605">
        <ele>69.55</ele>
        <time>2021-08-22T10:10:54.428Z</time>
      </trkpt>
      <trkpt lat="49.51768" lon="3.61607">
        <ele>68.12</ele>
        <time>2021-08-22T10:11:03.529Z</time>
      </trkpt>
      <trkpt lat="49.51783" lon="3.6161">
        <ele>67.1</ele>
        <time>2021-08-22T10:11:13.000Z</time>
      </trkpt>
      <trkpt lat="49.51798" lon="3.61607">
        <ele>66.76</ele>
        <time>2021-08-22T10:11:22.755Z</time>
      </trkpt>
      <trkpt lat="49.5181" lon="3.61603">
        <ele>67.62</ele>
        <time>2021-08-22T10:11:31.878Z</time>
      </trkpt>
      <trkpt lat="49.51824" lon="3.61602">
        <ele>69.91</ele>
        <time>2021-08-22T10:11:41.349Z</time>
      </trkpt>
      <trkpt lat="49.51837" lon="3.616">
        <ele>69.93</ele>
        <time>2021-08-22T10:11:50.468Z</time>
      </trkpt>
      <trkpt lat="49.51853" lon="3.61591">
        <ele>71</ele>
        <time>2021-08-22T10:12:00.148Z</time>
      </trkpt>
      <trkpt lat="49.51867" lon="3.61588">
        <ele>73.48</ele>
        <time>2021-08-22T10:12:09.868Z</time>
      </trkpt>
      <trkpt lat="49.51883" lon="3.61593">
        <ele>74.29</ele>
        <time>2021-08-22T10:12:19.447Z</time>
      </trkpt>
      <trkpt lat="49.51895" lon="3.61603">
        <ele>72.85</ele>
        <time>2021-08-22T10:12:28.667Z</time>
      </trkpt>
      <trkpt lat="49.5191" lon="3.61611">
        <ele>73.83</ele>
        <time>2021-08-22T10:12:38.388Z</time>
      </trkpt>
      <trkpt lat="49.51924" lon="3.6162">
        <ele>72.07</ele>
        <time>2021-08-22T10:12:48.000Z</time>
      </trkpt>
      <trkpt lat="49.51937" lon="3.61633">
        <ele>73.46</ele>
        <time>2021-08-22T10:12:57.727Z</time>
      </trkpt>
      <trkpt lat="49.5195" lon="3.61644">
        <ele>74.34</ele>
        <time>2021-08-22T10:13:08.000Z</time>
      </trkpt>
      <trkpt lat="49.51968" lon="3.61664">
        <ele>73.98</ele>
        <time>2021-08-22T10:13:17.708Z</time>
      </trkpt>
      <trkpt lat="49.51977" lon="3.61684">
        <ele>74.34</ele>
        <time>2021-08-22T10:13:26.886Z</time>
      </trkpt>
      <trkpt lat="49.51984" lon="3.61699">
        <ele>73.54</ele>
        <time>2021-08-22T10:13:36.000Z</time>
      </trkpt>
      <trkpt lat="49.51995" lon="3.61711">
        <ele>73.51</ele>
        <time>2021-08-22T10:13:45.487Z</time>
      </trkpt>
      <trkpt lat="49.52007" lon="3.61724">
        <ele>70.24</ele>
        <time>2021-08-22T10:13:55.467Z</time>
      </trkpt>
      <trkpt lat="49.52018" lon="3.61739">
        <ele>69.38</ele>
        <time>2021-08-22T10:14:04.679Z</time>
      </trkpt>
      <trkpt lat="49.52034" lon="3.61747">
        <ele>69.9</ele>
        <time>2021-08-22T10:14:13.719Z</time>
      </trkpt>
      <trkpt lat="49.52043" lon="3.61762">
        <ele>69.68</ele>
        <time>2021-08-22T10:14:23.000Z</time>
      </trkpt>
      <trkpt lat="49.52055" lon="3.61772">
        <ele>69.29</ele>
        <time>2021-08-22T10:14:32.178Z</time>
      </trkpt>
      <trkpt lat="49.52071" lon="3.61784">
        <ele>71.92</ele>
        <time>2021-08-22T10:14:43.000Z</time>
      </trkpt>
      <trkpt lat="49.52088" lon="3.6179">
        <ele>71.13</ele>
        <time>2021-08-22T10:14:53.000Z</time>
      </trkpt>
      <trkpt lat="49.52102" lon="3.61781">
        <ele>72.59</ele>
        <time>2021-08-22T10:15:02.438Z</time>
      </trkpt>
      <trkpt lat="49.52115" lon="3.61771">
        <ele>73.46</ele>
        <time>2021-08-22T10:15:11.738Z</time>
      </trkpt>
      <trkpt lat="49.52126" lon="3.61766">
        <ele>75.25</ele>
        <time>2021-08-22T10:15:21.000Z</time>
      </trkpt>
      <trkpt lat="49.52142" lon="3.6175">
        <ele>74.53</ele>
        <time>2021-08-22T10:15:30.557Z</time>
      </trkpt>
      <trkpt lat="49.52152" lon="3.61743">
        <ele>74.63</ele>
        <time>2021-08-22T10:15:40.000Z</time>
      </trkpt>
      <trkpt lat="49.52166" lon="3.61734">
        <ele>76.55</ele>
        <time>2021-08-22T10:15:49.118Z</time>
      </trkpt>
      <trkpt lat="49.52179" lon="3.61721">
        <ele>76.36</ele>
        <time>2021-08-22T10:15:58.398Z</time>
      </trkpt>
      <trkpt lat="49.52194" lon="3.61714">
        <ele>76.4</ele>
        <time>2021-08-22T10:16:08.338Z</time>
      </trkpt>
      <trkpt lat="49.5221" lon="3.61706">
        <ele>77.32</ele>
        <time>2021-08-22T10:16:19.000Z</time>
      </trkpt>
      <trkpt lat="49.52228" lon="3.61702">
        <ele>77.75</ele>
        <time>2021-08-22T10:16:28.198Z</time>
      </trkpt>
      <trkpt lat="49.52241" lon="3.617">
        <ele>76.11</ele>
        <time>2021-08-22T10:16:38.278Z</time>
      </trkpt>
      <trkpt lat="49.52254" lon="3.61703">
        <ele>74.8</ele>
        <time>2021-08-22T10:16:48.177Z</time>
      </trkpt>
      <trkpt lat="49.52269" lon="3.61702">
        <ele>73.7</ele>
        <time>2021-08-22T10:16:57.318Z</time>
      </trkpt>
      <trkpt lat="49.52283" lon="3.61699">
        <ele>73.7</ele>
        <time>2021-08-22T10:17:06.477Z</time>
      </trkpt>
      <trkpt lat="49.52296" lon="3.61698">
        <ele>74.92</ele>
        <time>2021-08-22T10:17:15.577Z</time>
      </trkpt>
      <trkpt lat="49.52307" lon="3.61692">
        <ele>74.47</ele>
        <time>2021-08-22T10:17:24.598Z</time>
      </trkpt>
      <trkpt lat="49.52318" lon="3.61686">
        <ele>73.85</ele>
        <time>2021-08-22T10:17:34.000Z</time>
      </trkpt>
      <trkpt lat="49.52342" lon="3.61694">
        <ele>74.68</ele>
        <time>2021-08-22T10:17:44.000Z</time>
      </trkpt>
      <trkpt lat="49.52362" lon="3.61707">
        <ele>75.12</ele>
        <time>2021-08-22T10:17:53.438Z</time>
      </trkpt>
      <trkpt lat="49.52373" lon="3.61721">
        <ele>73.31</ele>
        <time>2021-08-22T10:18:03.000Z</time>
      </trkpt>
      <trkpt lat="49.52389" lon="3.61736">
        <ele>72</ele>
        <time>2021-08-22T10:18:12.358Z</time>
      </trkpt>
      <trkpt lat="49.52408" lon="3.61747">
        <ele>71.79</ele>
        <time>2021-08-22T10:18:23.000Z</time>
      </trkpt>
      <trkpt lat="49.52421" lon="3.61759">
        <ele>70.43</ele>
        <time>2021-08-22T10:18:32.217Z</time>
      </trkpt>
      <trkpt lat="49.52438" lon="3.61767">
        <ele>70.89</ele>
        <time>2021-08-22T10:18:41.803Z</time>
      </trkpt>
      <trkpt lat="49.52453" lon="3.61767">
        <ele>71.05</ele>
        <time>2021-08-22T10:18:51.797Z</time>
      </trkpt>
      <trkpt lat="49.52468" lon="3.61764">
        <ele>68.6</ele>
        <time>2021-08-22T10:19:01.497Z</time>
      </trkpt>
      <trkpt lat="49.52486" lon="3.61762">
        <ele>70.27</ele>
        <time>2021-08-22T10:19:11.478Z</time>
      </trkpt>
      <trkpt lat="49.52499" lon="3.61757">
        <ele>69.52</ele>
        <time>2021-08-22T10:19:21.000Z</time>
      </trkpt>
      <trkpt lat="49.52518" lon="3.61749">
        <ele>71.04</ele>
        <time>2021-08-22T10:19:30.777Z</time>
      </trkpt>
      <trkpt lat="49.52533" lon="3.61747">
        <ele>71.72</ele>
        <time>2021-08-22T10:19:41.000Z</time>
      </trkpt>
      <trkpt lat="49.52546" lon="3.61743">
        <ele>72.68</ele>
        <time>2021-08-22T10:19:51.000Z</time>
      </trkpt>
      <trkpt lat="49.52561" lon="3.61737">
        <ele>72.43</ele>
        <time>2021-08-22T10:20:00.277Z</time>
      </trkpt>
      <trkpt lat="49.52574" lon="3.61734">
        <ele>71.15</ele>
        <time>2021-08-22T10:20:09.338Z</time>
      </trkpt>
      <trkpt lat="49.5259" lon="3.61728">
        <ele>70.77</ele>
        <time>2021-08-22T10:20:20.000Z</time>
      </trkpt>
      <trkpt lat="49.52604" lon="3.61721">
        <ele>71.85</ele>
        <time>2021-08-22T10:20:30.000Z</time>
      </trkpt>
      <trkpt lat="49.52617" lon="3.6171">
        <ele>72.94</ele>
        <time>2021-08-22T10:20:40.000Z</time>
      </trkpt>
      <trkpt lat="49.5263" lon="3.61693">
        <ele>72.68</ele>
        <time>2021-08-22T10:20:50.000Z</time>
      </trkpt>
      <trkpt lat="49.52642" lon="3.61674">
        <ele>74.09</ele>
        <time>2021-08-22T10:21:00.000Z</time>
      </trkpt>
      <trkpt lat="49.52656" lon="3.61662">
        <ele>74.87</ele>
        <time>2021-08-22T10:21:10.000Z</time>
      </trkpt>
      <trkpt lat="49.52673" lon="3.61648">
        <ele>74.4</ele>
        <time>2021-08-22T10:21:19.358Z</time>
      </trkpt>
      <trkpt lat="49.52685" lon="3.61641">
        <ele>74.33</ele>
        <time>2021-08-22T10:21:29.298Z</time>
      </trkpt>
      <trkpt lat="49.52697" lon="3.61635">
        <ele>73.83</ele>
        <time>2021-08-22T10:21:38.558Z</time>
      </trkpt>
      <trkpt lat="49.52709" lon="3.61627">
        <ele>74.28</ele>
        <time>2021-08-22T10:21:48.118Z</time>
      </trkpt>
      <trkpt lat="49.52723" lon="3.61619">
        <ele>74.68</ele>
        <time>2021-08-22T10:21:57.418Z</time>
      </trkpt>
      <trkpt lat="49.52737" lon="3.61609">
        <ele>75.58</ele>
        <time>2021-08-22T10:22:06.718Z</time>
      </trkpt>
      <trkpt lat="49.52752" lon="3.61603">
        <ele>74.74</ele>
        <time>2021-08-22T10:22:16.137Z</time>
      </trkpt>
      <trkpt lat="49.52764" lon="3.61596">
        <ele>75.29</ele>
        <time>2021-08-22T10:22:26.000Z</time>
      </trkpt>
      <trkpt lat="49.52779" lon="3.61588">
        <ele>74.59</ele>
        <time>2021-08-22T10:22:35.076Z</time>
      </trkpt>
      <trkpt lat="49.52793" lon="3.61581">
        <ele>73.97</ele>
        <time>2021-08-22T10:22:44.558Z</time>
      </trkpt>
      <trkpt lat="49.52807" lon="3.61572">
        <ele>73.23</ele>
        <time>2021-08-22T10:22:53.758Z</time>
      </trkpt>
      <trkpt lat="49.52821" lon="3.61565">
        <ele>73.88</ele>
        <time>2021-08-22T10:23:03.138Z</time>
      </trkpt>
      <trkpt lat="49.52832" lon="3.61557">
        <ele>75.08</ele>
        <time>2021-08-22T10:23:12.458Z</time>
      </trkpt>
      <trkpt lat="49.52847" lon="3.61552">
        <ele>74.06</ele>
        <time>2021-08-22T10:23:22.578Z</time>
      </trkpt>
      <trkpt lat="49.52859" lon="3.61543">
        <ele>73.62</ele>
        <time>2021-08-22T10:23:32.000Z</time>
      </trkpt>
      <trkpt lat="49.52873" lon="3.61536">
        <ele>72.32</ele>
        <time>2021-08-22T10:23:41.117Z</time>
      </trkpt>
      <trkpt lat="49.52887" lon="3.61529">
        <ele>72.89</ele>
        <time>2021-08-22T10:23:52.000Z</time>
      </trkpt>
      <trkpt lat="49.52905" lon="3.6152">
        <ele>72.1</ele>
        <time>2021-08-22T10:24:01.457Z</time>
      </trkpt>
      <trkpt lat="49.52919" lon="3.61517">
        <ele>71.27</ele>
        <time>2021-08-22T10:24:11.158Z</time>
      </trkpt>
      <trkpt lat="49.52938" lon="3.61506">
        <ele>72.01</ele>
        <time>2021-08-22T10:24:20.178Z</time>
      </trkpt>
      <trkpt lat="49.5295" lon="3.61497">
        <ele>71.73</ele>
        <time>2021-08-22T10:24:30.000Z</time>
      </trkpt>
      <trkpt lat="49.52961" lon="3.61486">
        <ele>71.4</ele>
        <time>2021-08-22T10:24:39.658Z</time>
      </trkpt>
      <trkpt lat="49.5297" lon="3.61473">
        <ele>71.38</ele>
        <time>2021-08-22T10:24:50.000Z</time>
      </trkpt>
      <trkpt lat="49.52978" lon="3.61451">
        <ele>71.47</ele>
        <time>2021-08-22T10:24:59.358Z</time>
      </trkpt>
      <trkpt lat="49.52987" lon="3.61434">
        <ele>70.11</ele>
        <time>2021-08-22T10:25:09.000Z</time>
      </trkpt>
      <trkpt lat="49.52996" lon="3.61412">
        <ele>70.34</ele>
        <time>2021-08-22T10:25:18.358Z</time>
      </trkpt>
      <trkpt lat="49.53004" lon="3.61391">
        <ele>70.18</ele>
        <time>2021-08-22T10:25:27.869Z</time>
      </trkpt>
      <trkpt lat="49.53011" lon="3.61377">
        <ele>70.34</ele>
        <time>2021-08-22T10:25:37.000Z</time>
      </trkpt>
      <trkpt lat="49.53024" lon="3.61354">
        <ele>70.7</ele>
        <time>2021-08-22T10:25:46.677Z</time>
      </trkpt>
      <trkpt lat="49.53035" lon="3.61337">
        <ele>70.49</ele>
        <time>2021-08-22T10:25:56.418Z</time>
      </trkpt>
      <trkpt lat="49.53044" lon="3.61321">
        <ele>71.17</ele>
        <time>2021-08-22T10:26:06.000Z</time>
      </trkpt>
      <trkpt lat="49.53054" lon="3.61301">
        <ele>70.58</ele>
        <time>2021-08-22T10:26:16.000Z</time>
      </trkpt>
      <trkpt lat="49.53063" lon="3.61276">
        <ele>71.05</ele>
        <time>2021-08-22T10:26:25.559Z</time>
      </trkpt>
      <trkpt lat="49.53072" lon="3.61263">
        <ele>70.02</ele>
        <time>2021-08-22T10:26:35.000Z</time>
      </trkpt>
      <trkpt lat="49.53079" lon="3.61239">
        <ele>69.93</ele>
        <time>2021-08-22T10:26:44.478Z</time>
      </trkpt>
      <trkpt lat="49.53084" lon="3.61223">
        <ele>70.41</ele>
        <time>2021-08-22T10:26:53.737Z</time>
      </trkpt>
      <trkpt lat="49.53095" lon="3.61206">
        <ele>69.35</ele>
        <time>2021-08-22T10:27:02.778Z</time>
      </trkpt>
      <trkpt lat="49.53109" lon="3.6118">
        <ele>70.08</ele>
        <time>2021-08-22T10:27:12.517Z</time>
      </trkpt>
      <trkpt lat="49.53119" lon="3.61168">
        <ele>69.58</ele>
        <time>2021-08-22T10:27:22.000Z</time>
      </trkpt>
      <trkpt lat="49.53134" lon="3.6115">
        <ele>70.96</ele>
        <time>2021-08-22T10:27:31.318Z</time>
      </trkpt>
      <trkpt lat="49.5315" lon="3.61135">
        <ele>71.43</ele>
        <time>2021-08-22T10:27:41.459Z</time>
      </trkpt>
      <trkpt lat="49.53162" lon="3.61125">
        <ele>71.65</ele>
        <time>2021-08-22T10:27:50.678Z</time>
      </trkpt>
      <trkpt lat="49.53171" lon="3.61114">
        <ele>71.22</ele>
        <time>2021-08-22T10:28:00.000Z</time>
      </trkpt>
      <trkpt lat="49.53184" lon="3.61102">
        <ele>71.89</ele>
        <time>2021-08-22T10:28:11.000Z</time>
      </trkpt>
      <trkpt lat="49.53198" lon="3.61084">
        <ele>72.51</ele>
        <time>2021-08-22T10:28:20.577Z</time>
      </trkpt>
      <trkpt lat="49.5321" lon="3.61067">
        <ele>72.36</ele>
        <time>2021-08-22T10:28:30.498Z</time>
      </trkpt>
      <trkpt lat="49.53222" lon="3.61055">
        <ele>72.65</ele>
        <time>2021-08-22T10:28:40.000Z</time>
      </trkpt>
      <trkpt lat="49.53238" lon="3.6104">
        <ele>72.36</ele>
        <time>2021-08-22T10:28:49.558Z</time>
      </trkpt>
      <trkpt lat="49.53248" lon="3.61027">
        <ele>71.55</ele>
        <time>2021-08-22T10:28:59.000Z</time>
      </trkpt>
      <trkpt lat="49.53262" lon="3.61012">
        <ele>72.73</ele>
        <time>2021-08-22T10:29:08.100Z</time>
      </trkpt>
      <trkpt lat="49.53274" lon="3.61">
        <ele>73.89</ele>
        <time>2021-08-22T10:29:17.517Z</time>
      </trkpt>
      <trkpt lat="49.53286" lon="3.60987">
        <ele>71.7</ele>
        <time>2021-08-22T10:29:27.058Z</time>
      </trkpt>
      <trkpt lat="49.53297" lon="3.60971">
        <ele>71.69</ele>
        <time>2021-08-22T10:29:36.259Z</time>
      </trkpt>
      <trkpt lat="49.53309" lon="3.60956">
        <ele>71.47</ele>
        <time>2021-08-22T10:29:45.801Z</time>
      </trkpt>
      <trkpt lat="49.53319" lon="3.60941">
        <ele>73.07</ele>
        <time>2021-08-22T10:29:55.000Z</time>
      </trkpt>
      <trkpt lat="49.53332" lon="3.60923">
        <ele>73.46</ele>
        <time>2021-08-22T10:30:04.577Z</time>
      </trkpt>
      <trkpt lat="49.53342" lon="3.60912">
        <ele>73.39</ele>
        <time>2021-08-22T10:30:14.000Z</time>
      </trkpt>
      <trkpt lat="49.53355" lon="3.609">
        <ele>73</ele>
        <time>2021-08-22T10:30:23.178Z</time>
      </trkpt>
      <trkpt lat="49.53365" lon="3.60892">
        <ele>71.72</ele>
        <time>2021-08-22T10:30:33.000Z</time>
      </trkpt>
      <trkpt lat="49.53378" lon="3.60884">
        <ele>73.97</ele>
        <time>2021-08-22T10:30:42.198Z</time>
      </trkpt>
      <trkpt lat="49.53392" lon="3.60876">
        <ele>71.91</ele>
        <time>2021-08-22T10:30:51.578Z</time>
      </trkpt>
      <trkpt lat="49.53405" lon="3.60869">
        <ele>72.64</ele>
        <time>2021-08-22T10:31:01.257Z</time>
      </trkpt>
      <trkpt lat="49.53424" lon="3.6086">
        <ele>73.95</ele>
        <time>2021-08-22T10:31:10.718Z</time>
      </trkpt>
      <trkpt lat="49.53438" lon="3.60853">
        <ele>72.21</ele>
        <time>2021-08-22T10:31:20.000Z</time>
      </trkpt>
      <trkpt lat="49.53451" lon="3.60847">
        <ele>73.81</ele>
        <time>2021-08-22T10:31:29.518Z</time>
      </trkpt>
      <trkpt lat="49.53463" lon="3.60838">
        <ele>73.07</ele>
        <time>2021-08-22T10:31:39.239Z</time>
      </trkpt>
      <trkpt lat="49.53476" lon="3.60828">
        <ele>73.38</ele>
        <time>2021-08-22T10:31:48.558Z</time>
      </trkpt>
      <trkpt lat="49.53489" lon="3.60819">
        <ele>73.79</ele>
        <time>2021-08-22T10:31:59.000Z</time>
      </trkpt>
      <trkpt lat="49.53504" lon="3.60806">
        <ele>73.91</ele>
        <time>2021-08-22T10:32:08.598Z</time>
      </trkpt>
      <trkpt lat="49.53518" lon="3.60796">
        <ele>74.8</ele>
        <time>2021-08-22T10:32:17.738Z</time>
      </trkpt>
      <trkpt lat="49.5353" lon="3.60791">
        <ele>75.14</ele>
        <time>2021-08-22T10:32:27.000Z</time>
      </trkpt>
      <trkpt lat="49.53545" lon="3.60785">
        <ele>73.7</ele>
        <time>2021-08-22T10:32:37.000Z</time>
      </trkpt>
      <trkpt lat="49.5356" lon="3.60784">
        <ele>73.93</ele>
        <time>2021-08-22T10:32:46.638Z</time>
      </trkpt>
      <trkpt lat="49.53573" lon="3.60779">
        <ele>72.86</ele>
        <time>2021-08-22T10:32:56.000Z</time>
      </trkpt>
      <trkpt lat="49.5359" lon="3.60769">
        <ele>72.85</ele>
        <time>2021-08-22T10:33:05.377Z</time>
      </trkpt>
      <trkpt lat="49.53604" lon="3.60761">
        <ele>69.39</ele>
        <time>2021-08-22T10:33:14.638Z</time>
      </trkpt>
      <trkpt lat="49.53619" lon="3.6075">
        <ele>68.46</ele>
        <time>2021-08-22T10:33:24.418Z</time>
      </trkpt>
      <trkpt lat="49.53631" lon="3.60743">
        <ele>70.27</ele>
        <time>2021-08-22T10:33:34.000Z</time>
      </trkpt>
      <trkpt lat="49.53647" lon="3.60735">
        <ele>69.59</ele>
        <time>2021-08-22T10:33:43.518Z</time>
      </trkpt>
      <trkpt lat="49.5366" lon="3.60726">
        <ele>69.62</ele>
        <time>2021-08-22T10:33:54.000Z</time>
      </trkpt>
      <trkpt lat="49.53676" lon="3.60714">
        <ele>70.34</ele>
        <time>2021-08-22T10:34:03.638Z</time>
      </trkpt>
      <trkpt lat="49.53687" lon="3.60708">
        <ele>71.46</ele>
        <time>2021-08-22T10:34:13.438Z</time>
      </trkpt>
      <trkpt lat="49.53698" lon="3.607">
        <ele>72.08</ele>
        <time>2021-08-22T10:34:22.677Z</time>
      </trkpt>
      <trkpt lat="49.53708" lon="3.60689">
        <ele>72.13</ele>
        <time>2021-08-22T10:34:32.000Z</time>
      </trkpt>
      <trkpt lat="49.5372" lon="3.60673">
        <ele>73.5</ele>
        <time>2021-08-22T10:34:41.558Z</time>
      </trkpt>
      <trkpt lat="49.53732" lon="3.60658">
        <ele>72.37</ele>
        <time>2021-08-22T10:34:51.000Z</time>
      </trkpt>
      <trkpt lat="49.53745" lon="3.60641">
        <ele>72.02</ele>
        <time>2021-08-22T10:35:00.577Z</time>
      </trkpt>
      <trkpt lat="49.53756" lon="3.60624">
        <ele>73.35</ele>
        <time>2021-08-22T10:35:10.397Z</time>
      </trkpt>
      <trkpt lat="49.53764" lon="3.6061">
        <ele>73.09</ele>
        <time>2021-08-22T10:35:20.000Z</time>
      </trkpt>
      <trkpt lat="49.53777" lon="3.60596">
        <ele>72.19</ele>
        <time>2021-08-22T10:35:29.598Z</time>
      </trkpt>
      <trkpt lat="49.53785" lon="3.60578">
        <ele>72.71</ele>
        <time>2021-08-22T10:35:38.657Z</time>
      </trkpt>
      <trkpt lat="49.53793" lon="3.60566">
        <ele>72.79</ele>
        <time>2021-08-22T10:35:47.737Z</time>
      </trkpt>
      <trkpt lat="49.53803" lon="3.6055">
        <ele>73.38</ele>
        <time>2021-08-22T10:35:57.000Z</time>
      </trkpt>
      <trkpt lat="49.53816" lon="3.6053">
        <ele>73.2</ele>
        <time>2021-08-22T10:36:06.497Z</time>
      </trkpt>
      <trkpt lat="49.53824" lon="3.60514">
        <ele>73.62</ele>
        <time>2021-08-22T10:36:16.000Z</time>
      </trkpt>
      <trkpt lat="49.53834" lon="3.6049">
        <ele>73.57</ele>
        <time>2021-08-22T10:36:25.018Z</time>
      </trkpt>
      <trkpt lat="49.53843" lon="3.60471">
        <ele>73.26</ele>
        <time>2021-08-22T10:36:34.717Z</time>
      </trkpt>
      <trkpt lat="49.53853" lon="3.60455">
        <ele>74.23</ele>
        <time>2021-08-22T10:36:43.996Z</time>
      </trkpt>
      <trkpt lat="49.53863" lon="3.60435">
        <ele>73.77</ele>
        <time>2021-08-22T10:36:53.658Z</time>
      </trkpt>
      <trkpt lat="49.53873" lon="3.60418">
        <ele>73.63</ele>
        <time>2021-08-22T10:37:03.000Z</time>
      </trkpt>
      <trkpt lat="49.5389" lon="3.60403">
        <ele>74.58</ele>
        <time>2021-08-22T10:37:12.558Z</time>
      </trkpt>
      <trkpt lat="49.53904" lon="3.60394">
        <ele>73.64</ele>
        <time>2021-08-22T10:37:21.798Z</time>
      </trkpt>
      <trkpt lat="49.53912" lon="3.60393">
        <ele>74.43</ele>
        <time>2021-08-22T10:37:31.000Z</time>
      </trkpt>
      <trkpt lat="49.53911" lon="3.60401">
        <ele>76.53</ele>
        <time>2021-08-22T10:37:40.557Z</time>
      </trkpt>
      <trkpt lat="49.53911" lon="3.60394">
        <ele>48.83</ele>
        <time>2021-08-22T10:37:50.000Z</time>
      </trkpt>
      <trkpt lat="49.53914" lon="3.6038">
        <ele>48.95</ele>
        <time>2021-08-22T10:37:59.338Z</time>
      </trkpt>
      <trkpt lat="49.53918" lon="3.60357">
        <ele>49.15</ele>
        <time>2021-08-22T10:38:09.138Z</time>
      </trkpt>
      <trkpt lat="49.53921" lon="3.6034">
        <ele>49.25</ele>
        <time>2021-08-22T10:38:20.000Z</time>
      </trkpt>
      <trkpt lat="49.53927" lon="3.60312">
        <ele>49.19</ele>
        <time>2021-08-22T10:38:30.000Z</time>
      </trkpt>
      <trkpt lat="49.53934" lon="3.60282">
        <ele>49.23</ele>
        <time>2021-08-22T10:38:40.000Z</time>
      </trkpt>
      <trkpt lat="49.53937" lon="3.60257">
        <ele>75.63</ele>
        <time>2021-08-22T10:38:49.398Z</time>
      </trkpt>
      <trkpt lat="49.53942" lon="3.60236">
        <ele>74.89</ele>
        <time>2021-08-22T10:38:58.598Z</time>
      </trkpt>
      <trkpt lat="49.53946" lon="3.60223">
        <ele>75.55</ele>
        <time>2021-08-22T10:39:07.618Z</time>
      </trkpt>
      <trkpt lat="49.53952" lon="3.60201">
        <ele>74.3</ele>
        <time>2021-08-22T10:39:17.538Z</time>
      </trkpt>
      <trkpt lat="49.53959" lon="3.60165">
        <ele>74.25</ele>
        <time>2021-08-22T10:39:27.399Z</time>
      </trkpt>
      <trkpt lat="49.53961" lon="3.60149">
        <ele>73.39</ele>
        <time>2021-08-22T10:39:36.577Z</time>
      </trkpt>
      <trkpt lat="49.53963" lon="3.60125">
        <ele>74.34</ele>
        <time>2021-08-22T10:39:46.000Z</time>
      </trkpt>
      <trkpt lat="49.53959" lon="3.60095">
        <ele>73.05</ele>
        <time>2021-08-22T10:39:55.238Z</time>
      </trkpt>
      <trkpt lat="49.53955" lon="3.6008">
        <ele>72.18</ele>
        <time>2021-08-22T10:40:06.000Z</time>
      </trkpt>
      <trkpt lat="49.53949" lon="3.60066">
        <ele>70.78</ele>
        <time>2021-08-22T10:40:15.757Z</time>
      </trkpt>
      <trkpt lat="49.53943" lon="3.60045">
        <ele>69.62</ele>
        <time>2021-08-22T10:40:25.000Z</time>
      </trkpt>
      <trkpt lat="49.53934" lon="3.60022">
        <ele>68.27</ele>
        <time>2021-08-22T10:40:34.538Z</time>
      </trkpt>
      <trkpt lat="49.53926" lon="3.60013">
        <ele>65.63</ele>
        <time>2021-08-22T10:40:43.890Z</time>
      </trkpt>
      <trkpt lat="49.53915" lon="3.60002">
        <ele>64.06</ele>
        <time>2021-08-22T10:40:53.738Z</time>
      </trkpt>
      <trkpt lat="49.53902" lon="3.59993">
        <ele>64.93</ele>
        <time>2021-08-22T10:41:03.338Z</time>
      </trkpt>
      <trkpt lat="49.53883" lon="3.59974">
        <ele>64.45</ele>
        <time>2021-08-22T10:41:13.338Z</time>
      </trkpt>
      <trkpt lat="49.53869" lon="3.5996">
        <ele>64.74</ele>
        <time>2021-08-22T10:41:22.638Z</time>
      </trkpt>
      <trkpt lat="49.53856" lon="3.59946">
        <ele>64.37</ele>
        <time>2021-08-22T10:41:32.078Z</time>
      </trkpt>
      <trkpt lat="49.53848" lon="3.59929">
        <ele>66.02</ele>
        <time>2021-08-22T10:41:41.298Z</time>
      </trkpt>
      <trkpt lat="49.53839" lon="3.59909">
        <ele>66.82</ele>
        <time>2021-08-22T10:41:51.018Z</time>
      </trkpt>
      <trkpt lat="49.53829" lon="3.59896">
        <ele>67.68</ele>
        <time>2021-08-22T10:42:00.438Z</time>
      </trkpt>
      <trkpt lat="49.53823" lon="3.59882">
        <ele>68.53</ele>
        <time>2021-08-22T10:42:10.000Z</time>
      </trkpt>
      <trkpt lat="49.53815" lon="3.59848">
        <ele>68.86</ele>
        <time>2021-08-22T10:42:19.383Z</time>
      </trkpt>
      <trkpt lat="49.53802" lon="3.59822">
        <ele>69.03</ele>
        <time>2021-08-22T10:42:29.260Z</time>
      </trkpt>
      <trkpt lat="49.53792" lon="3.59809">
        <ele>70.31</ele>
        <time>2021-08-22T10:42:38.340Z</time>
      </trkpt>
      <trkpt lat="49.53782" lon="3.59792">
        <ele>69.77</ele>
        <time>2021-08-22T10:42:47.663Z</time>
      </trkpt>
      <trkpt lat="49.53771" lon="3.59777">
        <ele>71.28</ele>
        <time>2021-08-22T10:42:56.903Z</time>
      </trkpt>
      <trkpt lat="49.53758" lon="3.59764">
        <ele>70.85</ele>
        <time>2021-08-22T10:43:06.645Z</time>
      </trkpt>
      <trkpt lat="49.53746" lon="3.59742">
        <ele>75.15</ele>
        <time>2021-08-22T10:43:16.267Z</time>
      </trkpt>
      <trkpt lat="49.53739" lon="3.59728">
        <ele>74.87</ele>
        <time>2021-08-22T10:43:26.000Z</time>
      </trkpt>
      <trkpt lat="49.53731" lon="3.59707">
        <ele>76.34</ele>
        <time>2021-08-22T10:43:35.446Z</time>
      </trkpt>
      <trkpt lat="49.53728" lon="3.59692">
        <ele>77.2</ele>
        <time>2021-08-22T10:43:44.502Z</time>
      </trkpt>
      <trkpt lat="49.53723" lon="3.59673">
        <ele>77.22</ele>
        <time>2021-08-22T10:43:54.000Z</time>
      </trkpt>
      <trkpt lat="49.53714" lon="3.59651">
        <ele>76.03</ele>
        <time>2021-08-22T10:44:04.000Z</time>
      </trkpt>
      <trkpt lat="49.53707" lon="3.59637">
        <ele>76.87</ele>
        <time>2021-08-22T10:44:14.000Z</time>
      </trkpt>
      <trkpt lat="49.53697" lon="3.59619">
        <ele>76.5</ele>
        <time>2021-08-22T10:44:23.240Z</time>
      </trkpt>
      <trkpt lat="49.53686" lon="3.596">
        <ele>74.95</ele>
        <time>2021-08-22T10:44:32.301Z</time>
      </trkpt>
      <trkpt lat="49.53675" lon="3.59582">
        <ele>74.72</ele>
        <time>2021-08-22T10:44:42.000Z</time>
      </trkpt>
      <trkpt lat="49.53667" lon="3.59568">
        <ele>71.71</ele>
        <time>2021-08-22T10:44:52.000Z</time>
      </trkpt>
      <trkpt lat="49.53657" lon="3.59552">
        <ele>73.5</ele>
        <time>2021-08-22T10:45:01.381Z</time>
      </trkpt>
      <trkpt lat="49.53648" lon="3.59538">
        <ele>74.49</ele>
        <time>2021-08-22T10:45:12.000Z</time>
      </trkpt>
      <trkpt lat="49.53635" lon="3.5952">
        <ele>71.82</ele>
        <time>2021-08-22T10:45:21.067Z</time>
      </trkpt>
      <trkpt lat="49.53631" lon="3.59498">
        <ele>74.49</ele>
        <time>2021-08-22T10:45:30.705Z</time>
      </trkpt>
      <trkpt lat="49.53622" lon="3.59475">
        <ele>73</ele>
        <time>2021-08-22T10:45:41.000Z</time>
      </trkpt>
      <trkpt lat="49.53617" lon="3.59459">
        <ele>73.86</ele>
        <time>2021-08-22T10:45:51.000Z</time>
      </trkpt>
      <trkpt lat="49.53609" lon="3.59437">
        <ele>71.14</ele>
        <time>2021-08-22T10:46:00.002Z</time>
      </trkpt>
      <trkpt lat="49.53597" lon="3.59418">
        <ele>69.64</ele>
        <time>2021-08-22T10:46:09.745Z</time>
      </trkpt>
      <trkpt lat="49.53584" lon="3.59403">
        <ele>68.69</ele>
        <time>2021-08-22T10:46:19.162Z</time>
      </trkpt>
      <trkpt lat="49.53574" lon="3.59391">
        <ele>68.78</ele>
        <time>2021-08-22T10:46:28.764Z</time>
      </trkpt>
      <trkpt lat="49.53561" lon="3.59379">
        <ele>68.81</ele>
        <time>2021-08-22T10:46:38.463Z</time>
      </trkpt>
      <trkpt lat="49.53549" lon="3.59369">
        <ele>68.82</ele>
        <time>2021-08-22T10:46:47.666Z</time>
      </trkpt>
      <trkpt lat="49.53537" lon="3.59362">
        <ele>68.98</ele>
        <time>2021-08-22T10:46:56.758Z</time>
      </trkpt>
      <trkpt lat="49.53523" lon="3.59352">
        <ele>68.27</ele>
        <time>2021-08-22T10:47:05.801Z</time>
      </trkpt>
      <trkpt lat="49.53511" lon="3.59344">
        <ele>68.48</ele>
        <time>2021-08-22T10:47:14.802Z</time>
      </trkpt>
      <trkpt lat="49.53496" lon="3.59334">
        <ele>69.55</ele>
        <time>2021-08-22T10:47:24.184Z</time>
      </trkpt>
      <trkpt lat="49.53483" lon="3.59324">
        <ele>71.16</ele>
        <time>2021-08-22T10:47:33.748Z</time>
      </trkpt>
      <trkpt lat="49.53473" lon="3.59316">
        <ele>68.38</ele>
        <time>2021-08-22T10:47:43.000Z</time>
      </trkpt>
      <trkpt lat="49.53463" lon="3.59302">
        <ele>68.45</ele>
        <time>2021-08-22T10:47:52.141Z</time>
      </trkpt>
      <trkpt lat="49.53455" lon="3.59287">
        <ele>68.45</ele>
        <time>2021-08-22T10:48:01.264Z</time>
      </trkpt>
      <trkpt lat="49.53448" lon="3.59272">
        <ele>68.51</ele>
        <time>2021-08-22T10:48:10.548Z</time>
      </trkpt>
      <trkpt lat="49.53442" lon="3.59256">
        <ele>68.4</ele>
        <time>2021-08-22T10:48:20.000Z</time>
      </trkpt>
      <trkpt lat="49.53434" lon="3.59235">
        <ele>68.4</ele>
        <time>2021-08-22T10:48:29.460Z</time>
      </trkpt>
      <trkpt lat="49.53429" lon="3.59216">
        <ele>69.83</ele>
        <time>2021-08-22T10:48:38.724Z</time>
      </trkpt>
      <trkpt lat="49.53421" lon="3.59198">
        <ele>67.4</ele>
        <time>2021-08-22T10:48:49.000Z</time>
      </trkpt>
      <trkpt lat="49.53416" lon="3.59176">
        <ele>67.07</ele>
        <time>2021-08-22T10:49:00.000Z</time>
      </trkpt>
      <trkpt lat="49.53409" lon="3.59155">
        <ele>67.43</ele>
        <time>2021-08-22T10:49:09.945Z</time>
      </trkpt>
      <trkpt lat="49.53403" lon="3.59136">
        <ele>69.28</ele>
        <time>2021-08-22T10:49:19.599Z</time>
      </trkpt>
      <trkpt lat="49.53398" lon="3.59113">
        <ele>70.63</ele>
        <time>2021-08-22T10:49:29.627Z</time>
      </trkpt>
      <trkpt lat="49.53395" lon="3.59093">
        <ele>74.1</ele>
        <time>2021-08-22T10:49:38.681Z</time>
      </trkpt>
      <trkpt lat="49.53392" lon="3.59072">
        <ele>74.54</ele>
        <time>2021-08-22T10:49:47.904Z</time>
      </trkpt>
      <trkpt lat="49.5339" lon="3.59052">
        <ele>67.48</ele>
        <time>2021-08-22T10:49:57.499Z</time>
      </trkpt>
      <trkpt lat="49.53388" lon="3.59031">
        <ele>67.44</ele>
        <time>2021-08-22T10:50:06.543Z</time>
      </trkpt>
      <trkpt lat="49.53386" lon="3.59011">
        <ele>67.56</ele>
        <time>2021-08-22T10:50:15.567Z</time>
      </trkpt>
      <trkpt lat="49.53385" lon="3.58992">
        <ele>67.63</ele>
        <time>2021-08-22T10:50:25.000Z</time>
      </trkpt>
      <trkpt lat="49.53382" lon="3.58968">
        <ele>67.83</ele>
        <time>2021-08-22T10:50:34.506Z</time>
      </trkpt>
      <trkpt lat="49.53379" lon="3.58948">
        <ele>67.8</ele>
        <time>2021-08-22T10:50:43.522Z</time>
      </trkpt>
      <trkpt lat="49.53375" lon="3.5893">
        <ele>76</ele>
        <time>2021-08-22T10:50:53.000Z</time>
      </trkpt>
      <trkpt lat="49.5337" lon="3.5891">
        <ele>77.43</ele>
        <time>2021-08-22T10:51:02.604Z</time>
      </trkpt>
      <trkpt lat="49.53364" lon="3.58893">
        <ele>77.62</ele>
        <time>2021-08-22T10:51:12.000Z</time>
      </trkpt>
      <trkpt lat="49.53359" lon="3.58872">
        <ele>76.78</ele>
        <time>2021-08-22T10:51:21.383Z</time>
      </trkpt>
      <trkpt lat="49.53354" lon="3.58856">
        <ele>74.43</ele>
        <time>2021-08-22T10:51:31.000Z</time>
      </trkpt>
      <trkpt lat="49.53351" lon="3.58834">
        <ele>74.87</ele>
        <time>2021-08-22T10:51:40.081Z</time>
      </trkpt>
      <trkpt lat="49.53347" lon="3.58812">
        <ele>74.82</ele>
        <time>2021-08-22T10:51:49.705Z</time>
      </trkpt>
      <trkpt lat="49.53339" lon="3.58798">
        <ele>67.49</ele>
        <time>2021-08-22T10:51:58.741Z</time>
      </trkpt>
      <trkpt lat="49.53326" lon="3.58791">
        <ele>67.47</ele>
        <time>2021-08-22T10:52:07.747Z</time>
      </trkpt>
      <trkpt lat="49.53308" lon="3.58794">
        <ele>67.53</ele>
        <time>2021-08-22T10:52:17.539Z</time>
      </trkpt>
      <trkpt lat="49.53293" lon="3.58786">
        <ele>67.55</ele>
        <time>2021-08-22T10:52:27.803Z</time>
      </trkpt>
      <trkpt lat="49.5328" lon="3.58775">
        <ele>67.53</ele>
        <time>2021-08-22T10:52:37.362Z</time>
      </trkpt>
      <trkpt lat="49.53269" lon="3.58764">
        <ele>67.62</ele>
        <time>2021-08-22T10:52:48.000Z</time>
      </trkpt>
      <trkpt lat="49.53258" lon="3.58751">
        <ele>73.08</ele>
        <time>2021-08-22T10:52:58.000Z</time>
      </trkpt>
      <trkpt lat="49.53244" lon="3.5874">
        <ele>72.65</ele>
        <time>2021-08-22T10:53:07.323Z</time>
      </trkpt>
      <trkpt lat="49.53231" lon="3.58732">
        <ele>73.21</ele>
        <time>2021-08-22T10:53:18.000Z</time>
      </trkpt>
      <trkpt lat="49.53216" lon="3.58719">
        <ele>73.85</ele>
        <time>2021-08-22T10:53:27.502Z</time>
      </trkpt>
      <trkpt lat="49.53201" lon="3.58702">
        <ele>74.04</ele>
        <time>2021-08-22T10:53:37.766Z</time>
      </trkpt>
      <trkpt lat="49.53188" lon="3.5869">
        <ele>73.99</ele>
        <time>2021-08-22T10:53:47.646Z</time>
      </trkpt>
      <trkpt lat="49.53179" lon="3.58683">
        <ele>74.4</ele>
        <time>2021-08-22T10:53:57.000Z</time>
      </trkpt>
      <trkpt lat="49.53159" lon="3.58661">
        <ele>74.73</ele>
        <time>2021-08-22T10:54:06.458Z</time>
      </trkpt>
      <trkpt lat="49.53134" lon="3.58633">
        <ele>74.76</ele>
        <time>2021-08-22T10:54:15.521Z</time>
      </trkpt>
      <trkpt lat="49.53102" lon="3.58616">
        <ele>74.41</ele>
        <time>2021-08-22T10:54:26.000Z</time>
      </trkpt>
      <trkpt lat="49.53068" lon="3.58593">
        <ele>74.39</ele>
        <time>2021-08-22T10:54:35.704Z</time>
      </trkpt>
      <trkpt lat="49.53045" lon="3.58589">
        <ele>74.76</ele>
        <time>2021-08-22T10:54:45.505Z</time>
      </trkpt>
      <trkpt lat="49.53006" lon="3.58584">
        <ele>73.24</ele>
        <time>2021-08-22T10:54:54.655Z</time>
      </trkpt>
      <trkpt lat="49.52978" lon="3.58572">
        <ele>72.21</ele>
        <time>2021-08-22T10:55:04.407Z</time>
      </trkpt>
      <trkpt lat="49.52964" lon="3.58556">
        <ele>70.4</ele>
        <time>2021-08-22T10:55:15.000Z</time>
      </trkpt>
      <trkpt lat="49.52933" lon="3.58505">
        <ele>69.1</ele>
        <time>2021-08-22T10:55:24.693Z</time>
      </trkpt>
      <trkpt lat="49.52909" lon="3.58487">
        <ele>68.06</ele>
        <time>2021-08-22T10:55:33.741Z</time>
      </trkpt>
      <trkpt lat="49.52886" lon="3.58483">
        <ele>66.16</ele>
        <time>2021-08-22T10:55:43.063Z</time>
      </trkpt>
      <trkpt lat="49.52851" lon="3.58469">
        <ele>65.46</ele>
        <time>2021-08-22T10:55:52.172Z</time>
      </trkpt>
      <trkpt lat="49.52821" lon="3.58458">
        <ele>61.99</ele>
        <time>2021-08-22T10:56:01.608Z</time>
      </trkpt>
      <trkpt lat="49.52792" lon="3.58449">
        <ele>60.67</ele>
        <time>2021-08-22T10:56:11.196Z</time>
      </trkpt>
      <trkpt lat="49.52771" lon="3.58431">
        <ele>61.08</ele>
        <time>2021-08-22T10:56:20.807Z</time>
      </trkpt>
      <trkpt lat="49.52777" lon="3.58389">
        <ele>59.45</ele>
        <time>2021-08-22T10:56:29.990Z</time>
      </trkpt>
      <trkpt lat="49.52791" lon="3.5833">
        <ele>61.81</ele>
        <time>2021-08-22T10:56:39.544Z</time>
      </trkpt>
      <trkpt lat="49.52798" lon="3.5828">
        <ele>61.41</ele>
        <time>2021-08-22T10:56:49.643Z</time>
      </trkpt>
      <trkpt lat="49.52807" lon="3.58235">
        <ele>63.27</ele>
        <time>2021-08-22T10:56:59.132Z</time>
      </trkpt>
      <trkpt lat="49.52816" lon="3.58183">
        <ele>63.95</ele>
        <time>2021-08-22T10:57:08.503Z</time>
      </trkpt>
      <trkpt lat="49.52819" lon="3.58147">
        <ele>67.16</ele>
        <time>2021-08-22T10:57:18.192Z</time>
      </trkpt>
      <trkpt lat="49.52824" lon="3.58094">
        <ele>67.24</ele>
        <time>2021-08-22T10:57:28.000Z</time>
      </trkpt>
      <trkpt lat="49.52831" lon="3.58042">
        <ele>68.73</ele>
        <time>2021-08-22T10:57:37.245Z</time>
      </trkpt>
      <trkpt lat="49.52836" lon="3.57991">
        <ele>69.56</ele>
        <time>2021-08-22T10:57:46.830Z</time>
      </trkpt>
      <trkpt lat="49.52839" lon="3.57948">
        <ele>70.47</ele>
        <time>2021-08-22T10:57:56.483Z</time>
      </trkpt>
      <trkpt lat="49.52846" lon="3.57894">
        <ele>70.55</ele>
        <time>2021-08-22T10:58:07.000Z</time>
      </trkpt>
      <trkpt lat="49.52849" lon="3.57832">
        <ele>70.58</ele>
        <time>2021-08-22T10:58:16.509Z</time>
      </trkpt>
      <trkpt lat="49.5285" lon="3.57782">
        <ele>70.66</ele>
        <time>2021-08-22T10:58:25.683Z</time>
      </trkpt>
      <trkpt lat="49.52851" lon="3.57736">
        <ele>70.6</ele>
        <time>2021-08-22T10:58:34.686Z</time>
      </trkpt>
      <trkpt lat="49.52849" lon="3.57691">
        <ele>70.55</ele>
        <time>2021-08-22T10:58:43.831Z</time>
      </trkpt>
      <trkpt lat="49.52847" lon="3.5764">
        <ele>70.98</ele>
        <time>2021-08-22T10:58:53.263Z</time>
      </trkpt>
      <trkpt lat="49.52846" lon="3.57596">
        <ele>71.57</ele>
        <time>2021-08-22T10:59:03.000Z</time>
      </trkpt>
      <trkpt lat="49.52847" lon="3.57549">
        <ele>68.95</ele>
        <time>2021-08-22T10:59:12.303Z</time>
      </trkpt>
      <trkpt lat="49.52842" lon="3.57482">
        <ele>65.36</ele>
        <time>2021-08-22T10:59:21.329Z</time>
      </trkpt>
      <trkpt lat="49.52834" lon="3.57432">
        <ele>65.8</ele>
        <time>2021-08-22T10:59:30.444Z</time>
      </trkpt>
      <trkpt lat="49.52831" lon="3.57397">
        <ele>66.3</ele>
        <time>2021-08-22T10:59:40.269Z</time>
      </trkpt>
      <trkpt lat="49.52825" lon="3.5734">
        <ele>67.51</ele>
        <time>2021-08-22T10:59:49.823Z</time>
      </trkpt>
      <trkpt lat="49.52821" lon="3.57296">
        <ele>68.87</ele>
        <time>2021-08-22T10:59:59.026Z</time>
      </trkpt>
      <trkpt lat="49.52815" lon="3.57247">
        <ele>68.55</ele>
        <time>2021-08-22T11:00:08.408Z</time>
      </trkpt>
      <trkpt lat="49.52811" lon="3.57206">
        <ele>69.16</ele>
        <time>2021-08-22T11:00:18.000Z</time>
      </trkpt>
      <trkpt lat="49.52807" lon="3.57168">
        <ele>69.67</ele>
        <time>2021-08-22T11:00:27.384Z</time>
      </trkpt>
      <trkpt lat="49.52801" lon="3.57112">
        <ele>65.81</ele>
        <time>2021-08-22T11:00:36.450Z</time>
      </trkpt>
      <trkpt lat="49.52797" lon="3.57068">
        <ele>65.61</ele>
        <time>2021-08-22T11:00:46.000Z</time>
      </trkpt>
      <trkpt lat="49.52791" lon="3.57018">
        <ele>65.67</ele>
        <time>2021-08-22T11:00:55.570Z</time>
      </trkpt>
      <trkpt lat="49.52785" lon="3.56971">
        <ele>65.66</ele>
        <time>2021-08-22T11:01:05.173Z</time>
      </trkpt>
      <trkpt lat="49.52781" lon="3.56932">
        <ele>65.63</ele>
        <time>2021-08-22T11:01:14.488Z</time>
      </trkpt>
      <trkpt lat="49.52777" lon="3.56899">
        <ele>65.46</ele>
        <time>2021-08-22T11:01:24.192Z</time>
      </trkpt>
      <trkpt lat="49.52769" lon="3.5685">
        <ele>65.42</ele>
        <time>2021-08-22T11:01:33.316Z</time>
      </trkpt>
      <trkpt lat="49.52766" lon="3.56811">
        <ele>76.25</ele>
        <time>2021-08-22T11:01:42.816Z</time>
      </trkpt>
      <trkpt lat="49.52777" lon="3.5681">
        <ele>76.84</ele>
        <time>2021-08-22T11:01:52.000Z</time>
      </trkpt>
      <trkpt lat="49.52806" lon="3.56827">
        <ele>77.51</ele>
        <time>2021-08-22T11:02:01.651Z</time>
      </trkpt>
      <trkpt lat="49.52823" lon="3.56838">
        <ele>75.72</ele>
        <time>2021-08-22T11:02:11.527Z</time>
      </trkpt>
      <trkpt lat="49.52833" lon="3.56842">
        <ele>66.38</ele>
        <time>2021-08-22T11:02:20.569Z</time>
      </trkpt>
      <trkpt lat="49.52843" lon="3.56847">
        <ele>66.22</ele>
        <time>2021-08-22T11:02:29.853Z</time>
      </trkpt>
      <trkpt lat="49.52855" lon="3.56854">
        <ele>66.32</ele>
        <time>2021-08-22T11:02:39.527Z</time>
      </trkpt>
      <trkpt lat="49.5287" lon="3.56857">
        <ele>66.27</ele>
        <time>2021-08-22T11:02:49.492Z</time>
      </trkpt>
      <trkpt lat="49.52882" lon="3.56862">
        <ele>66.31</ele>
        <time>2021-08-22T11:02:58.973Z</time>
      </trkpt>
      <trkpt lat="49.52883" lon="3.56879">
        <ele>65.7</ele>
        <time>2021-08-22T11:03:08.000Z</time>
      </trkpt>
      <trkpt lat="49.52881" lon="3.56881">
        <ele>65.83</ele>
        <time>2021-08-22T11:03:17.405Z</time>
      </trkpt>
      <trkpt lat="49.52877" lon="3.56878">
        <ele>65.79</ele>
        <time>2021-08-22T11:03:27.000Z</time>
      </trkpt>
      <trkpt lat="49.52883" lon="3.56878">
        <ele>65.89</ele>
        <time>2021-08-22T11:03:38.000Z</time>
      </trkpt>
      <trkpt lat="49.5288" lon="3.56876">
        <ele>65.88</ele>
        <time>2021-08-22T11:03:48.000Z</time>
      </trkpt>
      <trkpt lat="49.52877" lon="3.5688">
        <ele>65.91</ele>
        <time>2021-08-22T11:03:58.000Z</time>
      </trkpt>
      <trkpt lat="49.52878" lon="3.56882">
        <ele>65.79</ele>
        <time>2021-08-22T11:04:08.000Z</time>
      </trkpt>
      <trkpt lat="49.52874" lon="3.56884">
        <ele>65.71</ele>
        <time>2021-08-22T11:04:18.000Z</time>
      </trkpt>
    </trkseg>
  </trk>
</gpx>